[[[{"header":{"parameterUnit":"kt","parameterCategory":2,"dx":1,"dy":1,"la1":29.285339999999998,"la2":30.599998999999997,"lo1":-89.70041500000002,"lo2":-87.6738589999976,"nx":112,"ny":82,"refTime":"2022-10-19T18:00:00:Z","depth":0,"parameterNumber":1,"parameterNumberName":"U-component_of_WINDS"},"data":[-5.4665,-5.5023,0.0,-4.0523,-3.8107,0.0,-2.5147,0.0,-2.5019,0.0,0.0,0.0,0.0,0.0,0.0,0.0,0.0,0.0,0.0,0.0,0.0,0.0,0.0,0.0,0.0,0.0,0.0,0.0,0.0,0.0,0.0,0.0,-4.7937,-4.7937,-4.8531,-4.8732,-4.8612,-4.8107,-4.7434,-4.6453,-4.5702,-4.4474,-4.2901,-4.1995,-4.0668,-3.9085,-3.8577,-3.7875,-3.7143,-3.7143,-3.7143,-3.7143,-3.7143,-3.7079,-3.6949,-3.6949,-3.6625,-3.6038,-3.5098,-3.4019,-3.2912,-3.168,-2.9956,-2.8259,-2.7785,-2.6973,-2.6183,-2.5955,-2.6055,-2.6183,-2.5955,-2.6069,-2.6226,-2.6226,-2.6226,-2.6126,-2.5714,-2.4676,-2.3499,-2.253,-2.0442,-1.8602,-1.7743,-1.6189,-1.537,-1.6419,-1.6043,-1.5297,-1.4231,-1.3922,-1.3485,-1.2544,-1.2416,-1.2416,-1.2416,-1.2416,-1.228,-1.1888,-1.1239,-1.0718,-1.0332,-0.8715,-0.7685,-0.7421,-0.5215,-0.3981,-0.3785,-0.2679,-0.2156,-0.2156,-0.2156,-0.2156,0.0,0.0,-4.9751,-3.5306,0.0,0.0,0.0,0.0,0.0,0.0,0.0,0.0,0.0,0.0,0.0,0.0,0.0,0.0,0.0,0.0,0.0,0.0,0.0,0.0,0.0,0.0,0.0,0.0,0.0,0.0,0.0,-4.9103,-4.9144,-4.914,-4.9817,-5.0076,-4.9893,-4.9587,-4.888,-4.7951,-4.7121,-4.5956,-4.432,-4.3365,-4.1995,-4.0358,-3.9442,-3.8577,-3.7768,-3.7317,-3.7143,-3.7143,-3.7143,-3.7143,-3.7143,-3.7143,-3.6949,-3.669,-3.6103,-3.5164,-3.4086,-3.3382,-3.1748,-2.9973,-2.9475,-2.8189,-2.6973,-2.6973,-2.6636,-2.6226,-2.6226,-2.6226,-2.6226,-2.6226,-2.6226,-2.6055,-2.5415,-2.4789,-2.3954,-2.2632,-2.1317,-2.0047,-1.9171,-1.8253,-1.7806,-1.8292,-1.7857,-1.6983,-1.5791,-1.5117,-1.4303,-1.3294,-1.2728,-1.2416,-1.2416,-1.2416,-1.2416,-1.2416,-1.1823,-1.1439,-1.1439,-1.0011,-0.9108,-0.892,-0.6903,-0.5475,-0.4632,-0.3525,-0.2679,-0.2156,-0.2156,-0.2156,0.0,0.0,0.0,-2.9412,0.0,0.0,0.0,0.0,-2.1519,0.0,0.0,0.0,0.0,0.0,0.0,0.0,0.0,0.0,0.0,0.0,0.0,0.0,0.0,0.0,0.0,0.0,0.0,0.0,0.0,0.0,-4.9667,-5.0267,-5.027,-5.0259,-5.0274,-5.03,-5.0239,-4.9994,-4.981,-4.976,-4.7976,-4.7105,-4.6971,-4.4237,-4.2985,-4.2841,-4.0296,-3.919,-3.9,-3.7768,-3.7188,-3.7188,-3.7123,-3.7143,-3.7143,-3.7143,-3.7143,-3.7079,-3.669,-3.6299,-3.571,-3.4314,-3.3582,-3.2979,-3.1595,-2.9888,-2.8452,-2.8382,-2.738,-2.6296,-2.624,-2.6211,-2.6197,-2.6197,-2.6197,-2.6027,-2.5358,-2.4761,-2.4084,-2.3417,-2.2064,-2.0872,-2.0219,-2.0613,-2.0872,-2.0219,-1.9233,-1.8179,-1.717,-1.5917,-1.4981,-1.462,-1.3358,-1.2472,-1.248,-1.2416,-1.2416,-1.2416,-1.2416,-1.2416,-1.2416,-1.1495,-1.0661,-1.0017,-0.8979,-0.7227,-0.4825,-0.4697,-0.3785,-0.2221,-0.2221,-0.2156,-4.0935,0.0,0.0,0.0,0.0,0.0,0.0,0.0,0.0,0.0,0.0,0.0,0.0,0.0,0.0,0.0,0.0,0.0,0.0,0.0,0.0,0.0,0.0,0.0,0.0,0.0,0.0,0.0,0.0,-4.3575,-5.2369,-5.2845,-5.2851,-5.2851,-5.3565,-5.3509,-5.2548,-5.2292,-5.1736,-5.0842,-4.9119,-4.787,-4.6971,-4.5179,-4.3844,-4.2925,-4.2177,-4.1346,-4.038,-3.9063,-3.8577,-3.845,-3.751,-3.7143,-3.7143,-3.7143,-3.7143,-3.7143,-3.7014,-3.669,-3.6234,-3.5579,-3.4598,-3.3497,-3.2827,-3.1595,-3.0077,-2.873,-2.8119,-2.7576,-2.6494,-2.5899,-2.5543,-2.5543,-2.5543,-2.5244,-2.4084,-2.407,-2.4021,-2.294,-2.2402,-2.2046,-2.191,-2.2032,-2.2046,-2.191,-2.1348,-2.0539,-1.9344,-1.8602,-1.7358,-1.5108,-1.4484,-1.3795,-1.2536,-1.2416,-1.2416,-1.2416,-1.2416,-1.2416,-1.2416,-1.2152,-1.1959,-1.1759,-1.0274,-0.9043,-0.8064,-0.58,-0.4304,-0.3522,-0.3522,-0.3066,0.0,0.0,0.0,0.0,0.0,0.0,-2.1548,0.0,-1.9277,0.0,0.0,0.0,0.0,0.0,0.0,0.0,0.0,0.0,0.0,0.0,0.0,0.0,0.0,0.0,0.0,0.0,0.0,0.0,-4.8463,-4.7468,-5.5666,-5.5619,-5.5344,-5.5322,-5.5368,-5.5049,-5.4248,-5.3566,-5.2848,-5.2166,-5.0641,-4.9206,-4.7929,-4.6482,-4.5047,-4.3725,-4.3224,-4.2563,-4.1713,-4.0442,-3.9567,-3.9021,-3.8259,-3.796,-3.7896,-3.7317,-3.7143,-3.7143,-3.7143,-3.6949,-3.6755,-3.6494,-3.5822,-3.4928,-3.4664,-3.3363,-3.1815,-3.071,-2.9422,-2.8328,-2.8065,-2.6834,-2.581,-2.6402,-2.6141,-2.533,-2.3999,-2.4013,-2.3964,-2.2774,-2.2532,-2.2532,-2.2532,-2.2532,-2.2532,-2.2532,-2.235,-2.1849,-2.0968,-2.0157,-1.8974,-1.7035,-1.6357,-1.535,-1.3668,-1.3477,-1.323,-1.2472,-1.2416,-1.2416,-1.2416,-1.2416,-1.2416,-1.2416,-1.151,-1.0532,-0.9559,-0.7611,-0.651,-0.6246,-0.5208,-0.4171,0.0,0.0,0.0,0.0,-2.9036,0.0,0.0,0.0,-2.3534,-2.1871,0.0,0.0,0.0,0.0,0.0,0.0,0.0,0.0,0.0,0.0,0.0,0.0,0.0,0.0,0.0,-4.9989,-5.1146,-5.8923,-5.2117,-5.1176,-5.9283,-5.8489,-5.7774,-5.7757,-5.651,-5.5713,-5.5426,-5.4248,-5.363,-5.3436,-5.2014,-5.0641,-4.9379,-4.783,-4.6384,-4.5088,-4.3773,-4.3224,-4.3105,-4.1774,-4.0544,-3.9504,-3.9504,-3.9442,-3.9127,-3.8024,-3.751,-3.7317,-3.7317,-3.7253,-3.7143,-3.7143,-3.6884,-3.6625,-3.6625,-3.5211,-3.36,-3.3333,-3.1136,-2.9145,-3.0247,-2.8436,-2.6731,-2.8205,-2.7346,-2.5869,-2.4789,-2.44,-2.3993,-2.2874,-2.2574,-2.2532,-2.2532,-2.2532,-2.2532,-2.2532,-2.2532,-2.241,-2.2093,-2.1029,-2.0096,-1.9529,-1.8478,-1.7097,-1.5413,-1.5108,-1.4358,-1.2855,-1.2536,-1.2416,-1.2416,-1.2416,-1.2416,-1.2416,-1.2416,-1.1703,-1.0146,-0.9624,-0.9425,-0.936,-0.7089,-0.5591,0.0,0.0,0.0,0.0,0.0,-2.6534,0.0,0.0,0.0,0.0,0.0,0.0,0.0,0.0,0.0,0.0,0.0,0.0,0.0,0.0,0.0,0.0,0.0,0.0,0.0,-6.0143,-6.0477,-6.0787,-5.9247,-5.9457,-6.23,-6.1202,-6.0458,-6.0445,-5.9223,-5.7527,-5.5426,-5.5175,-5.4504,-5.3436,-5.2014,-5.1169,-5.0829,-4.8567,-4.7161,-4.6591,-4.546,-4.4859,-4.4424,-4.3105,-4.2419,-4.2177,-4.2177,-4.1591,-4.0628,-4.038,-3.9567,-3.8705,-3.8705,-3.8003,-3.7143,-3.7143,-3.7079,-3.7014,-3.7014,-3.6494,-3.554,-3.3734,-3.2778,-3.2018,-3.0812,-2.8869,-2.7579,-2.9125,-2.7407,-2.5599,-2.6084,-2.5186,-2.4056,-2.3304,-2.2812,-2.2532,-2.2532,-2.2532,-2.2532,-2.2532,-2.2532,-2.2532,-2.2471,-2.2214,-2.1531,-2.0096,-1.9714,-1.885,-1.716,-1.5728,-1.4855,-1.4475,-1.3167,-1.2416,-1.2416,-1.2416,-1.2416,-1.2416,-1.2416,-1.2152,-1.1624,-1.0403,-0.9824,-0.9759,-0.8973,-0.7396,0.0,0.0,0.0,-2.7454,0.0,0.0,0.0,0.0,0.0,0.0,0.0,0.0,0.0,0.0,0.0,0.0,0.0,0.0,0.0,0.0,0.0,0.0,0.0,0.0,-6.4316,-6.4761,-6.4385,-6.2612,-6.2324,-6.3082,-6.5001,-6.3285,-6.2242,-6.2236,-6.0277,-5.8968,-5.8369,-5.6379,-5.54,-5.5397,-5.3363,-5.204,-5.1308,-5.0014,-4.8606,-4.7031,-4.6478,-4.5759,-4.4859,-4.4223,-4.4045,-4.4164,-4.3284,-4.2563,-4.1896,-4.1245,-4.0628,-3.9943,-3.9316,-3.8641,-3.8024,-3.7317,-3.7143,-3.7143,-3.7143,-3.7014,-3.656,-3.5277,-3.4266,-3.3448,-3.3114,-3.1185,-2.962,-3.0995,-2.9602,-2.7641,-2.6768,-2.6032,-2.4971,-2.3236,-2.2746,-2.2532,-2.2532,-2.2532,-2.2532,-2.2532,-2.2532,-2.2532,-2.2532,-2.2532,-2.2214,-2.1409,-2.1287,-2.06,-1.8912,-1.7783,-1.6545,-1.5044,-1.4049,-1.3167,-1.248,-1.2416,-1.2416,-1.2416,-1.2416,-1.2344,-1.228,-1.1503,-1.1182,-1.1175,-1.0322,-0.9036,0.0,0.0,0.0,0.0,0.0,0.0,-2.7191,-3.0282,-3.5049,0.0,0.0,0.0,0.0,0.0,0.0,0.0,0.0,0.0,0.0,0.0,0.0,0.0,0.0,0.0,-6.7735,-6.7384,-6.6472,-6.474,-6.4304,-6.4888,-6.6664,-6.4508,-6.3198,-6.3198,-6.0916,-6.0161,-6.12,-5.8103,-5.6823,-5.7306,-5.519,-5.335,-5.1724,-5.1522,-5.0127,-4.7855,-4.7434,-4.6527,-4.5387,-4.5132,-4.5234,-4.5409,-4.4021,-4.3463,-4.3284,-4.2162,-4.1614,-4.1245,-4.0193,-3.9504,-3.8874,-3.7811,-3.7317,-3.7143,-3.7143,-3.7143,-3.7079,-3.6755,-3.554,-3.4513,-3.5362,-3.3582,-3.1899,-3.28,-3.1675,-2.9839,-2.7791,-2.6828,-2.5675,-2.3342,-2.2881,-2.282,-2.2592,-2.2532,-2.2532,-2.2532,-2.2532,-2.2532,-2.2532,-2.2532,-2.2532,-2.2532,-2.2532,-2.2032,-2.0648,-1.9911,-1.8478,-1.598,-1.536,-1.4367,-1.2919,-1.2855,-1.2728,-1.248,-1.2416,-1.2416,-1.2416,-1.2416,-1.244,-1.2369,-1.1278,-1.0283,-2.5037,-2.5432,-2.6813,0.0,0.0,0.0,-4.3532,-4.5176,-4.7576,0.0,0.0,0.0,0.0,0.0,0.0,0.0,0.0,0.0,0.0,0.0,0.0,0.0,0.0,0.0,-7.1518,-7.0545,-6.9287,-6.7655,-6.7506,-6.7004,-6.5738,-6.4071,-6.3198,-6.3198,-6.1777,-6.1089,-6.1228,-6.0786,-5.9478,-5.7332,-5.7071,-5.5578,-5.3143,-5.2218,-5.1509,-5.0729,-4.8769,-4.7687,-4.7215,-4.592,-4.5583,-4.5814,-4.5351,-4.5234,-4.5118,-4.4659,-4.3725,-4.2744,-4.254,-4.1016,-3.9085,-3.8874,-3.8067,-3.7143,-3.7143,-3.7143,-3.7143,-3.7079,-3.669,-3.6149,-3.571,-3.4532,-3.3532,-3.3687,-3.1827,-2.9999,-2.9945,-2.7535,-2.517,-2.4296,-2.4083,-2.3799,-2.2713,-2.2532,-2.2532,-2.2532,-2.2532,-2.2532,-2.2532,-2.2532,-2.2532,-2.2532,-2.2532,-2.2471,-2.2275,-2.0845,-1.9665,-1.8974,-1.7483,-1.599,-1.443,-1.4367,-1.374,-1.248,-1.2416,-1.2416,-1.2416,-1.2416,-1.2314,-1.2068,-1.1967,-1.1074,-2.4899,-2.5594,-2.6534,0.0,0.0,0.0,0.0,-4.7083,0.0,0.0,0.0,0.0,0.0,0.0,0.0,0.0,0.0,0.0,0.0,0.0,0.0,0.0,0.0,0.0,0.0,-6.9998,-6.8396,-6.8249,-6.7567,-6.671,-6.5768,-6.4245,-6.3342,-6.3198,-6.192,-6.1953,-6.3505,-6.1984,-6.111,-6.0724,-5.8396,-5.634,-5.4542,-5.3338,-5.2243,-5.1282,-5.0376,-4.906,-4.7559,-4.7169,-4.7027,-4.7036,-4.6063,-4.5583,-4.5492,-4.5293,-4.4718,-4.3962,-4.3224,-4.2238,-4.1078,-3.9567,-3.8705,-3.8131,-3.7382,-3.7143,-3.7143,-3.7143,-3.7014,-3.6755,-3.6299,-3.5756,-3.5332,-3.5154,-3.3752,-3.2112,-3.0998,-2.9144,-2.7458,-2.6716,-2.533,-2.4142,-2.3679,-2.2987,-2.2532,-2.2532,-2.2532,-2.2532,-2.2532,-2.2532,-2.2532,-2.2532,-2.2532,-2.2532,-2.2532,-2.1727,-2.0784,-1.9837,-1.8738,-1.7494,-1.599,-1.5054,-1.4312,-1.3676,-1.2855,-1.2416,-1.2416,-1.2416,-1.229,-1.2057,-1.1592,-1.1013,-2.5594,0.0,0.0,0.0,0.0,0.0,0.0,0.0,0.0,0.0,0.0,0.0,0.0,0.0,0.0,0.0,0.0,0.0,0.0,0.0,0.0,0.0,0.0,0.0,0.0,0.0,0.0,0.0,-6.6552,-6.5753,-6.5025,-6.3912,-6.3159,-6.2818,-6.1773,-6.2472,-6.5089,-6.324,-6.278,-6.3662,-6.0436,-5.7877,-5.5874,-5.4569,-5.321,-5.1939,-5.1636,-5.03,-4.8357,-4.8537,-4.8218,-4.7613,-4.6485,-4.593,-4.5724,-4.555,-4.5293,-4.4918,-4.3844,-4.3284,-4.2661,-4.0792,-3.9943,-3.9442,-3.8514,-3.7939,-3.7703,-3.7703,-3.7382,-3.7079,-3.6755,-3.669,-3.65,-3.5809,-3.4894,-3.3644,-3.1678,-3.0439,-2.9392,-2.8464,-2.6698,-2.5271,-2.4916,-2.3814,-2.3047,-2.3047,-2.276,-2.2532,-2.2532,-2.2532,-2.2532,-2.2532,-2.2532,-2.2532,-2.2532,-2.2289,-2.1653,-2.06,-2.0047,-1.906,-1.7545,-1.6304,-1.5316,-1.462,-1.3549,-1.2855,-1.2416,-1.275,-1.2563,-1.2049,-1.1232,-1.0798,0.0,0.0,0.0,0.0,0.0,0.0,-5.9327,0.0,0.0,0.0,0.0,0.0,0.0,0.0,0.0,0.0,0.0,0.0,0.0,0.0,0.0,0.0,0.0,0.0,0.0,0.0,0.0,0.0,-6.501,-6.4332,-6.2752,-6.2663,-6.239,-6.1842,-6.1449,-6.2472,-6.5089,-6.5059,-6.5004,-6.5019,-6.3657,-6.0995,-5.7253,-5.5927,-5.4605,-5.3334,-5.2332,-5.1189,-5.0087,-5.0087,-4.8818,-4.6864,-4.6554,-4.6439,-4.6382,-4.5724,-4.5492,-4.5433,-4.4976,-4.4021,-4.2961,-4.2841,-4.1957,-4.0937,-4.0898,-4.0006,-3.9,-3.9,-3.8067,-3.7143,-3.7123,-3.7143,-3.6729,-3.5216,-3.443,-3.3582,-3.1988,-3.1043,-3.0088,-2.8834,-2.8299,-2.7663,-2.638,-2.5109,-2.4246,-2.4246,-2.3288,-2.2532,-2.2532,-2.2532,-2.2532,-2.2532,-2.2532,-2.2532,-2.2532,-2.2532,-2.235,-2.191,-2.168,-2.0749,-1.906,-1.8564,-1.7192,-1.462,-1.4566,-1.3804,-1.2416,-1.3472,-1.3279,-1.2049,-1.1232,-1.068,-3.1496,-3.546,-3.9983,0.0,-5.1705,-5.6747,-6.1633,0.0,0.0,0.0,0.0,0.0,0.0,0.0,0.0,0.0,0.0,0.0,0.0,0.0,0.0,0.0,0.0,0.0,0.0,0.0,0.0,0.0,0.0,0.0,-6.2898,-6.2682,-6.252,-6.2331,-6.1865,-6.273,-6.5089,-6.5118,-6.5548,-6.6424,-6.5093,-6.286,-5.9863,-5.7673,-5.5947,-5.4669,-5.3479,-5.3222,-5.3546,-5.2043,-5.0527,-4.8869,-4.734,-4.6611,-4.6439,-4.621,-4.5839,-4.5492,-4.5351,-4.4859,-4.4105,-4.3224,-4.2684,-4.214,-4.1307,-4.069,-4.038,-4.038,-3.9442,-3.845,-3.845,-3.7768,-3.6978,-3.6484,-3.5137,-3.3882,-3.3345,-3.2085,-3.0839,-2.9993,-2.912,-2.8241,-2.7663,-2.6481,-2.5582,-2.5582,-2.4515,-2.3679,-2.3679,-2.3047,-2.2532,-2.2532,-2.2532,-2.2532,-2.2532,-2.2532,-2.2471,-2.235,-2.2046,-2.1605,-2.1042,-1.9616,-1.8439,-1.7556,-1.644,-1.5421,-1.4511,-1.436,-1.3653,-1.24,-1.135,-1.0672,-3.7659,-4.1308,0.0,-5.2693,-5.8424,-6.2776,-6.4872,-6.8343,-7.1021,0.0,0.0,0.0,0.0,0.0,0.0,0.0,0.0,0.0,0.0,0.0,0.0,0.0,0.0,0.0,0.0,0.0,0.0,0.0,0.0,-6.2976,-6.2976,-6.2815,-6.2682,-6.2574,-6.2276,-6.2687,-6.3925,-6.4711,-6.599,-6.7735,-6.6468,-6.4438,-6.1877,-5.9684,-5.7808,-5.6059,-5.5185,-5.51,-5.5427,-5.3997,-5.2199,-5.0151,-4.8739,-4.7511,-4.6611,-4.6497,-4.621,-4.5839,-4.5666,-4.5409,-4.4976,-4.4164,-4.3784,-4.3487,-4.2647,-4.2102,-4.1713,-4.1713,-4.0814,-3.963,-3.919,-3.845,-3.7703,-3.7253,-3.6067,-3.4982,-3.4282,-3.2889,-3.1587,-3.0897,-3.0049,-2.9349,-2.9178,-2.8108,-2.7181,-2.7082,-2.5978,-2.5077,-2.4975,-2.4352,-2.3709,-2.3228,-2.3168,-2.2987,-2.2592,-2.2532,-2.2532,-2.2532,-2.2153,-2.1971,-2.1971,-2.0674,-1.9677,-1.906,-1.8055,-1.725,-1.6582,-1.591,-1.4576,-1.274,-1.1768,-1.0927,-4.4239,-4.6255,-4.848,-6.0097,-6.366,-6.5287,0.0,0.0,0.0,0.0,0.0,0.0,0.0,0.0,0.0,0.0,0.0,0.0,0.0,0.0,0.0,0.0,0.0,0.0,0.0,0.0,0.0,0.0,-6.3554,-6.2976,-6.2976,-6.2976,-6.2868,-6.2628,-6.2574,-6.2331,-6.1839,-6.3955,-6.6339,-6.8898,-6.7706,-6.5847,-6.3334,-6.1938,-5.9977,-5.7642,-5.756,-5.693,-5.6002,-5.592,-5.386,-5.0763,-5.0656,-4.9153,-4.7003,-4.6693,-4.6497,-4.6382,-4.607,-4.5724,-4.5492,-4.5492,-4.5234,-4.4918,-4.4918,-4.4045,-4.3021,-4.3021,-4.214,-4.0814,-3.9567,-3.919,-3.8768,-3.751,-3.7188,-3.666,-3.4845,-3.3583,-3.2433,-3.1501,-3.1083,-3.0934,-3.0878,-2.9898,-2.9008,-2.8701,-2.7553,-2.6681,-2.6422,-2.6321,-2.5775,-2.4559,-2.4381,-2.3919,-2.2774,-2.2653,-2.2592,-2.2532,-2.2228,-2.2032,-2.2032,-2.1741,-2.0872,-1.9245,-1.948,-1.9244,-1.8556,-1.7981,-1.6155,-1.3126,-1.2404,-1.1443,-4.831,-5.5028,-6.0311,-6.6785,-6.8636,-6.9195,0.0,0.0,-7.0174,0.0,-6.9804,-6.9903,0.0,0.0,0.0,0.0,0.0,0.0,0.0,0.0,0.0,0.0,0.0,0.0,0.0,0.0,0.0,0.0,-6.3554,-6.2976,-6.2976,-6.2976,-6.2976,-6.2868,-6.2682,-6.2549,-6.2386,-6.3421,-6.518,-6.7593,-6.82,-6.7669,-6.5999,-6.3698,-6.2325,-6.1661,-6.0658,-5.954,-5.8334,-5.7525,-5.617,-5.4305,-5.2429,-5.0813,-4.9454,-4.8422,-4.7353,-4.6439,-4.6325,-4.607,-4.5757,-4.5757,-4.5583,-4.5351,-4.5351,-4.4918,-4.4424,-4.4424,-4.3487,-4.2382,-4.2056,-4.0544,-3.9021,-3.8641,-3.7832,-3.6821,-3.565,-3.4664,-3.3423,-3.162,-3.1211,-3.1119,-3.0934,-3.0633,-3.0389,-3.0295,-2.9063,-2.805,-2.801,-2.6948,-2.6086,-2.5775,-2.5775,-2.5228,-2.3978,-2.3859,-2.3454,-2.2592,-2.2471,-2.241,-2.241,-2.2046,-2.1666,-2.1225,-2.1592,-2.0953,-1.9338,-1.8615,-1.7146,-1.5004,-1.3194,-1.206,-4.963,-5.7638,-6.5347,-7.064,-7.1782,-7.1535,-7.1419,-7.11,-7.0685,-7.0225,-7.0183,-7.0225,-7.0141,-7.0048,-6.9837,-6.9623,-6.9494,0.0,0.0,0.0,0.0,0.0,0.0,0.0,0.0,0.0,0.0,0.0,-6.3869,-6.2976,-6.2976,-6.2976,-6.2976,-6.2976,-6.2815,-6.2736,-6.2574,-6.3547,-6.4799,-6.6406,-6.8176,-6.8317,-6.695,-6.4947,-6.3997,-6.3954,-6.2617,-6.1318,-6.0086,-5.9484,-5.8235,-5.6451,-5.445,-5.2711,-5.0978,-4.9249,-4.8054,-4.7297,-4.6813,-4.6439,-4.6127,-4.6127,-4.593,-4.5641,-4.555,-4.5351,-4.5093,-4.4976,-4.4341,-4.3666,-4.3105,-4.1873,-4.0668,-4.0068,-3.8958,-3.7756,-3.6827,-3.5569,-3.4063,-3.2381,-3.1769,-3.153,-3.1326,-3.1326,-3.127,-3.1083,-3.0313,-2.9671,-2.9463,-2.8662,-2.7837,-2.7198,-2.7082,-2.6598,-2.5287,-2.4619,-2.4023,-2.3348,-2.282,-2.2532,-2.2532,-2.235,-2.2167,-2.1971,-2.235,-2.1741,-2.0078,-1.9519,-1.8192,-1.6126,-1.4771,-1.374,-5.143,-5.8352,-6.6624,-7.2712,-7.3495,-7.2584,-7.203,0.0,-7.1072,0.0,-7.0473,-7.0522,-7.0424,-7.0416,-7.0216,-6.9751,-6.9666,-6.958,-6.9287,-6.9408,0.0,0.0,0.0,0.0,0.0,0.0,0.0,0.0,-6.4357,-6.3213,-6.3213,-6.3053,-6.2976,-6.2976,-6.2976,-6.2868,-6.2628,-6.3758,-6.4639,-6.5416,-6.7545,-6.8117,-6.7302,-6.5961,-6.535,-6.5292,-6.3838,-6.253,-6.1484,-6.131,-6.0023,-5.8092,-5.6757,-5.4721,-5.2354,-5.0094,-4.9012,-4.8441,-4.741,-4.6813,-4.6497,-4.6497,-4.6242,-4.593,-4.5666,-4.555,-4.5409,-4.5093,-4.4918,-4.4659,-4.3523,-4.3105,-4.2684,-4.153,-4.042,-3.9329,-3.823,-3.641,-3.4647,-3.3319,-3.2444,-3.1904,-3.1904,-3.1904,-3.1772,-3.1454,-3.1323,-3.1155,-3.069,-3.0577,-2.9993,-2.8644,-2.8472,-2.7895,-2.6598,-2.5464,-2.4663,-2.4306,-2.3334,-2.2699,-2.2532,-2.2532,-2.241,-2.2046,-2.2325,-2.1819,-2.0579,-2.0287,-1.9047,-1.6922,-1.6575,-1.5686,-6.2016,-6.6109,-6.8661,-7.3743,-7.346,-7.2067,-7.2582,-7.1651,-7.0652,-7.0563,-7.0563,-7.0563,-7.0522,-7.0466,-7.0333,-7.025,-7.0048,-6.9804,-6.958,-7.056,-7.0769,-6.9375,-7.0329,0.0,0.0,0.0,0.0,0.0,0.0,-6.4275,-6.4275,-6.3449,-6.2976,-6.2976,-6.2976,-6.2976,-6.2922,-6.2891,-6.3499,-6.4693,-6.5651,-6.7019,-6.8608,-6.7299,-6.6749,-6.6633,-6.4216,-6.3024,-6.2733,-6.1687,-6.0994,-6.0478,-5.9202,-5.7252,-5.4941,-5.3519,-5.1071,-4.8551,-4.833,-4.7634,-4.6757,-4.6757,-4.6611,-4.6325,-4.6325,-4.5897,-4.5492,-4.5433,-4.5176,-4.4859,-4.46,-4.3784,-4.2901,-4.2684,-4.2419,-4.1792,-4.0042,-3.7762,-3.5539,-3.3714,-3.2533,-3.1904,-3.1904,-3.1904,-3.1828,-3.1772,-3.151,-3.1267,-3.1155,-3.0802,-3.0408,-3.0125,-2.9804,-2.9159,-2.7953,-2.7646,-2.6581,-2.444,-2.4083,-2.3574,-2.2592,-2.2532,-2.2532,-2.2471,-2.1959,-2.1377,-2.0579,-1.9999,-1.9165,-1.7993,-1.7075,-1.6421,-5.9115,-6.4298,-6.8613,-7.0896,-7.2201,-7.2833,-7.24,-7.1689,-7.1297,-7.1693,-7.1133,-7.0563,-7.0563,-7.1151,-7.1636,-7.1476,-7.1992,-7.2353,-7.2157,-7.262,-7.2618,-7.1835,-7.2261,-7.2038,-7.0559,0.0,0.0,0.0,0.0,-6.545,-6.5649,-6.4465,-6.3554,-6.303,-6.2976,-6.2976,-6.2976,-6.2868,-6.3392,-6.4535,-6.5556,-6.6738,-6.8183,-6.8216,-6.7833,-6.6982,-6.5001,-6.3809,-6.3053,-6.1775,-6.1252,-6.1106,-5.977,-5.8193,-5.6471,-5.4521,-5.2332,-5.0225,-4.9638,-4.8689,-4.7746,-4.7746,-4.7266,-4.6611,-4.6497,-4.607,-4.5641,-4.555,-4.5234,-4.4918,-4.4918,-4.4424,-4.3986,-4.3986,-4.3556,-4.2605,-4.0507,-3.8702,-3.6855,-3.4742,-3.3966,-3.3609,-3.3609,-3.3087,-3.2485,-3.1939,-3.1717,-3.151,-3.1323,-3.1099,-3.0783,-3.0521,-3.0332,-2.9917,-2.9159,-2.8529,-2.7646,-2.6389,-2.5684,-2.4753,-2.3514,-2.3454,-2.3454,-2.3454,-2.2243,-2.1277,-2.0579,-1.9939,-1.9262,-1.8435,-1.7979,-1.7586,-5.6796,-6.2694,-6.872,-6.9434,-7.1444,-7.3161,-7.2568,-7.1966,-7.1636,-7.2272,-7.1166,-7.0194,-7.0496,-7.1569,-7.2432,-7.2563,-7.38,-7.4681,-7.4515,-7.4601,-7.4485,-7.4096,-7.4177,-7.363,-7.2149,-7.1264,-7.0763,-7.0763,0.0,0.0,-6.7382,-6.5782,-6.4409,-6.3373,-6.329,-6.3213,-6.2976,-6.2976,-6.3376,-6.423,-6.578,-6.6739,-6.7265,-6.8588,-6.8642,-6.7603,-6.6258,-6.4857,-6.3518,-6.2181,-6.1484,-6.1135,-6.0089,-5.8981,-5.7678,-5.5453,-5.3647,-5.2154,-5.0965,-4.9825,-4.8908,-4.8908,-4.8165,-4.721,-4.6984,-4.6471,-4.593,-4.5781,-4.5409,-4.5093,-4.5035,-4.5035,-4.5035,-4.5035,-4.4342,-4.3059,-4.0929,-3.9589,-3.8165,-3.5997,-3.5328,-3.5169,-3.5169,-3.4404,-3.3459,-3.2341,-3.1994,-3.1772,-3.1454,-3.1323,-3.1155,-3.0746,-3.0633,-3.0464,-3.0087,-2.9235,-2.8529,-2.8184,-2.7257,-2.607,-2.4738,-2.4975,-2.4975,-2.4738,-2.3029,-2.1871,-2.1355,-2.049,-1.9688,-1.899,-1.899,-1.8753,-6.5618,-6.8471,-7.0995,-7.3885,-7.2721,-7.1556,-7.4123,-7.2605,-7.0719,-7.0731,-6.9624,-6.9021,-7.0328,-7.0664,-7.1234,-7.2608,-7.4049,-7.4901,-7.4681,-7.5727,-7.5945,-7.4241,-7.5207,-7.5298,-7.3617,-7.3392,-7.3346,-7.3346,-7.102,-6.9643,-6.9676,-6.7307,-6.549,-6.4429,-6.4378,-6.3943,-6.2946,-6.2976,-6.3006,-6.3185,-6.5391,-6.6555,-6.6646,-6.7893,-6.8959,-6.9629,-6.797,-6.6379,-6.4856,-6.3576,-6.2298,-6.1223,-6.1106,-6.0235,-5.8981,-5.7654,-5.5721,-5.3465,-5.2182,-5.0986,-5.0039,-5.0039,-4.9315,-4.8441,-4.8386,-4.7466,-4.6382,-4.6382,-4.607,-4.5757,-4.5467,-4.5433,-4.5433,-4.5433,-4.5102,-4.4211,-4.2084,-4.0706,-3.9308,-3.7177,-3.5927,-3.5169,-3.5169,-3.5064,-3.4639,-3.3437,-3.2485,-3.1828,-3.1828,-3.151,-3.1267,-3.1211,-3.1027,-3.0765,-3.0464,-3.0351,-2.9709,-2.8299,-2.8068,-2.7431,-2.6129,-2.7181,-2.7239,-2.607,-2.4619,-2.3824,-2.3759,-2.2296,-2.1048,-2.0072,-2.0072,-1.9557,-5.6511,-6.0721,-6.4859,-6.518,-6.9011,-7.2606,-7.2385,-7.2086,-7.1885,-7.1943,-7.1543,-7.0999,-7.063,-7.2038,0.0,-7.4049,-7.6205,-7.7703,-7.7579,-7.7932,-7.7881,-7.7209,-7.7313,-7.6878,-7.5364,-7.5059,-7.4965,-7.4965,-7.3257,-7.1938,-7.1284,-6.9467,-6.7531,-6.5521,-6.549,-6.4989,-6.3943,-6.3943,-6.3607,-6.2976,-6.475,-6.556,-6.562,-6.7535,-6.8665,-6.9049,-6.9012,-6.815,-6.6708,-6.4479,-6.2642,-6.1252,-6.1252,-6.0409,-5.9243,-5.8748,-5.7031,-5.4796,-5.4308,-5.2848,-5.1194,-5.1194,-5.0409,-4.9531,-4.9531,-4.8553,-4.7414,-4.7414,-4.6649,-4.5872,-4.5757,-4.5608,-4.5492,-4.5492,-4.5351,-4.4621,-4.2298,-4.1428,-4.0427,-3.8314,-3.7475,-3.7145,-3.7145,-3.6655,-3.6084,-3.5613,-3.3966,-3.2595,-3.1939,-3.1772,-3.153,-3.1323,-3.1231,-3.0951,-3.054,-3.0521,-3.0182,-2.9273,-2.9216,-2.9102,-2.8834,-2.8529,-2.8126,-2.7431,-2.5219,-2.4082,-2.4082,-2.2551,-2.1575,-2.1148,-2.0505,-2.0007,-5.1873,-5.5819,-6.0292,-6.0114,-6.5547,-7.0719,-6.9988,-7.0511,-7.135,-7.2059,-7.1879,-7.1375,-7.0664,-7.2641,0.0,-7.4921,-7.7547,-7.9526,-7.9526,-7.9341,-7.9202,-7.9108,-7.8778,-7.8094,-7.6925,-7.6684,-7.654,-7.6459,-7.5096,-7.3828,-7.2624,-7.1229,-6.927,-6.6627,-6.6547,-6.6031,-6.5039,-6.4654,-6.4172,-6.3449,-6.4456,-6.4921,-6.498,-6.6637,-6.7802,-6.8605,-6.9227,-6.9224,-6.8573,-6.6033,-6.3834,-6.1944,-6.1453,-6.067,-5.9799,-5.9446,-5.7963,-5.6102,-5.5724,-5.4173,-5.2427,-5.2427,-5.1635,-5.0672,-5.0672,-4.9691,-4.8555,-4.8252,-4.747,-4.6592,-4.616,-4.6421,-4.6681,-4.6307,-4.6192,-4.5464,-4.2935,-4.2163,-4.1301,-3.939,-3.8729,-3.8485,-3.8485,-3.7905,-3.7267,-3.6959,-3.5561,-3.4051,-3.2999,-3.2835,-3.2595,-3.2004,-3.1948,-3.1636,-3.0802,-3.0746,-3.0614,-3.0276,-3.02,-3.0332,-3.0633,-2.9652,-2.9063,-2.8891,-2.6484,-2.5136,-2.5083,-2.3607,-2.2665,-2.2276,-2.1542,-2.1016,-5.6738,-5.7487,-5.9472,-6.2551,-6.3407,-6.4314,-6.755,-6.7853,-6.8101,-7.0162,-6.9457,-6.8887,-7.0295,-7.1837,0.0,-7.4787,-7.7547,-7.9526,-7.9526,-7.9526,-7.9434,-7.9155,-7.9108,-7.892,-7.8362,-7.8313,-7.8216,-7.794,-7.6624,-7.5162,-7.3702,-7.2301,-7.0306,-6.7696,-6.7631,-6.7118,-6.6112,-6.5039,-6.4501,-6.4532,-6.4776,-6.4921,-6.4921,-6.4951,-6.6446,-6.8959,-6.8576,-6.917,-7.0269,-6.8662,-6.6268,-6.3571,-6.1859,-6.1252,-6.1048,-5.9766,-5.8516,-5.7376,-5.6044,-5.4706,-5.365,-5.365,-5.2829,-5.1919,-5.1919,-5.1038,-4.9932,-4.8908,-4.8551,-4.822,-4.6813,-4.8083,-4.9423,-4.8252,-4.7809,-4.6912,-4.4454,-4.3031,-4.1814,-4.0469,-3.9292,-3.8485,-3.8485,-3.8485,-3.8134,-3.7113,-3.6908,-3.6494,-3.5275,-3.5169,-3.4693,-3.3545,-3.3437,-3.284,-3.1434,-3.1323,-3.1175,-3.0934,-3.0878,-3.0878,-3.0878,-3.0653,-3.0484,-3.0484,-2.8662,-2.7643,-2.7364,-2.6079,-2.4754,-2.3522,-2.3474,-2.2877,-5.305,-5.5098,-5.7843,-6.1006,-6.3105,-6.4953,-6.6959,-6.8112,-6.9109,-7.0323,-6.9423,-6.8853,-7.0295,-7.3446,0.0,0.0,-7.8184,-7.9526,-7.9526,-7.9526,-7.9446,-7.9387,-7.9202,-7.9061,-7.8873,-7.8697,-7.8506,-7.8216,-7.782,-7.6834,-7.5195,-7.4702,-7.3195,-7.0417,-7.0274,-6.9296,-6.7165,-6.6802,-6.5951,-6.4532,-6.46,-6.4656,-6.4634,-6.4855,-6.5399,-6.6297,-6.8035,-6.9081,-6.935,-6.8605,-6.7271,-6.5321,-6.266,-6.1476,-6.1193,-6.0758,-5.9799,-5.8545,-5.7323,-5.6095,-5.4822,-5.3941,-5.3375,-5.3078,-5.3078,-5.2247,-5.1273,-5.0961,-5.0278,-4.9558,-4.9072,-4.9504,-4.9905,-4.9315,-4.85,-4.7442,-4.5729,-4.4482,-4.333,-4.2183,-4.0911,-3.994,-3.994,-3.9149,-3.8385,-3.8057,-3.7421,-3.6804,-3.6419,-3.5666,-3.5064,-3.4693,-3.3922,-3.3188,-3.252,-3.1747,-3.1175,-3.0934,-3.1326,-3.1438,-3.1175,-3.1119,-3.0951,-3.0765,-2.9088,-2.814,-2.8089,-2.6322,-2.5227,-2.483,-2.3906,-2.3329,-5.2991,-5.5355,-5.794,-6.0781,-6.1728,-6.2649,-6.524,-6.531,-6.5285,-6.6925,-6.654,-6.6708,-6.9256,-7.3815,-7.6999,-7.6429,-7.8151,-7.9526,-7.9526,-7.9526,-7.9526,-7.9526,-7.9387,-7.9202,-7.9108,-7.8934,-7.8745,-7.8506,-7.8395,-7.7671,-7.6028,-7.5867,-7.4471,-7.1623,-7.1524,-7.0454,-6.8245,-6.7848,-6.6992,-6.5706,-6.5706,-6.5309,-6.4532,-6.511,-6.5411,-6.567,-6.8379,-6.9514,-6.9601,-6.9879,-6.8898,-6.6943,-6.4525,-6.2746,-6.142,-6.1308,-6.0089,-5.8516,-5.776,-5.6386,-5.4706,-5.3912,-5.365,-5.365,-5.365,-5.3128,-5.2449,-5.1993,-5.1377,-5.0934,-5.1349,-5.1476,-5.1349,-5.0697,-5.0011,-4.902,-4.7172,-4.589,-4.4649,-4.3002,-4.1668,-4.0643,-4.0069,-3.9226,-3.8609,-3.8509,-3.7956,-3.7499,-3.7499,-3.6889,-3.6425,-3.6425,-3.541,-3.4319,-3.3296,-3.2554,-3.1858,-3.1326,-3.2009,-3.2175,-3.1565,-3.1378,-3.1231,-3.1083,-2.9405,-2.8499,-2.8397,-2.6545,-2.5604,-2.5435,-2.464,-2.4193,-5.5579,-5.748,-5.9139,-6.1515,-5.9948,-5.8875,-6.2916,-6.0673,-5.8428,-6.111,-6.1646,-6.292,-6.7177,-7.2641,-7.6262,-7.5457,-7.7614,-7.9392,-7.9492,0.0,-7.9526,-7.9526,-7.9526,-7.9434,-7.9155,-7.9155,-7.9061,-7.8792,-7.8506,-7.78,-7.643,-7.6175,-7.4716,-7.1952,-7.1755,-7.092,-6.9364,-6.8277,-6.7756,-6.7756,-6.771,-6.6659,-6.4806,-6.5688,-6.6226,-6.6572,-6.9096,-7.0343,-7.0644,-7.2026,-7.0978,-6.8456,-6.7029,-6.4641,-6.1986,-6.1449,-5.9795,-5.7783,-5.7609,-5.5978,-5.3883,-5.3708,-5.365,-5.365,-5.365,-5.365,-5.3424,-5.2297,-5.1993,-5.2247,-5.3375,-5.365,-5.3404,-5.2275,-5.1942,-5.1246,-4.8828,-4.7467,-4.6019,-4.3581,-4.2107,-4.0826,-3.9553,-3.9056,-3.8833,-3.8535,-3.8485,-3.8485,-3.8485,-3.8485,-3.8485,-3.8485,-3.7601,-3.6136,-3.3869,-3.3707,-3.3263,-3.2216,-3.2936,-3.2991,-3.205,-3.1565,-3.1323,-3.1323,-2.9669,-2.8673,-2.8448,-2.6843,-2.5826,-2.551,-2.5482,-2.5322,-5.4296,-5.5944,-5.7856,-6.0635,-6.2736,-6.4288,-6.4688,-6.2686,-6.0641,-6.0238,-6.0206,-6.0808,-6.2954,-6.7244,-7.2206,-7.7581,-7.8084,-7.8139,-7.9358,-7.9526,-7.9526,-7.9526,-7.9526,-7.948,-7.9434,-7.94,-7.9295,-7.9061,-7.8967,-7.8706,-7.8152,-7.7866,-7.6929,-7.5147,-7.3841,-7.2466,-7.1031,-6.9582,-6.8859,-6.8815,-6.8031,-6.7399,-6.6897,-6.6354,-6.6122,-6.6251,-6.7898,-6.926,-7.0471,-7.0861,-7.07,-6.9932,-6.7434,-6.5459,-6.3692,-6.2247,-6.1097,-6.0089,-5.8167,-5.7143,-5.6299,-5.429,-5.365,-5.365,-5.365,-5.365,-5.3601,-5.3326,-5.3227,-5.3276,-5.3572,-5.365,-5.3572,-5.3276,-5.2578,-5.1737,-5.109,-5.0085,-4.9099,-4.8485,-4.5891,-4.3758,-4.3397,-4.1055,-3.9082,-3.8833,-3.8784,-3.8734,-3.8485,-3.8485,-3.8485,-3.8485,-3.8309,-3.7577,-3.624,-3.6107,-3.5613,-3.4501,-3.3836,-3.3329,-3.31,-3.221,-3.1772,-3.1772,-2.9952,-2.905,-2.8979,-2.6987,-2.5993,-2.5919,-2.5604,-2.5435,-5.5964,-5.8239,-5.9818,-5.9239,-6.0908,-6.2308,-6.076,-5.9269,-5.7917,-5.6851,-5.6651,-5.7892,-6.2015,-6.3088,-6.6205,-7.5065,0.0,-7.6698,-7.8206,-7.9056,-7.9526,0.0,0.0,-7.9526,-7.9526,-7.9526,-7.9434,-7.9295,-7.9155,-7.9061,-7.892,-7.8649,-7.7829,-7.6265,-7.5298,-7.3788,-7.1557,-7.069,-7.0263,-7.0263,-6.8975,-6.8122,-6.7631,-6.7571,-6.7259,-6.6898,0.0,-7.0171,-7.1139,-7.1847,-7.1957,-7.1504,-6.9868,-6.769,-6.5305,-6.4272,-6.2944,-6.1406,-5.9309,-5.7743,-5.6393,-5.5018,-5.4145,-5.365,-5.365,-5.365,-5.365,-5.365,-5.365,-5.365,-5.365,-5.365,-5.365,-5.365,-5.3177,-5.2578,-5.1993,-5.1429,-5.0664,-4.9618,-4.7344,-4.5264,-4.4183,-4.1899,-3.9916,-3.9181,-3.8958,-3.8908,-3.8859,-3.8659,-3.8559,-3.8684,-3.8559,-3.8234,-3.7702,-3.7216,-3.6649,-3.6032,-3.5403,-3.4799,-3.4244,-3.3718,-3.3414,-3.3414,-3.1474,-3.0304,-2.9941,-2.7889,-2.6577,-2.6039,-2.5826,-2.5659,-5.8175,-6.1152,-6.2567,-5.8815,-5.8419,-5.8283,-5.6133,-5.4819,-5.3812,-5.2972,-5.2958,-5.4875,-6.0808,-5.9635,-6.0507,-6.9088,-7.2516,-7.4653,0.0,0.0,-7.9526,-7.9526,0.0,-7.9526,-7.9526,-7.9526,-7.9526,-7.9526,-7.9295,-7.9155,-7.9155,-7.8934,-7.8133,-7.6656,-7.6378,-7.4949,-7.2261,-7.2261,-7.203,-7.1524,-7.0197,-6.8967,-6.7939,-6.8815,-6.8694,-6.8004,0.0,-7.1403,-7.1945,-7.3233,-7.3396,-7.2897,-7.2618,-7.0278,-6.6999,-6.6468,-6.4649,-6.2263,-6.0736,-5.8508,-5.6153,-5.5724,-5.4872,-5.3912,-5.3708,-5.365,-5.365,-5.365,-5.365,-5.365,-5.365,-5.365,-5.365,-5.365,-5.365,-5.3404,-5.2376,-5.2174,-5.1632,-4.9757,-4.8216,-4.6515,-4.4347,-4.2763,-4.1275,-3.982,-3.9379,-3.923,-3.928,-3.8859,-3.8659,-3.8858,-3.8684,-3.8559,-3.8485,-3.7652,-3.7165,-3.7165,-3.7165,-3.6678,-3.5486,-3.5455,-3.5328,-3.5169,-3.3149,-3.176,-3.1138,-2.9032,-2.7532,-2.6528,-2.6528,-2.6297,-5.7195,-5.9651,-6.2241,-6.2854,-6.1745,-6.0298,-5.9585,-5.6643,-5.3562,-5.1915,-5.237,-5.2998,-5.2797,-5.635,-5.94,-5.9669,-6.5166,0.0,-7.4787,-7.7782,-7.9526,-7.9526,-7.9526,0.0,-7.9526,-7.9526,-7.9526,-7.9526,-7.948,-7.9434,-7.9434,-7.9202,-7.8914,-7.8714,-7.7062,-7.5953,-7.5524,-7.5491,-7.4177,-7.1524,-7.1327,-7.0416,-6.8948,-6.9156,-6.9112,-6.898,0.0,0.0,-7.1634,-7.2074,-7.2868,-7.3779,-7.2879,-7.1353,-6.948,-6.7134,-6.5258,-6.3651,-6.2336,-6.0682,-5.8801,-5.6408,-5.5462,-5.5084,-5.3999,-5.365,-5.365,-5.365,-5.365,-5.365,-5.365,-5.365,-5.365,-5.365,-5.365,-5.3601,-5.3424,-5.3375,-5.3268,-5.2917,-5.1216,-4.9285,-4.7857,-4.579,-4.3578,-4.127,-4.0902,-4.0471,-3.9428,-3.9181,-3.9082,-3.8908,-3.8858,-3.8734,-3.8509,-3.8335,-3.8258,-3.8258,-3.8258,-3.778,-3.6701,-3.6649,-3.6211,-3.5222,-3.3234,-3.2185,-3.203,-3.0072,-2.9012,-2.8858,-2.8614,-2.8077,-5.8092,-6.0639,-6.303,-6.2921,-6.2106,-6.0947,-5.935,-5.7367,-5.5179,-5.2907,-5.213,-5.2327,-5.4003,-5.4607,-5.645,-6.1378,-6.4328,-6.7848,0.0,0.0,-7.8541,-7.9425,-7.9526,-7.9526,0.0,-7.9526,-7.9526,-7.9526,-7.9526,-7.9526,-7.9526,-7.9387,-7.9248,-7.9108,-7.8241,-7.7687,-7.7593,-7.6642,-7.5397,-7.386,-7.2281,-7.1162,-7.0427,-6.9561,-6.92,0.0,0.0,0.0,-7.1545,-7.1665,-7.264,-7.4052,-7.4236,-7.3159,-7.1395,-6.9926,-6.7796,-6.5285,-6.3743,-6.2397,-6.0839,-5.7829,-5.6285,-5.5346,-5.4057,-5.365,-5.365,-5.365,-5.365,-5.365,-5.365,-5.365,-5.365,-5.365,-5.365,-5.365,-5.365,-5.365,-5.365,-5.365,-5.2264,-5.0515,-4.8737,-4.6895,-4.4918,-4.2489,-4.2051,-4.1772,-4.1302,-4.0993,-4.0685,-4.0207,-4.0013,-3.9599,-3.8759,-3.8809,-3.8908,-3.8908,-3.8784,-3.8484,-3.798,-3.7855,-3.7526,-3.6991,-3.5523,-3.4283,-3.3207,-3.1682,-3.0372,-2.9367,-2.9213,-2.8947,-6.1549,0.0,-6.6208,-6.5378,-6.4619,-6.3403,0.0,-5.9232,-5.734,-5.4451,-5.2588,-5.2429,-5.5433,-5.3425,-5.4035,-6.2391,-6.3027,-6.4596,-7.0973,-7.3714,0.0,-7.8654,-7.8989,-7.9123,-7.9459,-7.9526,-7.9526,-7.9526,-7.9526,-7.9526,-7.9526,-7.9526,-7.94,-7.9202,-7.9202,-7.9108,-7.8839,-7.746,-7.6482,-7.5882,-7.3268,-7.1886,-7.1491,-6.9934,-6.92,0.0,0.0,0.0,-7.0986,-7.1393,-7.2266,-7.3596,-7.5204,-7.4571,-7.2763,-7.2647,-7.0427,-6.7237,-6.5701,-6.4373,-6.2853,-6.0249,-5.7941,-5.5826,-5.4145,-5.365,-5.365,-5.365,-5.365,-5.365,-5.365,-5.365,-5.365,-5.365,-5.365,-5.365,-5.365,-5.365,-5.365,-5.365,-5.2864,-5.1433,-4.9124,-4.7873,-4.6362,-4.3685,-4.3149,-4.3014,-4.2968,-4.2595,-4.2136,-4.1585,-4.1161,-4.0471,-3.9403,-3.9795,-4.0013,-3.994,-3.955,-3.9329,-3.923,-3.8809,-3.8535,-3.8485,-3.7702,-3.647,-3.4672,-3.3329,-3.1713,-3.0002,-3.0002,-2.9871,0.0,-7.1709,-7.3298,-7.467,-7.2793,-7.0154,-6.8127,-6.4028,0.0,-5.5706,-5.4296,-5.3454,-5.2311,-5.2543,-5.3658,-5.5992,-5.7184,-6.0373,0.0,-6.8887,0.0,0.0,-7.7334,0.0,-7.9358,-7.9526,-7.9526,-7.9526,-7.9526,-7.9526,-7.9526,-7.9526,-7.9526,-7.948,-7.948,-7.9341,-7.9108,-7.874,-7.7758,-7.6151,-7.4367,-7.2795,-7.1491,-6.9934,-6.92,0.0,0.0,0.0,0.0,-7.092,-7.1611,-7.1993,-7.4734,-7.487,-7.3617,-7.3985,-7.2217,-6.9628,-6.8524,-6.6982,-6.5328,-6.4082,-6.1045,-5.7272,-5.4506,-5.365,-5.365,-5.365,-5.365,-5.365,-5.365,-5.365,-5.365,-5.365,-5.365,-5.365,-5.365,-5.365,-5.365,-5.365,-5.3562,-5.267,-5.0106,-4.9612,-4.8369,-4.4904,-4.4362,-4.4026,-4.3059,-4.2923,-4.2786,-4.2512,-4.1678,-4.1045,-4.0711,-4.1678,-4.2255,-4.2017,-4.1182,-4.0567,-4.0352,-3.9379,-3.8734,-3.8485,-3.8385,-3.7849,-3.6706,-3.4667,-3.3089,-3.1906,-3.1906,-3.1419,-7.3298,-7.5428,-7.6584,-7.6115,-7.5104,-7.322,-6.9327,-6.5998,-6.243,-5.779,-5.4749,-5.3043,-5.3333,-5.2748,-5.3964,-5.9221,-6.0213,-6.2336,-6.7997,0.0,0.0,-7.4361,0.0,0.0,0.0,-7.9526,-7.9526,-7.9526,-7.9526,-7.9526,-7.9526,-7.9526,-7.9526,-7.9526,-7.9526,-7.9387,-7.9108,-7.9014,-7.8512,-7.752,-7.6005,-7.4414,-7.2795,-7.1348,-7.0131,0.0,0.0,0.0,0.0,-6.9868,-7.0657,-7.1656,-7.2742,-7.388,-7.4917,-7.4191,-7.2817,-7.109,-6.9852,-6.7865,-6.5885,-6.5309,-6.3492,-6.1026,-5.8158,-5.7258,-5.6993,-5.611,-5.5821,-5.5684,-5.5142,-5.486,-5.4605,-5.404,-5.3748,-5.365,-5.365,-5.365,-5.365,-5.365,-5.365,-5.3097,-5.1274,-5.0314,-4.9045,-4.6896,-4.5874,-4.52,-4.4813,-4.4741,-4.4524,-4.3849,-4.3464,-4.3239,-4.3149,-4.2923,-4.2786,-4.2668,-4.2163,-4.1865,-4.1772,-4.0663,-4.0062,-3.994,-3.9279,-3.8686,-3.8169,-3.6057,-3.4024,-3.2074,-3.2074,-3.1882,-7.7848,-7.9473,-8.0484,-7.9292,-7.8642,-7.6962,-7.1964,-6.8629,-6.5114,-5.9885,-5.585,-5.355,-5.4389,-5.3362,-5.4553,-6.1146,-6.2514,-6.4524,0.0,0.0,0.0,-7.4303,-7.6943,-7.8788,0.0,0.0,-7.9526,-7.9526,-7.9526,-7.9526,-7.9526,-7.9526,-7.9526,-7.9526,-7.9526,-7.9434,-7.9248,-7.9155,-7.892,-7.8554,-7.7034,-7.5439,-7.3755,-7.2306,-7.0779,0.0,0.0,0.0,0.0,-6.92,-6.9835,-7.0822,-7.136,-7.2742,-7.4439,-7.4373,-7.3621,-7.2461,-7.1488,-6.9704,-6.763,-6.6642,-6.536,-6.38,-6.1531,-6.0985,-6.0733,-5.8458,-5.7503,-5.6986,-5.6364,-5.5851,-5.5328,-5.4635,-5.4136,-5.3748,-5.3699,-5.365,-5.365,-5.365,-5.365,-5.3242,-5.1961,-5.0954,-4.982,-4.8089,-4.7043,-4.6359,-4.5923,-4.5864,-4.5654,-4.5014,-4.4668,-4.4624,-4.4928,-4.429,-4.3865,-4.3865,-4.3419,-4.3149,-4.3059,-4.1958,-4.135,-4.1229,-4.0542,-3.9933,-3.9337,-3.7261,-3.5158,-3.3143,-3.2429,-3.2074,-8.2794,-8.4347,-8.5539,-8.5539,-8.4347,-8.1964,-7.7089,-7.2359,-6.7423,-6.1835,-5.7839,-5.5294,-5.4914,-5.4338,-5.5494,-6.0291,-6.2596,-6.6027,-7.2551,-7.4048,-7.5139,0.0,0.0,-7.72,-7.72,-7.862,-7.9492,-7.9526,-7.9526,0.0,-7.9526,-7.9526,-7.9526,-7.9526,-7.9526,-7.9526,-7.9526,-7.9248,-7.9108,-7.9108,-7.7409,-7.5716,-7.403,-7.2608,-7.0945,-6.92,0.0,0.0,0.0,-6.92,-6.92,-6.9331,-7.0888,-7.1524,-7.1886,-7.4702,-7.4866,-7.3649,-7.3649,-7.2696,-7.1081,-6.8516,-6.662,-6.516,-6.4114,-6.4534,-6.4507,-6.0473,-5.8307,-5.7236,-5.7205,-5.6499,-5.576,-5.5467,-5.473,-5.402,-5.3748,-5.3699,-5.3699,-5.365,-5.365,-5.3242,-5.1914,-5.1681,-5.0838,-4.8234,-4.7827,-4.7333,-4.6039,-4.5864,-4.5864,-4.5864,-4.5057,-4.4885,-4.578,-4.5864,-4.5864,-4.5864,-4.5014,-4.4406,-4.4158,-4.3149,-4.2485,-4.2248,-4.2175,-4.1638,-4.0449,-3.8216,-3.6595,-3.5545,-3.321,-3.2115,-8.4419,-8.5177,-8.5539,-8.5539,-8.5177,-8.33,-7.7342,-7.3226,-6.8831,-6.2378,-5.8473,-5.6413,-5.7165,-5.7106,-5.8541,-6.3271,-6.51,-6.7193,-7.0777,-7.391,-7.5755,0.0,0.0,-7.9393,0.0,-7.9744,-8.0104,-7.9538,-7.9526,-7.9526,-7.9526,-7.9526,-7.9526,-7.9526,-7.9526,-7.9526,-7.9526,-7.9434,-7.9295,-7.9108,-7.8628,-7.7475,-7.5783,-7.4187,-7.2597,-7.1055,-6.9748,0.0,0.0,-6.92,-6.92,-6.9233,-6.9693,-7.0559,-7.1623,-7.2511,-7.2544,-7.2182,-7.2182,-7.1151,-6.9747,-6.899,-6.84,-6.7997,-6.7686,-6.7103,-6.6104,-6.3876,-6.2235,-6.0866,-5.9894,-5.8803,-5.7808,-5.7074,-5.6378,-5.5821,-5.5252,-5.486,-5.448,-5.3991,-5.3748,-5.3533,-5.3155,-5.234,-5.1129,-4.9425,-4.8408,-4.7333,-4.6039,-4.5864,-4.5864,-4.5864,-4.5654,-4.5569,-4.5864,-4.5864,-4.5864,-4.5864,-4.5612,-4.5442,-4.5357,-4.4422,-4.3893,-4.3821,-4.3077,-4.2054,-4.0714,-3.9243,-3.7787,-3.6345,-3.4944,-3.3971,-8.5286,-8.5539,-8.5539,-8.5539,-8.5539,-8.3842,-7.745,-7.3587,-6.9433,-6.2641,-5.9216,-5.7672,-5.8237,-5.9325,-6.1704,-6.6399,-6.8996,-7.1359,-7.416,-7.7322,-7.898,-7.8013,-7.9828,0.0,0.0,0.0,-8.0345,-7.9538,-7.9526,-7.9526,-7.9526,-7.9526,-7.9526,-7.9526,-7.9526,-7.9526,-7.9526,-7.9526,-7.9434,-7.9295,-7.9295,-7.8387,-7.669,-7.5688,-7.4013,-7.1881,-7.078,0.0,0.0,-6.92,-6.92,-6.92,-6.92,-6.9803,-7.0657,-7.1327,-7.1524,-7.1524,-7.1524,-7.0888,-7.0033,-6.9397,-6.92,-6.92,-6.92,-6.8191,-6.6745,-6.5331,-6.3884,-6.2477,-6.1029,-6.0101,-5.9323,-5.8315,-5.7563,-5.6955,-5.6454,-5.6094,-5.5622,-5.4748,-5.4444,-5.4174,-5.3718,-5.3009,-5.2001,-5.0721,-4.9442,-4.8118,-4.6781,-4.6213,-4.5864,-4.5864,-4.5864,-4.5864,-4.5864,-4.5864,-4.5864,-4.5864,-4.5864,-4.5864,-4.5864,-4.5357,-4.5057,-4.5057,-4.4465,-4.3203,-4.1359,-4.0235,-3.8752,-3.6857,-3.571,-3.499,-8.5539,-8.5539,-8.5539,-8.5539,-8.5539,-8.3842,-7.745,-7.3695,-6.9649,-6.2857,-6.0242,-5.9099,-5.8854,-6.1379,-6.4997,-6.9565,-7.3566,-7.7218,-8.0469,-8.2587,-8.3399,0.0,0.0,0.0,0.0,0.0,0.0,0.0,-7.9538,-7.9526,-7.9526,-7.9526,-7.9572,-7.963,-7.9572,-7.9526,-7.9526,-7.9526,-7.9526,-7.9526,-7.9526,-7.873,-7.7197,-7.7064,-7.5292,-7.2355,-7.2046,0.0,0.0,-6.9266,-6.92,-6.92,-6.92,-6.92,-6.9364,-7.0789,-7.1327,-7.1327,-7.1327,-7.1327,-7.1097,-6.966,-6.92,-6.92,-6.92,-6.8191,-6.6745,-6.5331,-6.3884,-6.2477,-6.1029,-6.0629,-6.0366,-5.9323,-5.843,-5.7723,-5.7422,-5.7292,-5.6942,-5.5806,-5.556,-5.5188,-5.4126,-5.3913,-5.3474,-5.2139,-5.0761,-4.9431,-4.8134,-4.6751,-4.5906,-4.599,-4.599,-4.5977,-4.5864,-4.5864,-4.5864,-4.5864,-4.5864,-4.5864,-4.5864,-4.5864,-4.5864,-4.5864,-4.5864,-4.4643,-4.2171,-4.1224,-3.9556,-3.7202,-3.6019,-3.5566,-8.5539,-8.5539,-8.5539,-8.5539,-8.5539,-8.3842,-7.745,-7.4526,-7.1236,-6.4434,-6.2064,-6.1436,-6.2271,-6.5333,-6.8839,0.0,-7.6632,-8.0032,-8.13,-8.2796,0.0,0.0,0.0,0.0,0.0,0.0,0.0,0.0,0.0,0.0,-7.9526,-7.9526,-7.9778,-8.0389,-7.9824,-7.9526,-7.9526,-7.9526,-7.9526,-7.9526,-7.9526,-7.9312,-7.8898,-7.7589,-7.6618,-7.5748,-7.3085,0.0,0.0,-6.9781,-6.92,-6.92,-6.92,-6.92,-6.9233,-6.9561,-6.9693,-6.9693,-6.9693,-6.9693,-6.9671,-6.9299,-6.92,-6.92,-6.92,-6.8191,-6.6745,-6.5331,-6.3884,-6.2477,-6.1029,-6.0629,-6.0591,-6.0327,-5.9983,-5.9515,-5.8966,-5.8513,-5.7978,-5.7248,-5.6735,-5.6392,-5.6123,-5.6003,-5.5471,-5.4178,-5.2261,-5.0493,-4.9182,-4.7217,-4.6145,-4.6875,-4.6956,-4.6641,-4.5948,-4.5864,-4.5864,-4.5864,-4.5864,-4.5864,-4.5864,-4.5864,-4.5864,-4.5864,-4.5864,-4.4643,-4.2171,-4.1948,-4.0541,-3.8063,-3.7757,-3.7327,-8.5539,-8.5539,-8.5539,-8.5539,-8.5539,-8.4275,-7.9436,0.0,0.0,-6.849,-6.6788,-6.6102,-6.5119,-6.9047,0.0,-7.4526,-7.8803,-8.2268,0.0,0.0,0.0,0.0,0.0,0.0,0.0,0.0,0.0,0.0,0.0,-7.9869,-8.0684,-8.0727,-8.0727,-8.0659,-8.0291,-7.9914,-7.9526,-7.9526,-7.9526,-7.9526,-7.9526,-7.9526,-7.9492,-7.8584,-7.7756,-7.6818,-7.4282,0.0,-7.187,-7.0087,-6.9407,-6.9407,-6.9244,-6.92,-6.92,-6.92,-6.92,-6.92,-6.92,-6.92,-6.92,-6.92,-6.92,-6.92,-6.92,-6.7731,-6.589,-6.5134,-6.3391,-6.1589,-6.0827,-6.0629,-6.0629,-6.0629,-6.0553,-6.0366,-6.0022,-5.9714,-5.9242,-5.8388,-5.7947,-5.7606,-5.7043,-5.6898,-5.6549,-5.5764,-5.423,-5.2627,-5.1053,-4.8704,-4.732,-4.7737,-4.7807,-4.742,-4.66,-4.6517,-4.6352,-4.5906,-4.5864,-4.5864,-4.5864,-4.5864,-4.5864,-4.5864,-4.5312,-4.4061,-4.2171,-4.156,-4.0222,-3.8309,-3.8309,-3.8098,-8.5466,-8.5539,-8.5539,-8.5539,-8.5539,-8.4708,-8.1567,-7.987,0.0,0.0,-7.2143,-7.1312,-6.864,-7.2901,-7.6945,-7.7198,-8.1278,-8.4816,0.0,0.0,-8.5945,0.0,0.0,0.0,0.0,0.0,0.0,0.0,0.0,-8.0554,-8.1946,-8.2219,-8.1826,-8.0915,-8.1042,-8.0693,-7.9721,-7.9538,-7.9526,-7.9526,-7.9526,-7.9526,-7.9526,-7.9526,-7.8764,-7.731,-7.5416,0.0,-7.2432,-7.0447,-6.9623,-6.958,-6.9331,-6.9244,-6.92,-6.92,-6.92,-6.92,-6.92,-6.92,-6.92,-6.92,-6.92,-6.92,-6.92,-6.7196,-6.4936,-6.4936,-6.2865,-6.0629,-6.0629,-6.0629,-6.0629,-6.0629,-6.0629,-6.0629,-6.0629,-6.0629,-6.0366,-5.9363,-5.9161,-5.8803,-5.7851,-5.768,-5.7594,-5.7359,-5.6027,-5.4507,-5.2956,-5.0871,-4.9299,-4.8743,-4.8674,-4.836,-4.749,-4.745,-4.7169,-4.6364,-4.6323,-4.624,-4.6115,-4.6115,-4.6032,-4.5864,-4.4742,-4.349,-4.2171,-4.0891,-3.9582,-3.8309,-3.8309,-3.8309,-8.5177,-8.5539,-8.5539,-8.5539,-8.5539,-8.4708,-8.1567,-8.07,-7.9545,-7.6078,0.0,-7.5248,-7.4815,-7.7739,-8.0664,-8.2036,0.0,-8.9005,-8.7886,-8.8897,-8.8621,-8.5657,-8.5176,-8.4919,-8.4447,-8.3683,-8.3134,-8.2873,-8.214,-8.1785,-8.2026,-8.2797,-8.2797,-8.1866,-8.2609,-8.2219,-8.052,-7.9869,-7.9526,-7.9526,-7.9526,-7.9526,-7.9526,-7.9526,-7.9379,-7.9011,-7.5973,-7.4504,-7.4059,-7.1145,-6.9761,-6.958,-6.9537,-6.9374,-6.92,-6.92,-6.92,-6.92,-6.92,-6.92,-6.92,-6.92,-6.92,-6.92,-6.92,-6.7196,-6.4936,-6.4936,-6.2865,-6.0629,-6.0629,-6.0629,-6.0629,-6.0629,-6.0629,-6.0629,-6.0629,-6.0629,-6.0591,-6.0476,-6.025,-6.0022,-5.9865,-5.9747,-5.9667,-5.9627,-5.6754,-5.442,-5.4066,-5.3419,-5.2155,-4.998,-4.9745,-4.9342,-4.833,-4.8338,-4.8299,-4.8098,-4.8059,-4.7776,-4.7078,-4.7037,-4.6682,-4.5864,-4.4742,-4.349,-4.2171,-4.0891,-3.9582,-3.8309,-3.8309,-3.8309,-8.3975,-8.4972,-8.5539,-8.5539,-8.5539,-8.5177,-8.3805,-8.348,-8.2831,-8.052,-8.005,0.0,-7.7739,0.0,0.0,0.0,0.0,0.0,-8.673,-8.7236,-8.7065,0.0,-8.5208,0.0,-8.4174,-8.3648,-8.3209,0.0,-8.3138,-8.3432,-8.3432,-8.3825,-8.3861,-8.3468,-8.343,-8.2987,-8.2219,-8.0864,-8.0159,-8.0159,-8.0159,-8.0423,-8.0907,-8.0379,-7.9719,-7.8794,0.0,-7.4389,-7.3485,-7.1167,-7.0048,-6.9761,-6.9666,-6.945,-6.92,-6.92,-6.92,-6.92,-6.92,-6.92,-6.92,-6.92,-6.92,-6.9036,-6.8257,-6.658,-6.4772,-6.395,-6.224,-6.0629,-6.0629,-6.0629,-6.0629,-6.0629,-6.0629,-6.0629,-6.0629,-6.0629,-6.0629,-6.0629,-6.0553,-6.0476,-6.0476,-6.0437,-6.036,-6.0205,-5.8219,-5.6044,-5.4242,-5.317,-5.21,-5.0935,-5.0836,-5.0454,-4.9458,-4.9427,-4.9205,-4.8567,-4.8491,-4.833,-4.7894,-4.7894,-4.7698,-4.731,-4.526,-4.3941,-4.3341,-4.1331,-3.9837,-3.8838,-3.8838,-3.8661,-8.2459,-8.3931,-8.5123,-8.546,-8.5539,-8.5539,-8.5539,-8.5539,-8.5214,-8.4022,-8.3805,-8.3083,0.0,0.0,0.0,-8.2794,-8.4997,0.0,-8.6225,-8.6513,0.0,-8.5463,0.0,-8.4883,-8.407,-8.3861,0.0,0.0,-8.3861,-8.4586,-8.4586,-8.4586,-8.4586,-8.4586,-8.4002,-8.3575,-8.3393,-8.2061,-8.1252,-8.1,-8.1,-8.1376,-8.1986,-8.1084,-7.9874,-7.8408,-7.6239,-7.4491,-7.3043,-7.1365,-7.0522,-7.0233,-6.9846,-6.9461,-6.92,-6.92,-6.92,-6.9309,-6.99,-7.0021,-6.9693,-6.9331,-6.92,-6.8904,-6.7501,-6.6054,-6.464,-6.3201,-6.1753,-6.0629,-6.0629,-6.0629,-6.0629,-6.0629,-6.0629,-6.0629,-6.0629,-6.0629,-6.0629,-6.0629,-6.0629,-6.0629,-6.0629,-6.0629,-6.046,-5.9908,-5.8775,-5.6973,-5.4276,-5.2601,-5.1684,-5.1584,-5.155,-5.1281,-5.0562,-5.0495,-5.0213,-4.939,-4.9316,-4.9199,-4.8787,-4.8787,-4.8519,-4.7877,-4.5514,-4.4133,-4.376,-4.1526,-4.0132,-3.9548,-3.9348,-3.9008,-8.0689,-8.2338,-8.3973,-8.5202,-8.5539,-8.5539,-8.5539,-8.5539,-8.5502,-8.543,-8.543,-8.5358,0.0,0.0,-8.59,-8.7416,-8.9077,-8.9619,-8.8138,-8.9185,-8.9005,0.0,0.0,0.0,0.0,0.0,0.0,-8.4617,0.0,-8.4586,-8.4586,-8.4586,-8.4586,-8.4586,-8.4516,-8.4141,-8.3393,-8.3283,-8.28,-8.1946,-8.1946,-8.1986,-8.1986,-8.1084,-7.9874,-7.8449,-7.6832,-7.5326,-7.39,-7.2298,-7.1419,-7.0987,-7.0275,-6.9633,-6.92,-6.92,-6.92,-6.9528,-7.1877,-7.2153,-7.1195,-6.9704,-6.92,-6.8904,-6.7501,-6.6054,-6.464,-6.3201,-6.1753,-6.0629,-6.0629,-6.0629,-6.0629,-6.0629,-6.0629,-6.0629,-6.0629,-6.0629,-6.0629,-6.0629,-6.0629,-6.0629,-6.0629,-6.0629,-6.0169,-5.8784,-5.7374,-5.5862,-5.4249,-5.2669,-5.1685,-5.1718,-5.1685,-5.1651,-5.1449,-5.1551,-5.1551,-5.1381,-5.1349,-5.0905,-4.9922,-4.9886,-4.8789,-4.6428,-4.5018,-4.3638,-4.2252,-4.1033,-4.0421,-4.0357,-3.9611,-3.9248,-8.0608,-8.1608,-8.2433,-8.4919,-8.5539,-8.5539,-8.5539,-8.5539,-8.5539,-8.5539,-8.5539,-8.5539,-8.5539,-8.5539,-8.5719,-8.6333,-8.6911,-8.7055,-8.6513,-8.6911,-8.6838,-8.5683,-8.5422,-8.5334,0.0,0.0,0.0,-8.4749,-8.4652,-8.4586,-8.4586,-8.4586,-8.4586,-8.4586,-8.4586,-8.4415,-8.4141,-8.3611,-8.3246,-8.2911,-8.2911,-8.3173,-8.3648,-8.28,-8.1022,-7.8584,-7.7428,-7.5542,-7.3229,-7.2194,-7.1845,-7.1961,-7.1151,-7.1641,-7.2693,-7.2499,-7.2699,-7.3169,-7.3643,-7.31,-7.2125,-7.1129,-7.0827,-7.0389,-6.7891,-6.6507,-6.5145,-6.271,-6.1338,-6.0629,-6.0629,-6.0629,-6.0629,-6.0629,-6.0629,-6.0629,-6.0629,-6.0629,-6.0629,-6.0629,-6.0629,-6.0629,-6.0629,-6.0629,-6.0169,-5.8755,-5.6454,-5.4349,-5.287,-5.2179,-5.1818,-5.1818,-5.1818,-5.1785,-5.1752,-5.1785,-5.1785,-5.1651,-5.1651,-5.1417,-5.0974,-5.0804,-4.989,-4.8043,-4.6576,-4.5115,-4.3689,-4.2386,-4.1541,-4.1052,-4.0865,-4.0487,-7.861,-7.9939,-8.1493,-8.3474,-8.4744,-8.5539,-8.5539,-8.5539,-8.5539,-8.5539,-8.5539,-8.5539,-8.5539,-8.5539,-8.5539,-8.5539,-8.5539,-8.5539,-8.5539,-8.5539,-8.5539,-8.5539,-8.5447,0.0,0.0,0.0,0.0,-8.4883,-8.4683,-8.4583,-8.4586,-8.4586,-8.4586,-8.4586,-8.4586,-8.4586,-8.4586,-8.4072,-8.3754,-8.3754,-8.3754,-8.4072,-8.4516,-8.3153,-8.1139,-7.8639,-7.748,-7.5589,-7.3254,-7.2726,-7.2657,-7.287,-7.2622,-7.337,-7.4708,-7.5041,-7.5946,-7.6815,-7.5841,-7.4478,-7.2885,-7.1433,-7.0939,-7.0359,-6.7392,-6.5967,-6.4906,-6.2673,-6.15,-6.1016,-6.1312,-6.1352,-6.1352,-6.1352,-6.1352,-6.1352,-6.1352,-6.1352,-6.1312,-6.1016,-6.0979,-6.0899,-6.0667,-6.0629,-6.0169,-5.8755,-5.6421,-5.4583,-5.3828,-5.264,-5.1883,-5.1883,-5.1883,-5.1883,-5.1883,-5.1883,-5.1884,-5.1785,-5.1752,-5.1718,-5.1584,-5.0929,-4.9887,-4.8362,-4.6842,-4.5358,-4.3933,-4.3021,-4.231,-4.1813,-4.1662,-4.1298,-7.4926,-7.745,-8.1064,-8.0894,-8.3119,-8.5394,-8.5394,-8.5394,-8.543,-8.5502,-8.5539,-8.5539,-8.5539,-8.5539,-8.5539,-8.5539,-8.5539,-8.5539,-8.5539,-8.5539,-8.5539,-8.5539,-8.5539,-8.5478,0.0,-8.5329,-8.5302,-8.5148,-8.4883,-8.4683,-8.4586,-8.4586,-8.4586,-8.4586,-8.4586,-8.4586,-8.4586,-8.4586,-8.4586,-8.4586,-8.4586,-8.4586,-8.4481,-8.2022,-8.0083,-7.8603,-7.6951,-7.5438,-7.4096,-7.4098,-7.4,-7.3871,-7.4641,-7.4933,-7.5062,-7.6622,-7.8608,-8.025,-7.8559,-7.6258,-7.3491,-7.0471,-6.9441,-6.8861,-6.5892,-6.4547,-6.3844,-6.3061,-6.2278,-6.1824,-6.2619,-6.2786,-6.2786,-6.2786,-6.2786,-6.2786,-6.2786,-6.2786,-6.2551,-6.1789,-6.1646,-6.1428,-6.0824,-6.0705,-6.0207,-5.8862,-5.738,-5.6642,-5.7154,-5.4158,-5.1949,-5.1949,-5.1949,-5.1916,-5.1916,-5.1916,-5.1883,-5.1883,-5.1883,-5.1851,-5.1718,-5.0312,-4.8777,-4.7091,-4.5628,-4.4193,-4.2789,-4.2621,-4.2596,-4.2568,-4.193,-4.1603,-8.0574,0.0,0.0,-8.0295,-8.1495,-8.2144,-8.2144,-8.2144,-8.2794,-8.5069,-8.5539,-8.5539,-8.5539,-8.5539,-8.5539,-8.5539,-8.5539,-8.5539,-8.5539,-8.5539,-8.5539,-8.5539,-8.5539,-8.5508,-8.5478,-8.5391,-8.5298,-8.5302,-8.4948,-8.4716,-8.4683,-8.4619,-8.4586,-8.4586,-8.4586,-8.4586,-8.4586,-8.4586,-8.4586,-8.4586,-8.4586,-8.4586,-8.4481,-8.2676,-8.0407,-7.7844,-7.7385,-7.6319,-7.4973,-7.5525,-7.605,-7.6548,-7.7339,-7.8675,-8.0322,-8.1879,-8.1562,-8.0211,-7.9237,-7.6431,-7.2998,-7.1652,-7.0459,-6.9169,-6.718,-6.6074,-6.5204,-6.3883,-6.2983,-6.2517,-6.2753,-6.2786,-6.2786,-6.2786,-6.2786,-6.2786,-6.2786,-6.2786,-6.2719,-6.2517,-6.2,-6.1718,-6.2105,-6.1751,-6.1402,-6.1565,-5.9402,-5.7065,-5.508,-5.3913,-5.3316,-5.3316,-5.2897,-5.2587,-5.2587,-5.2175,-5.1883,-5.1883,-5.1883,-5.1883,-5.1851,-5.0408,-4.8872,-4.737,-4.5717,-4.4193,-4.2789,-4.2915,-4.2915,-4.2705,-4.2718,-4.2547,-7.7401,0.0,0.0,0.0,-7.6367,-7.7559,-8.0267,-7.9797,-7.9906,-8.3769,-8.4564,-8.4744,-8.543,-8.5539,-8.5539,0.0,-8.5539,-8.5539,-8.5539,-8.5539,-8.5539,-8.5539,-8.5539,-8.5539,-8.5539,-8.5447,-8.5391,-8.5329,-8.514,-8.4912,-8.4749,-8.4683,-8.4583,-8.4586,-8.4586,-8.4586,-8.4586,-8.4586,-8.4586,-8.4586,-8.4586,-8.4586,-8.4514,-8.2947,-8.0878,-7.8452,-7.7132,-7.6061,-7.5282,-7.5732,-7.6576,-7.7671,-7.8784,-8.0447,-8.234,-8.3232,-8.1692,-7.8953,-7.7835,-7.4928,-7.156,-7.0464,-6.9463,-6.8415,-6.6829,-6.5792,-6.499,-6.4433,-6.3721,-6.3277,-6.3598,-6.3661,-6.3661,-6.3661,-6.3661,-6.3661,-6.3661,-6.3661,-6.3598,-6.3243,-6.2818,-6.2585,-6.2753,-6.2415,-6.2245,-6.2641,-5.9889,-5.7094,-5.5341,-5.4394,-5.3847,-5.3847,-5.3528,-5.3171,-5.2897,-5.2524,-5.2207,-5.1916,-5.1883,-5.162,-5.1029,-4.9521,-4.8079,-4.6666,-4.5045,-4.3843,-4.3022,-4.312,-4.3092,-4.2943,-4.3092,-4.3036,-6.8388,0.0,0.0,-6.7954,-6.8747,-7.1189,0.0,0.0,-7.5709,-8.0535,-8.1804,-8.2496,-8.4143,-8.472,-8.5009,-8.525,-8.543,-8.5539,-8.5539,-8.5539,-8.5539,-8.5539,-8.5539,-8.5539,-8.5539,-8.5539,-8.5478,-8.536,-8.5329,-8.5172,-8.4814,-8.4817,-8.4752,-8.455,-8.4586,-8.4586,-8.4586,-8.4586,-8.4586,-8.4586,-8.4586,-8.4479,-8.4231,-8.2661,-8.1127,-7.9455,-7.6525,-7.5241,-7.5241,-7.5419,-7.6311,-7.7738,-7.9486,-8.0806,-8.1734,-8.1912,-7.9879,-7.678,-7.5101,-7.2545,-6.9643,-6.8123,-6.7414,-6.691,-6.5533,-6.4516,-6.4028,-6.4732,-6.4427,-6.4058,-6.4761,-6.4939,-6.4939,-6.4911,-6.4911,-6.4911,-6.4911,-6.4911,-6.4703,-6.4032,-6.381,-6.3592,-6.3115,-6.2815,-6.2515,-6.2105,-5.9194,-5.7018,-5.6817,-5.52,-5.4045,-5.4045,-5.4045,-5.3755,-5.3107,-5.3019,-5.2743,-5.2175,-5.1945,-5.1285,-5.003,-4.8352,-4.6872,-4.5619,-4.4119,-4.334,-4.334,-4.3203,-4.318,-4.318,-4.318,-4.318,0.0,0.0,0.0,0.0,0.0,0.0,0.0,0.0,-6.5227,-7.026,-7.3051,-7.5217,-7.715,-7.9614,-8.1824,-8.3385,-8.4708,-8.5539,-8.5539,-8.5539,-8.5539,-8.5539,-8.5539,-8.5539,-8.5539,-8.5539,-8.5508,-8.5478,-8.5391,-8.5298,-8.5235,-8.5112,-8.4984,-8.4716,-8.4716,-8.465,-8.4586,-8.4586,-8.4586,-8.4586,-8.4586,-8.3874,-8.2626,-8.1056,-7.9486,-7.7916,-7.6061,-7.5241,-7.5348,-7.6596,-7.7274,-7.7809,-8.0663,-8.0414,-7.8594,-7.9879,-7.7467,-7.3464,-7.3114,-7.0828,-6.8088,-6.7626,-6.6621,-6.5498,-6.5102,-6.4853,-6.4732,-6.4989,-6.4961,-6.4869,-6.5053,-6.5081,-6.5053,-6.4939,-6.4911,-6.4911,-6.4911,-6.4911,-6.4882,-6.4703,-6.4184,-6.3906,-6.4403,-6.2928,-6.1032,-5.913,-5.8206,-5.726,-5.6006,-5.5484,-5.5259,-5.5259,-5.5259,-5.4993,-5.433,-5.3892,-5.3615,-5.3464,-5.2288,-5.1475,-5.117,-4.8193,-4.6405,-4.6137,-4.4278,-4.334,-4.334,-4.3313,-4.3313,-4.3313,-4.3313,-4.3313,0.0,0.0,0.0,0.0,0.0,0.0,0.0,0.0,0.0,0.0,0.0,-7.0107,0.0,0.0,-7.874,-8.0563,-8.2181,-8.348,-8.4239,-8.4347,-8.4058,-8.33,-8.3192,-8.3517,-8.4275,-8.4347,-8.4708,-8.5466,-8.5447,-8.5422,-8.5329,-8.5244,-8.5084,-8.4951,-8.4782,-8.4716,-8.465,-8.465,-8.4617,-8.4586,-8.3732,-8.2982,-8.2162,-7.9807,-7.8309,-7.7453,-7.5919,-7.5241,-7.5276,-7.6061,-7.6846,-7.7631,-7.8416,-7.7774,-7.6382,-7.6382,-7.4325,-7.1387,-7.0568,-6.8697,-6.665,-6.6604,-6.6016,-6.5296,-6.5241,-6.5158,-6.5137,-6.5185,-6.5213,-6.5213,-6.5213,-6.5213,-6.5185,-6.5053,-6.5025,-6.4996,-6.4946,-6.4911,-6.4911,-6.4911,-6.3949,-6.3273,-6.3693,-6.1495,-5.9283,-5.8091,-5.7272,-5.6498,-5.5699,-5.5593,-5.5312,-5.4502,-5.4432,-5.43,-5.3959,-5.3447,-5.3471,-5.4193,-5.3264,-5.201,-5.051,-4.8745,-4.7122,-4.5633,-4.4637,-4.414,-4.414,-4.414,-4.3993,-4.3738,-4.4019,-4.414,0.0,0.0,0.0,0.0,0.0,0.0,0.0,0.0,0.0,0.0,0.0,0.0,0.0,0.0,0.0,-7.727,-7.94,-8.1314,-8.2578,-8.2469,-8.1928,-8.0989,-8.0845,-8.135,-8.2614,-8.2758,-8.3264,-8.4528,-8.4636,-8.4576,-8.449,-8.4372,-8.4278,-8.4215,-8.3984,-8.3887,-8.3822,-8.3822,-8.3757,-8.3625,0.0,0.0,-8.1234,-7.8701,-7.7381,-7.7025,-7.5776,-7.5241,-7.5241,-7.5241,-7.5954,-7.6917,-7.5062,-7.4527,-7.4599,-7.3022,-7.1238,-6.9426,-6.8043,-6.6759,-6.5715,-6.5689,-6.5584,-6.5504,-6.5477,-6.5369,0.0,-6.5351,-6.5378,-6.5378,-6.5378,-6.5378,-6.5323,-6.5185,-6.5158,-6.5031,-6.4637,-6.4573,-6.4468,-6.415,-6.3065,-6.2185,-6.2185,-5.9577,-5.7393,-5.7111,-5.6216,-5.5488,-5.5231,-5.5417,-5.5101,-5.3834,-5.3693,-5.3693,-5.3693,-5.2795,-5.2966,-5.468,-5.384,-5.1954,-4.8907,-4.8394,-4.6907,-4.4216,-4.4055,-4.4281,-4.4886,-4.4886,-4.4679,-4.4233,-4.2925,-4.279,0.0,0.0,0.0,0.0,0.0,0.0,0.0,0.0,0.0,0.0,0.0,0.0,0.0,0.0,0.0,0.0,-7.792,-8.0917,-8.1097,-7.9906,-7.9509,-8.0736,-8.0845,-8.0917,-8.1097,-8.1133,-8.117,-8.135,-8.1386,-8.1386,-8.1357,0.0,0.0,0.0,0.0,-8.0657,-8.0414,-8.0449,-8.0449,-8.0417,-8.0239,-7.945,-7.8059,-7.7702,-7.681,-7.549,-7.5312,-7.5241,-7.5241,-7.5241,-7.5348,-7.5205,-7.2244,-7.1923,-7.2986,-7.1388,-6.889,-6.6215,-6.6036,0.0,0.0,-6.5557,-6.5531,-6.5477,-6.5378,-6.5351,-6.5315,-6.545,-6.5477,-6.5477,-6.5477,-6.5477,-6.545,-6.5323,-6.5296,-6.4906,-6.3506,-6.3188,-6.2798,-6.1382,-6.0915,-6.0705,-6.0705,-5.8118,-5.5576,-5.4175,-5.4892,-5.5125,-5.387,-5.4797,-5.5558,-5.5347,0.0,0.0,-5.5312,-5.2825,-5.2485,-5.5308,-5.2943,-4.999,-4.6742,-4.4954,-4.3206,-4.1477,-4.1,-4.2109,-4.4886,-4.4886,-4.4862,-4.462,-3.6803,-3.5172,0.0,0.0,0.0,0.0,0.0,0.0,0.0,0.0,0.0,0.0,0.0,0.0,0.0,0.0,0.0,0.0,-7.2179,-7.532,-7.532,-7.6331,-7.7306,-7.7956,-7.8028,-7.8425,-7.94,-7.9509,-7.987,-8.0772,-8.0845,-8.0845,-8.0845,-8.0794,-8.07,-8.0635,-8.0422,-8.0206,-8.0124,-8.0067,-7.9942,-7.9883,-7.8987,-7.8202,-7.7519,-7.6632,-7.5847,-7.5241,-7.5241,-7.5241,-7.5169,-7.4242,-7.3849,0.0,0.0,0.0,0.0,0.0,-6.7642,-6.5715,-6.5715,-6.5715,-6.5715,-6.5637,-6.5637,-6.561,-6.5557,-6.5531,-6.5557,-6.561,-6.5637,-6.5637,-6.5637,-6.5637,-6.5335,-6.4322,-6.4083,-6.3631,-6.1991,-6.1611,-6.1434,-6.0761,-5.9885,0.0,-5.8128,-5.6804,-5.5695,-5.5035,-5.5435,-5.5564,-5.4905,-5.5423,-5.5435,-5.4469,-5.4446,-5.4469,-5.4469,-5.3233,0.0,0.0,0.0,-5.3107,-5.1746,-4.9154,0.0,0.0,0.0,0.0,0.0,0.0,0.0,0.0,-3.9382,-3.8544,0.0,0.0,0.0,0.0,0.0,0.0,0.0,0.0,0.0,0.0,0.0,0.0,0.0,0.0,0.0,0.0,0.0,-6.9976,-6.9976,-7.2359,-7.4237,-7.467,-7.5104,-7.5681,-7.6476,-7.7333,-7.8281,-7.9436,-7.9509,-7.9509,-7.9509,-7.9431,-7.9403,-7.9452,-7.9186,-7.9033,-7.8974,-7.886,-7.878,-7.8656,-7.7483,-7.6917,-7.6882,-7.574,-7.5241,-7.5205,-7.4777,-7.4599,-7.4456,-7.2915,-7.2273,-7.2058,-6.9996,-6.8498,-6.7401,-6.7401,-6.6652,-6.5715,-6.5715,-6.5715,-6.5715,-6.5715,-6.5715,-6.5715,-6.5715,-6.5394,-6.5073,-6.5073,-6.4752,-6.4395,-6.4395,-6.4395,-6.412,-6.2878,-6.2578,-6.2126,-6.0487,-6.0142,-6.0,-5.9549,-5.8544,-5.7432,-5.6365,-5.6095,-5.5883,-5.5458,-5.5753,0.0,-5.5306,-5.5671,-5.5529,-5.4292,-5.4232,-5.4277,-5.4277,-5.3395,-5.3703,-5.567,-5.4904,-5.4738,-5.5558,-5.1758,-4.8613,-4.638,-4.2206,-3.9672,0.0,0.0,0.0,0.0,0.0,0.0,0.0,0.0,0.0,0.0,0.0,0.0,0.0,0.0,0.0,0.0,0.0,0.0,0.0,0.0,0.0,0.0,0.0,0.0,-6.6618,-6.8123,-6.9784,-7.1301,-7.2793,-7.3154,-7.1735,-7.4309,-7.6115,-7.6151,-7.6151,-7.6151,-7.6151,-7.6151,-7.6105,-7.594,-7.5976,-7.5892,-7.5779,-7.5636,-7.5578,-7.5578,-7.5401,-7.5312,-7.5312,-7.5241,-7.5241,-7.5169,-7.3629,-7.2986,-7.2844,-7.1309,-7.0639,-7.0282,-6.7107,-6.5822,-6.5787,-6.5787,-6.5751,-6.5715,-6.5715,-6.5715,-6.5715,-6.5715,-6.5715,-6.5715,-6.5715,-6.4645,-6.3442,-6.3442,-6.2362,-6.1173,-6.1173,-6.1173,-6.1173,-6.1113,-6.1102,-6.0649,-5.9092,-5.8771,-5.8307,-5.6787,-5.6466,-5.6372,-5.621,-5.6187,-5.5654,-5.4138,-5.509,0.0,-5.4058,-5.5126,-5.5978,-5.5907,-5.5907,-5.5907,-5.5907,-5.3121,-5.2652,-5.56,-5.2963,-5.2577,-5.5488,-4.9704,-4.6415,-4.6471,-4.3333,-4.0235,-3.7224,0.0,0.0,0.0,0.0,0.0,0.0,0.0,0.0,0.0,0.0,0.0,0.0,0.0,0.0,0.0,0.0,0.0,0.0,0.0,0.0,0.0,0.0,0.0,0.0,0.0,-6.7942,-6.9604,-7.0254,-6.9929,-6.8279,-7.0109,-7.1374,-7.1374,-7.3262,-7.4454,-7.4454,-7.5428,-7.5979,-7.5925,-7.5768,-7.5656,-7.5635,-7.5412,-7.5294,-7.5294,-7.5271,-7.467,-7.37,-7.37,-7.31,-7.2101,-7.1566,-7.1345,-7.1238,-6.9541,-6.8284,-6.7214,-6.6143,-6.5715,-6.5715,-6.5715,-6.5715,-6.5537,-6.4538,-6.4145,-6.4003,-6.2932,-6.2636,-6.2636,-6.2636,-6.2219,-6.1827,-6.1827,-6.1434,-6.103,-6.103,-6.103,-6.078,-5.9722,-5.9472,-5.9044,-5.7487,-5.713,-5.6988,-5.6488,-5.5888,-5.4456,-5.1218,-5.4218,-5.5414,-5.0569,-5.3947,-5.6805,-5.6243,-5.666,-5.6966,-5.6905,-5.6966,-5.7022,-5.7022,-5.597,-5.563,-5.6366,-5.5284,-5.4933,-5.5693,-5.165,-4.9387,-4.9422,-4.6325,-4.0763,-3.2625,0.0,0.0,0.0,0.0,0.0,0.0,0.0,0.0,0.0,0.0,0.0,0.0,0.0,0.0,0.0,0.0,0.0,0.0,0.0,0.0,0.0,0.0,0.0,0.0,0.0,0.0,-6.7942,-6.7111,0.0,-6.415,-6.498,-6.5594,-6.5594,-6.8496,-7.0518,-7.1096,-7.2648,-7.3768,-7.4309,-7.4159,-7.4113,-7.4113,-7.3844,-7.3709,-7.3709,-7.3622,-7.3029,-7.2058,-7.2058,-7.1523,-7.0496,-6.9925,-6.9675,-6.9497,-6.7294,-6.5439,-6.3967,-6.3432,-6.2861,-6.2433,-6.3004,-6.3218,-6.3147,-6.2683,-6.254,-6.2397,-6.1387,-6.0257,-5.9365,-5.9365,-5.8188,-5.7104,-5.8246,-5.8116,-5.7974,-5.9079,-5.9365,-5.9115,-5.8116,-5.7981,-5.7793,-5.6789,-5.6215,-5.6068,-5.6664,-5.6289,-5.4345,-4.9475,-5.1671,-5.2817,-4.922,-5.1744,-5.4892,-5.7134,-5.748,-5.7498,-5.7443,-5.748,-5.7552,-5.7552,-5.7443,-5.7164,-5.6799,-5.651,-5.5931,-5.4988,-5.2378,-4.9902,-4.7787,-4.5211,-4.0287,0.0,0.0,0.0,0.0,0.0,0.0,0.0,0.0,0.0,0.0,0.0,0.0,0.0,0.0,0.0,0.0,0.0,0.0,0.0,0.0,0.0,0.0,0.0,0.0,0.0,0.0,0.0,-6.5824,-6.3247,0.0,0.0,0.0,0.0,-5.8876,-6.1874,-6.4343,-6.5932,-6.7689,-6.9387,-7.1048,-7.1096,-7.1168,-7.1312,-7.1101,-7.0942,-7.0942,-7.0706,-7.0524,-7.0424,-7.0424,-7.0389,-7.021,-6.8613,-6.7936,-6.7686,-6.4441,-6.2219,-6.0673,-5.9079,-5.7451,-5.6203,-5.7867,-5.8437,-5.858,-6.0245,-6.0816,-6.078,-6.0531,-5.8402,-5.5882,-5.5632,-5.2444,0.0,0.0,-5.2444,-5.2102,-5.5311,-5.6154,-5.619,-5.6368,-5.6724,-5.6982,-5.6982,-5.5985,-5.5528,0.0,-5.6968,-5.5217,-5.0012,0.0,-4.7781,-4.9034,-4.8451,-5.0138,-5.642,-5.746,-5.7606,-5.7606,-5.7606,-5.7606,-5.7606,-5.7461,-5.724,-5.686,-5.6595,-5.5556,-5.3594,-5.167,-4.7914,-4.2124,-4.0118,0.0,0.0,0.0,0.0,0.0,0.0,0.0,0.0,0.0,0.0,0.0,0.0,0.0,0.0,0.0,0.0,0.0,0.0,0.0,0.0,0.0,0.0,0.0,0.0,0.0,0.0,-5.2844,-5.6384,-5.9201,-5.6673,-5.3639,0.0,0.0,0.0,0.0,0.0,0.0,-5.9454,-6.2163,-6.4908,-6.7629,-6.7617,-6.872,-7.1169,-7.1048,-7.0942,-7.0942,-7.078,-7.009,-6.8955,-6.8775,-6.8043,-6.6928,-6.65,-6.6322,-6.6001,-6.1684,-5.8972,-5.738,-5.5833,-5.3571,-5.1501,-5.4228,-5.4513,-5.3885,-5.6631,-5.7558,-5.6988,-5.35,-5.1037,-4.8769,-4.5148,0.0,0.0,0.0,0.0,-4.7502,-5.1781,-5.3139,-5.3937,-5.6238,-5.7101,-5.7406,-5.7406,-5.7152,-5.5755,0.0,-4.9126,-4.4704,-3.6122,0.0,0.0,0.0,0.0,-4.9693,-5.254,-5.6104,-5.8411,-5.8411,-5.8411,-5.8411,-5.8411,-5.836,-5.8208,-5.7798,-5.7515,-5.6513,-5.4536,-4.9287,-4.5182,-4.2477,0.0,0.0,0.0,0.0,0.0,0.0,0.0,0.0,0.0,0.0,0.0,0.0,0.0,0.0,0.0,0.0,0.0,0.0,0.0,0.0,0.0,0.0,0.0,0.0,0.0,0.0,0.0,-4.8546,-5.3205,-5.5734,-5.1959,-4.8456,0.0,0.0,0.0,0.0,0.0,0.0,0.0,0.0,0.0,-6.1188,-6.1187,-6.2404,-6.4985,-6.6197,-6.678,-6.678,-6.7997,-6.807,-6.7213,-6.7098,-6.6509,-6.5644,-6.5002,-6.3896,-6.2326,-5.833,-5.4941,-5.2031,0.0,0.0,0.0,0.0,-4.6843,-4.5844,-4.8286,-4.9142,-4.8607,-4.5255,0.0,0.0,0.0,0.0,0.0,0.0,0.0,0.0,0.0,0.0,-5.2668,-5.5092,-5.6108,-5.6694,-5.737,-5.3865,-4.9386,0.0,-4.3115,-3.9401,-3.1751,0.0,0.0,0.0,0.0,-4.6282,-5.0728,-5.563,-5.8726,-5.8726,-5.8726,-5.8726,-5.8726,-5.8726,-5.855,-5.813,-5.7213,-5.4877,-5.0812,-4.6286,-4.0909,0.0,0.0,0.0,0.0,0.0,0.0,0.0,0.0,0.0,0.0,0.0,0.0,0.0,0.0,0.0,0.0,0.0,0.0,0.0,0.0,0.0,0.0,0.0,0.0,0.0,0.0,0.0,0.0,0.0,-5.0749,-5.2555,0.0,0.0,0.0,0.0,0.0,0.0,0.0,0.0,0.0,0.0,0.0,0.0,0.0,-5.4072,-5.6167,-5.8665,-6.0137,-6.0545,-6.3034,-6.4303,-6.4518,-6.4492,-6.4609,-6.4645,-6.2266,0.0,-5.7795,-5.4049,0.0,0.0,0.0,0.0,0.0,0.0,0.0,0.0,0.0,0.0,0.0,0.0,0.0,0.0,0.0,0.0,0.0,0.0,0.0,0.0,0.0,0.0,-5.0715,-5.2291,-5.3553,-5.4508,0.0,-4.7605,-4.0339,-3.8204,-3.7424,0.0,0.0,0.0,0.0,0.0,0.0,0.0,-4.9354,-5.5221,-5.8726,-5.8726,-5.8726,-5.8726,-5.8726,-5.8726,-5.8564,-5.823,-5.5889,-5.1796,-4.5685,-4.3074,0.0,0.0,0.0,0.0,0.0,0.0,0.0,0.0,0.0,0.0,0.0,0.0,0.0,0.0,0.0,0.0,0.0,0.0,0.0,0.0,0.0,0.0,0.0,0.0,0.0,0.0,0.0,0.0,0.0,0.0,0.0,0.0,0.0,0.0,0.0,0.0,0.0,0.0,0.0,0.0,0.0,0.0,0.0,0.0,0.0,0.0,0.0,0.0,0.0,0.0,-5.6206,-5.7069,-5.8325,-5.8101,-5.8699,-5.9543,-5.2801,-5.1766,-5.432,-4.7289,0.0,0.0,0.0,0.0,0.0,0.0,0.0,0.0,0.0,0.0,0.0,0.0,0.0,0.0,0.0,0.0,0.0,0.0,0.0,0.0,0.0,0.0,0.0,0.0,-4.7692,-4.8559,0.0,0.0,0.0,0.0,0.0,0.0,0.0,0.0,0.0,0.0,0.0,0.0,-4.4675,-5.3104,-5.8726,-5.8726,-5.8726,-5.8726,-5.8726,-5.8726,-5.8698,-5.8606,-5.315,-4.8818,0.0,0.0,0.0,0.0,0.0,0.0,0.0,0.0,0.0,0.0,0.0,0.0,0.0,0.0,0.0,0.0,0.0,0.0,0.0,0.0,0.0,0.0,0.0,0.0,0.0,0.0,0.0,0.0,0.0,0.0,0.0,0.0,0.0,0.0,0.0,0.0,0.0,0.0,0.0,0.0,0.0,0.0,0.0,0.0,0.0,0.0,0.0,0.0,0.0,0.0,0.0,0.0,0.0,0.0,0.0,0.0,0.0,0.0,0.0,-4.2169,0.0,0.0,0.0,0.0,0.0,0.0,0.0,0.0,0.0,0.0,0.0,0.0,0.0,0.0,0.0,0.0,0.0,0.0,0.0,0.0,0.0,0.0,0.0,0.0,0.0,0.0,0.0,0.0,0.0,0.0,0.0,0.0,0.0,0.0,0.0,0.0,0.0,0.0,0.0,0.0,-4.3486,-5.2585,-5.8726,-5.8726,-5.8726,-5.8726,-5.8726,-5.8726,-5.7277,-5.386,-4.985,0.0,0.0,0.0,0.0,0.0,0.0,0.0,0.0,0.0,0.0,0.0,0.0,0.0,0.0,0.0,0.0,0.0,0.0,0.0,0.0,0.0,0.0,0.0,0.0,0.0,0.0,0.0,0.0,0.0,0.0,0.0,0.0,0.0,0.0,0.0,0.0,0.0,0.0,0.0,0.0,0.0,0.0,0.0,0.0,0.0,0.0,0.0,0.0,0.0,0.0,0.0,0.0,0.0,0.0,0.0,0.0,0.0,0.0,0.0,-3.985,0.0,0.0,0.0,0.0,0.0,0.0,0.0,0.0,0.0,0.0,0.0,0.0,0.0,0.0,0.0,0.0,0.0,0.0,0.0,0.0,0.0,0.0,0.0,0.0,0.0,0.0,0.0,0.0,0.0,0.0,0.0,0.0,0.0,0.0,0.0,0.0,0.0,0.0,0.0,0.0,0.0,-4.3563,-5.2609,-5.8726,-5.8726,-5.8726,-5.8726,-5.8726,-5.8726,-5.5903,-4.9399,-4.607,0.0,0.0,0.0,0.0,0.0,0.0,0.0,0.0,0.0,0.0,0.0,0.0,0.0,0.0,0.0,0.0,0.0,0.0,0.0,0.0,0.0,0.0,0.0,0.0,0.0,0.0,0.0,0.0,0.0,0.0,0.0,0.0,0.0,0.0,0.0,0.0,0.0,0.0,0.0,0.0,0.0,0.0,0.0,0.0,0.0,0.0,0.0,0.0,0.0,0.0,0.0,0.0,0.0,0.0,0.0,0.0,0.0,0.0,0.0,0.0,0.0,0.0,0.0,0.0,0.0,0.0,0.0,0.0,0.0,0.0,0.0,0.0,0.0,0.0,0.0,0.0,0.0,0.0,0.0,0.0,0.0,0.0,0.0,0.0,0.0,0.0,0.0,0.0,0.0,0.0,0.0,0.0,0.0,0.0,0.0,0.0,0.0,0.0,0.0,0.0,0.0,-4.3697,-5.2668,-5.8726,-5.8726,-5.8726,-5.8726,-5.8726,-5.8726,-5.5928,-4.9402,0.0,0.0,0.0,0.0,0.0,0.0,0.0,0.0,0.0,0.0,0.0,0.0,0.0,0.0,0.0,0.0,0.0,0.0,0.0,0.0,0.0,0.0,0.0,0.0,0.0,0.0,0.0,0.0,0.0,0.0,0.0,0.0,0.0,0.0,0.0,0.0,0.0,0.0,0.0,0.0,0.0,0.0,0.0,0.0,0.0,0.0,0.0,0.0,0.0,0.0,0.0,0.0,0.0,0.0,0.0,0.0,0.0,0.0,0.0,0.0,0.0,0.0,0.0,0.0,0.0,0.0,0.0,0.0,0.0,0.0,0.0,0.0,0.0,0.0,0.0,0.0,0.0,0.0,0.0,0.0,0.0,0.0,0.0,0.0,0.0,0.0,0.0,0.0,0.0,0.0,0.0,0.0,0.0,0.0,0.0,0.0,0.0,0.0,0.0,0.0,0.0,0.0,-4.394,-5.2957,-5.9066,-5.9066,-5.9066,-5.9066,-5.9066,-5.9066,-5.4547,-4.3915,0.0,0.0,0.0,0.0,0.0,0.0,0.0,0.0,0.0,0.0,0.0,0.0,0.0,0.0,0.0,0.0,0.0,0.0,0.0,0.0,0.0,0.0,0.0,0.0,0.0,0.0,0.0,0.0,0.0,0.0,0.0,0.0,0.0,0.0,0.0,0.0,0.0,0.0,0.0,0.0,0.0,0.0,0.0,0.0,0.0,0.0,0.0,0.0,0.0,0.0,0.0,0.0,0.0,0.0,0.0,0.0,0.0,0.0,0.0,0.0,0.0,0.0,0.0,0.0,0.0,0.0,0.0,0.0,0.0,0.0,0.0,0.0,0.0,0.0,0.0,0.0,0.0,0.0,0.0,0.0,0.0,0.0,0.0,0.0,0.0,0.0,0.0,0.0,0.0,0.0,0.0,0.0,0.0,0.0,0.0,0.0,0.0,0.0,0.0,0.0,0.0,0.0,-4.4102,-5.3177,-5.9289,-5.9289,-5.9289,-5.9289,-5.9289,-5.9289,-5.3846,-4.108,0.0,0.0,0.0,0.0,0.0,0.0,0.0,0.0,0.0,0.0,0.0,0.0,0.0,0.0,0.0,0.0,0.0,0.0,0.0,0.0,0.0,0.0,0.0,0.0,0.0,0.0,0.0,0.0,0.0,0.0,0.0,0.0,0.0,0.0,0.0,0.0,0.0,0.0,0.0,0.0,0.0,0.0,0.0,0.0,0.0,0.0,0.0,0.0,0.0,0.0,0.0,0.0,0.0,0.0,0.0,0.0,0.0,0.0,0.0,0.0,0.0,0.0,0.0,0.0,0.0,0.0,0.0,0.0,0.0,0.0,0.0,0.0,0.0,0.0,0.0,0.0,0.0,0.0,0.0,0.0,0.0,0.0,0.0,0.0,0.0,0.0,0.0,0.0,0.0,0.0,0.0,0.0,0.0,0.0,0.0,0.0,0.0,0.0,0.0,0.0,0.0,0.0,-4.4074,-5.3179,-5.9289,-5.9289,-5.9289,-5.9289,-5.9289,-5.9289,-5.4397,0.0,0.0,0.0,0.0,0.0,0.0,0.0,0.0,0.0,0.0,0.0,0.0,0.0,0.0,0.0,0.0,0.0,0.0,0.0,0.0,0.0,0.0,0.0,0.0,0.0,0.0,0.0,0.0,0.0,0.0,0.0,0.0,0.0,0.0,0.0,0.0,0.0,0.0,0.0,0.0,0.0,0.0,0.0,0.0,0.0,0.0,0.0,0.0,0.0,0.0,0.0,0.0,0.0,0.0,0.0,0.0,0.0,0.0,0.0,0.0,0.0,0.0,0.0,0.0,0.0,0.0,0.0,0.0,0.0,0.0,0.0,0.0,0.0,0.0,0.0,0.0,0.0,0.0,0.0,0.0,0.0,0.0,0.0,0.0,0.0,0.0,0.0,0.0,0.0,0.0,0.0,0.0,0.0,0.0,0.0,0.0,0.0,0.0,0.0,0.0,0.0,0.0,0.0,-4.3893,-5.0572,-5.5959,0.0,-5.969,-5.969,-5.969,-5.8626,-5.3458,-4.2973,0.0,0.0,0.0,0.0,0.0,0.0,0.0,0.0,0.0,0.0,0.0,0.0,0.0,0.0,0.0,0.0,0.0,0.0,0.0,0.0,0.0,0.0,0.0,0.0,0.0,0.0,0.0,0.0,0.0,0.0,0.0,0.0,0.0,0.0,0.0,0.0,0.0,0.0,0.0,0.0,0.0,0.0,0.0,0.0,0.0,0.0,0.0,0.0,0.0,0.0,0.0,0.0,0.0,0.0,0.0,0.0,0.0,0.0,0.0,0.0,0.0,0.0,0.0,0.0,0.0,0.0,0.0,0.0,0.0,0.0,0.0,0.0,0.0,0.0,0.0,0.0,0.0,0.0,0.0,0.0,0.0,0.0,0.0,0.0,0.0,0.0,0.0,0.0,0.0,0.0,0.0,0.0,0.0,0.0,0.0,0.0,0.0,0.0,0.0,0.0,0.0,0.0,0.0,-5.0954,-5.6439,0.0,-5.9873,-5.9873,-5.9873,-5.832,-5.3321,-4.3898,0.0,0.0,0.0,0.0,0.0,0.0,0.0,0.0,0.0,0.0,0.0,0.0,0.0,0.0,0.0,0.0,0.0,0.0,0.0,0.0,0.0,0.0,0.0,0.0,0.0,0.0,0.0,0.0,0.0,0.0,0.0,0.0,0.0,0.0,0.0,0.0,0.0,0.0,0.0,0.0,0.0,0.0,0.0,0.0,0.0,0.0,0.0,0.0,0.0,0.0,0.0,0.0,0.0,0.0,0.0,0.0,0.0,0.0,0.0,0.0,0.0,0.0,0.0,0.0,0.0,0.0,0.0,0.0,0.0,0.0,0.0,0.0,0.0,0.0,0.0,0.0,0.0,0.0,0.0,0.0,0.0,0.0,0.0,0.0,0.0,0.0,0.0,0.0,0.0,0.0,0.0,0.0,0.0,0.0,0.0,0.0,0.0,0.0,0.0,0.0,0.0,0.0,0.0,-5.3405,-5.9343,-5.9797,-5.9873,-5.9873,-5.9873,-5.8207,-5.3662,-4.5413,-4.0035,0.0,0.0,0.0,0.0,0.0,0.0,0.0,0.0,0.0,0.0,0.0,0.0,0.0,0.0,0.0,0.0,0.0,0.0,0.0,0.0,0.0,0.0,0.0,0.0,0.0,0.0,0.0,0.0,0.0,0.0,0.0,0.0,0.0,0.0,0.0,0.0,0.0,0.0,0.0,0.0,0.0,0.0,0.0,0.0,0.0,0.0,0.0,0.0,0.0,0.0,0.0,0.0,0.0,0.0,0.0,0.0,0.0,0.0,0.0,0.0,0.0,0.0,0.0,0.0,0.0,0.0,0.0,0.0,0.0,0.0,0.0,0.0,0.0,0.0,0.0,0.0,0.0,0.0,0.0,0.0,0.0,0.0,0.0,0.0,0.0,0.0,0.0,0.0,0.0,0.0,0.0,0.0,0.0,0.0,0.0,0.0,0.0,0.0,0.0,0.0,0.0,0.0,-5.0848,-5.4238,-5.9343,-5.9873,-5.9873,-5.9873,-5.7146,-5.2412,-4.5338,-3.9009,0.0,0.0,0.0,0.0,0.0,0.0,0.0,0.0,0.0,0.0,0.0,0.0,0.0,0.0,0.0,0.0,0.0,0.0,0.0,0.0,0.0,0.0,0.0,0.0,0.0,0.0,0.0,0.0,0.0,0.0,0.0,0.0,0.0,0.0,0.0,0.0,0.0,0.0,0.0,0.0,0.0,0.0,0.0,0.0,0.0,0.0,0.0,0.0,0.0,0.0,0.0,0.0,0.0,0.0,0.0,0.0,0.0,0.0,0.0,0.0,0.0,0.0,0.0,0.0,0.0,0.0,0.0,0.0,0.0,0.0,0.0,0.0,0.0,0.0,0.0,0.0,0.0,0.0,0.0,0.0,0.0,0.0,0.0,0.0,0.0,0.0,0.0,0.0,0.0,0.0,0.0,0.0,0.0,0.0,0.0,0.0,0.0,0.0,0.0,0.0,0.0,0.0,-4.5751,-5.0786,-5.8998,-5.9857,-5.955,-5.8792,-5.633,-5.1633,-4.4239,-3.8249,0.0,0.0,0.0,0.0,0.0,0.0,0.0,0.0,0.0,0.0,0.0,0.0,0.0,0.0,0.0,0.0,0.0,0.0,0.0,0.0,0.0,0.0,0.0,0.0,0.0,0.0,0.0,0.0,0.0,0.0,0.0,0.0,0.0,0.0,0.0,0.0,0.0,0.0,0.0,0.0,0.0,0.0,0.0,0.0,0.0,0.0,0.0,0.0,0.0,0.0,0.0,0.0,0.0,0.0,0.0,0.0,0.0,0.0,0.0,0.0,0.0,0.0,0.0,0.0,0.0,0.0,0.0,0.0,0.0,0.0,0.0,0.0,0.0,0.0,0.0,0.0,0.0,0.0,0.0,0.0,0.0,0.0,0.0,0.0,0.0,0.0,0.0,0.0,0.0,0.0,0.0,0.0,0.0,0.0,0.0,0.0,0.0,0.0,0.0,0.0,0.0,0.0,0.0,-4.8651,-5.7401,-5.9283,-5.9196,-5.749,-5.5785,-5.1268,-4.292,0.0,0.0,0.0,0.0,0.0,0.0,0.0,0.0,0.0,0.0,0.0,0.0,0.0,0.0,0.0,0.0,0.0,0.0,0.0,0.0,0.0,0.0,0.0,0.0,0.0,0.0,0.0,0.0,0.0,0.0,0.0,0.0,0.0,0.0,0.0,0.0,0.0,0.0,0.0,0.0,0.0,0.0,0.0,0.0,0.0,0.0,0.0,0.0,0.0,0.0,0.0,0.0,0.0,0.0,0.0,0.0,0.0,0.0,0.0,0.0,0.0,0.0,0.0,0.0,0.0,0.0,0.0,0.0,0.0,0.0,0.0,0.0,0.0,0.0,0.0,0.0,0.0,0.0,0.0,0.0,0.0,0.0,0.0,0.0,0.0,0.0,0.0,0.0,0.0,0.0,0.0,0.0,0.0,0.0,0.0,0.0,0.0,0.0,0.0,0.0,0.0,0.0,0.0,0.0,0.0,-5.118,-5.6526,-5.918,-5.7467,-5.5792,-5.1275,-4.2897,0.0,0.0,0.0,0.0,0.0,0.0,0.0,0.0,0.0,0.0,0.0,0.0,0.0,0.0]}],[{"header":{"parameterUnit":"kt","parameterCategory":2,"dx":1,"dy":1,"la1":29.285339999999998,"la2":30.599998999999997,"lo1":-89.70041500000002,"lo2":-87.6738589999976,"nx":112,"ny":82,"refTime":"2022-10-19T18:00:00:Z","depth":0,"parameterNumber":2,"parameterNumberName":"V-component_of_WINDS"},"data":[3.4241,3.5307,0.0,2.8506,2.7056,0.0,1.8736,0.0,1.9591,0.0,0.0,0.0,0.0,0.0,0.0,0.0,0.0,0.0,0.0,0.0,0.0,0.0,0.0,0.0,0.0,0.0,0.0,0.0,0.0,0.0,0.0,0.0,5.324,5.324,5.4136,5.472,5.4826,5.5219,5.5049,5.439,5.5072,5.529,5.5035,5.5729,5.6752,5.7945,5.8284,5.8743,5.9298,5.9298,5.9298,5.9298,5.9298,5.9338,5.9419,5.9419,5.962,5.9977,6.0487,6.1057,6.1575,6.2175,6.2982,6.3844,6.4093,6.4521,6.4805,6.4242,6.4488,6.4805,6.4242,6.4524,6.4911,6.4911,6.4911,6.4664,6.3644,6.1851,6.0234,5.9468,5.7927,5.6829,5.7143,5.7642,5.7865,5.7497,5.7604,5.7845,5.8156,5.827,5.8411,5.8698,5.8726,5.8726,5.8726,5.8726,5.8715,5.8757,5.8846,5.8905,5.8974,5.9196,5.9376,5.9372,5.9606,5.9739,5.9752,5.985,5.9871,5.9871,5.9871,5.9871,0.0,0.0,3.0712,2.3148,0.0,0.0,0.0,0.0,0.0,0.0,0.0,0.0,0.0,0.0,0.0,0.0,0.0,0.0,0.0,0.0,0.0,0.0,0.0,0.0,0.0,0.0,0.0,0.0,0.0,0.0,0.0,5.2427,5.3631,5.4456,5.5328,5.586,5.6024,5.6295,5.6107,5.5405,5.5416,5.5256,5.4976,5.5009,5.5729,5.6973,5.7657,5.8284,5.8857,5.9144,5.9298,5.9298,5.9298,5.9298,5.9298,5.9298,5.9419,5.958,5.9937,6.0449,6.102,6.1322,6.2141,6.3016,6.3208,6.3875,6.4521,6.4521,6.4703,6.4911,6.4911,6.4911,6.4911,6.4911,6.4911,6.4488,6.2904,6.1356,5.985,5.8575,5.7206,5.6416,5.6679,5.7022,5.7123,5.6929,5.7067,5.7333,5.7673,5.7932,5.8177,5.8455,5.862,5.8726,5.8726,5.8726,5.8726,5.8726,5.877,5.8846,5.8846,5.9029,5.9175,5.9242,5.9434,5.9583,5.9692,5.9768,5.985,5.9871,5.9871,5.9871,0.0,0.0,0.0,1.6939,0.0,0.0,0.0,0.0,1.5138,0.0,0.0,0.0,0.0,0.0,0.0,0.0,0.0,0.0,0.0,0.0,0.0,0.0,0.0,0.0,0.0,0.0,0.0,0.0,0.0,0.0,5.1208,5.2053,5.3206,5.5696,5.5835,5.5864,5.5918,5.6137,5.63,5.6244,5.5434,5.5031,5.4996,5.4995,5.5018,5.5082,5.7017,5.7829,5.7956,5.8857,5.9225,5.9225,5.9266,5.9298,5.9298,5.9298,5.9298,5.9338,5.958,5.9819,6.0172,6.0805,6.1212,6.1539,6.2176,6.3014,6.3717,6.3748,6.4309,6.4882,6.4946,6.4876,6.484,6.484,6.484,6.4418,6.2764,6.1285,5.9798,5.8143,5.6922,5.6197,5.6314,5.6252,5.6197,5.6314,5.6658,5.7005,5.7278,5.7639,5.7928,5.8098,5.8441,5.8675,5.8712,5.8726,5.8726,5.8726,5.8726,5.8726,5.8726,5.8797,5.8954,5.9066,5.9195,5.9396,5.9639,5.9687,5.9752,5.9869,5.9869,5.9871,2.3634,0.0,0.0,0.0,0.0,0.0,0.0,0.0,0.0,0.0,0.0,0.0,0.0,0.0,0.0,0.0,0.0,0.0,0.0,0.0,0.0,0.0,0.0,0.0,0.0,0.0,0.0,0.0,0.0,4.028,4.8942,5.1032,5.3082,5.5572,5.6569,5.7507,5.8488,5.8717,5.8348,5.7466,5.6754,5.5925,5.4996,5.4322,5.4385,5.5065,5.5592,5.626,5.7004,5.7914,5.8284,5.8368,5.9022,5.9298,5.9298,5.9298,5.9298,5.9298,5.9379,5.958,5.9858,6.025,6.0687,6.1215,6.1577,6.2176,6.2882,6.3592,6.3906,6.4184,6.4761,6.4101,6.3221,6.3221,6.3221,6.2482,5.9798,5.9763,5.9455,5.6779,5.5973,5.5788,5.58,5.5752,5.5788,5.58,5.5977,5.6239,5.658,5.6829,5.7221,5.7895,5.8093,5.83,5.8661,5.8726,5.8726,5.8726,5.8726,5.8726,5.8726,5.8742,5.8781,5.8783,5.9022,5.9185,5.925,5.9552,5.9679,5.973,5.973,5.9755,0.0,0.0,0.0,0.0,0.0,0.0,1.2788,0.0,1.2489,0.0,0.0,0.0,0.0,0.0,0.0,0.0,0.0,0.0,0.0,0.0,0.0,0.0,0.0,0.0,0.0,0.0,0.0,0.0,4.1758,4.2089,5.0122,5.1413,5.298,5.5443,5.6837,5.7883,5.8685,5.936,5.9341,5.8575,5.7745,5.6729,5.5625,5.4664,5.4283,5.448,5.483,5.5345,5.5988,5.696,5.7571,5.7988,5.8494,5.8733,5.8775,5.9144,5.9298,5.9298,5.9298,5.9419,5.954,5.97,6.0062,6.0498,6.065,6.1288,6.2106,6.2618,6.3275,6.3814,6.3971,6.3798,6.3482,6.3155,6.3305,6.2693,5.9587,5.9622,5.9314,5.6191,5.5593,5.5593,5.5593,5.5593,5.5593,5.5593,5.5667,5.5824,5.608,5.6336,5.6706,5.7278,5.7515,5.7792,5.833,5.8374,5.847,5.8675,5.8726,5.8726,5.8726,5.8726,5.8726,5.8726,5.8871,5.8977,5.9104,5.931,5.944,5.9431,5.9531,5.965,0.0,0.0,0.0,0.0,1.668,0.0,0.0,0.0,1.4421,1.3501,0.0,0.0,0.0,0.0,0.0,0.0,0.0,0.0,0.0,0.0,0.0,0.0,0.0,0.0,0.0,4.1483,4.2822,4.9442,4.3732,4.3902,5.2912,5.2433,5.294,5.529,5.651,5.7191,5.7521,5.8685,5.9302,5.9477,5.8405,5.7492,5.6679,5.551,5.4549,5.3853,5.4539,5.483,5.4924,5.5943,5.6841,5.7614,5.7614,5.7657,5.7871,5.8692,5.9022,5.9144,5.9144,5.9185,5.9298,5.9298,5.9459,5.962,5.962,6.0378,6.1245,6.1391,6.2449,6.3403,6.2884,6.3682,6.4335,6.3536,6.4034,6.3827,6.0782,6.0203,5.9384,5.6438,5.5699,5.5593,5.5593,5.5593,5.5593,5.5593,5.5593,5.5642,5.5728,5.6057,5.6358,5.6517,5.6869,5.726,5.7775,5.7895,5.8125,5.8592,5.8661,5.8726,5.8726,5.8726,5.8726,5.8726,5.8726,5.8833,5.9044,5.9093,5.9087,5.9097,5.9336,5.942,0.0,0.0,0.0,0.0,0.0,1.5319,0.0,0.0,0.0,0.0,0.0,0.0,0.0,0.0,0.0,0.0,0.0,0.0,0.0,0.0,0.0,0.0,0.0,0.0,0.0,4.9578,5.0187,5.1119,4.9824,5.0223,5.2975,5.2156,5.2671,5.5025,5.4506,5.5311,5.7521,5.7762,5.8448,5.9477,5.8405,5.7836,5.7579,5.5624,5.4733,5.4672,5.3938,5.3699,5.401,5.4924,5.5407,5.5592,5.5592,5.6079,5.6827,5.7004,5.7571,5.82,5.82,5.866,5.9298,5.9298,5.9338,5.9379,5.9379,5.97,6.0185,6.1172,6.1646,6.2001,6.2652,6.2443,6.1944,6.1233,6.2104,6.2378,5.9989,5.9878,5.9727,5.7861,5.6463,5.5593,5.5593,5.5593,5.5593,5.5593,5.5593,5.5593,5.5618,5.568,5.5907,5.6358,5.6453,5.6747,5.7241,5.769,5.7961,5.8057,5.8484,5.8726,5.8726,5.8726,5.8726,5.8726,5.8726,5.8742,5.8771,5.9,5.9099,5.911,5.9157,5.8648,0.0,0.0,0.0,1.5851,0.0,0.0,0.0,0.0,0.0,0.0,0.0,0.0,0.0,0.0,0.0,0.0,0.0,0.0,0.0,0.0,0.0,0.0,0.0,0.0,5.185,5.2326,5.2488,5.2074,5.2181,5.2932,5.4543,5.3103,5.2808,5.3982,5.3681,5.439,5.6243,5.7122,5.8125,5.9276,5.8877,5.8434,5.7865,5.6779,5.5792,5.4945,5.4419,5.3934,5.3699,5.4126,5.427,5.4174,5.4783,5.5345,5.5851,5.6381,5.6827,5.7311,5.7743,5.8242,5.8692,5.9144,5.9298,5.9298,5.9298,5.9379,5.966,6.0339,6.0875,6.1285,6.1467,6.1702,6.1754,6.116,6.1889,6.2083,5.977,5.9515,5.9186,5.7151,5.6121,5.5593,5.5593,5.5593,5.5593,5.5593,5.5593,5.5593,5.5593,5.5593,5.568,5.5954,5.6001,5.6216,5.6726,5.7051,5.7461,5.7912,5.8239,5.8484,5.8712,5.8726,5.8726,5.8726,5.8726,5.8702,5.8715,5.8834,5.8896,5.8858,5.8166,5.7457,0.0,0.0,0.0,0.0,0.0,0.0,1.5699,1.7483,2.0236,0.0,0.0,0.0,0.0,0.0,0.0,0.0,0.0,0.0,0.0,0.0,0.0,0.0,0.0,0.0,5.3039,5.324,5.3349,5.3013,5.3244,5.4086,5.5691,5.4009,5.303,5.303,5.307,5.3696,5.4984,5.6354,5.7698,5.9084,5.9314,5.8992,5.8207,5.798,5.7033,5.5538,5.5049,5.4476,5.3851,5.3668,5.3433,5.3285,5.4241,5.4641,5.4783,5.5698,5.6109,5.6381,5.7136,5.7614,5.8041,5.8784,5.9144,5.9298,5.9298,5.9298,5.9338,5.954,6.0185,6.0692,6.0333,6.1212,6.1935,6.1204,6.1666,6.169,5.9428,5.8869,5.8179,5.5835,5.5409,5.5434,5.5569,5.5593,5.5593,5.5593,5.5593,5.5593,5.5593,5.5593,5.5593,5.5593,5.5593,5.5752,5.6158,5.6424,5.6869,5.7621,5.7829,5.8162,5.8578,5.8592,5.862,5.8712,5.8726,5.8726,5.8726,5.8726,5.8526,5.8192,5.7021,5.6167,1.4419,1.4646,1.5442,0.0,0.0,0.0,2.5133,2.6082,2.7468,0.0,0.0,0.0,0.0,0.0,0.0,0.0,0.0,0.0,0.0,0.0,0.0,0.0,0.0,0.0,5.3405,5.4745,5.5361,5.4786,5.4788,5.4623,5.4311,5.3524,5.303,5.303,5.2183,5.2754,5.5009,5.5215,5.6566,5.9111,5.9099,5.9211,5.9281,5.8121,5.7584,5.7465,5.5245,5.4376,5.4435,5.3647,5.3136,5.2936,5.3334,5.3433,5.3531,5.3816,5.448,5.5205,5.5314,5.6454,5.7945,5.8041,5.8619,5.9298,5.9298,5.9298,5.9298,5.9338,5.958,5.9865,6.0172,6.0725,6.0806,5.924,5.9701,6.0004,5.7987,5.7406,5.67,5.5053,5.4732,5.4897,5.5519,5.5593,5.5593,5.5593,5.5593,5.5593,5.5593,5.5593,5.5593,5.5593,5.5593,5.5618,5.5656,5.6126,5.651,5.6706,5.7183,5.7658,5.8146,5.8162,5.8352,5.8712,5.8726,5.8726,5.8726,5.8726,5.7932,5.6471,5.6298,5.4738,1.4123,1.4591,1.5166,0.0,0.0,0.0,0.0,2.7183,0.0,0.0,0.0,0.0,0.0,0.0,0.0,0.0,0.0,0.0,0.0,0.0,0.0,0.0,0.0,0.0,0.0,5.359,5.404,5.4653,5.4107,5.378,5.3735,5.3077,5.2798,5.303,5.2072,5.2563,5.472,5.496,5.5874,5.7625,5.8651,5.8854,5.8361,5.8592,5.8405,5.7837,5.6814,5.5697,5.4589,5.4023,5.3743,5.3634,5.3223,5.3136,5.3264,5.3383,5.3767,5.4289,5.483,5.5546,5.6409,5.7571,5.82,5.8577,5.9103,5.9298,5.9298,5.9298,5.9379,5.954,5.9819,6.0101,6.0131,5.9531,5.9203,5.8684,5.7389,5.6435,5.5374,5.3878,5.4166,5.4706,5.4949,5.5324,5.5593,5.5593,5.5593,5.5593,5.5593,5.5593,5.5593,5.5593,5.5593,5.5593,5.5593,5.5872,5.6149,5.6409,5.6824,5.7219,5.7658,5.7948,5.8214,5.8367,5.8592,5.8726,5.8726,5.8726,5.7821,5.6123,5.4243,5.2658,1.3969,0.0,0.0,0.0,0.0,0.0,0.0,0.0,0.0,0.0,0.0,0.0,0.0,0.0,0.0,0.0,0.0,0.0,0.0,0.0,0.0,0.0,0.0,0.0,0.0,0.0,0.0,0.0,5.2701,5.2302,5.2422,5.1986,5.1948,5.2478,5.1834,5.2536,5.4616,5.4853,5.5665,5.7071,5.7982,5.8257,5.7986,5.8646,5.8709,5.832,5.798,5.6729,5.4899,5.4741,5.4262,5.3581,5.3006,5.2836,5.3065,5.3214,5.3383,5.365,5.4385,5.4783,5.5222,5.6663,5.7311,5.7657,5.8326,5.8702,5.8899,5.8899,5.9103,5.9338,5.954,5.958,5.9563,5.9449,5.8361,5.7116,5.6276,5.5055,5.3854,5.2975,5.3547,5.4193,5.4358,5.4932,5.5299,5.5299,5.5459,5.5593,5.5593,5.5593,5.5593,5.5593,5.5593,5.5593,5.5593,5.5691,5.586,5.6216,5.6416,5.6757,5.7164,5.757,5.7919,5.8098,5.8397,5.8592,5.8726,5.811,5.7257,5.6086,5.2845,5.1074,0.0,0.0,0.0,0.0,0.0,0.0,3.3994,0.0,0.0,0.0,0.0,0.0,0.0,0.0,0.0,0.0,0.0,0.0,0.0,0.0,0.0,0.0,0.0,0.0,0.0,0.0,0.0,0.0,5.0792,5.0488,4.9915,4.9844,5.0185,5.0979,5.1334,5.2536,5.4616,5.4591,5.5888,5.8287,5.7191,5.7504,5.9029,5.8041,5.8301,5.9364,5.8121,5.6851,5.5749,5.5749,5.4337,5.2162,5.2389,5.249,5.2541,5.3065,5.3264,5.3313,5.3601,5.4241,5.4988,5.5082,5.5806,5.6605,5.668,5.7267,5.7956,5.7956,5.8619,5.9298,5.9266,5.9298,5.9065,5.8034,5.66,5.5206,5.4169,5.2832,5.1982,5.2558,5.2805,5.3141,5.3789,5.431,5.4618,5.4618,5.5198,5.5593,5.5593,5.5593,5.5593,5.5593,5.5593,5.5593,5.5593,5.5593,5.5667,5.58,5.5931,5.6242,5.6757,5.6921,5.735,5.8098,5.8151,5.8337,5.8726,5.666,5.5847,5.6086,5.2845,5.0517,1.5704,1.8214,2.1036,0.0,2.8808,3.1536,3.5315,0.0,0.0,0.0,0.0,0.0,0.0,0.0,0.0,0.0,0.0,0.0,0.0,0.0,0.0,0.0,0.0,0.0,0.0,0.0,0.0,0.0,0.0,0.0,4.9363,4.9637,4.9842,5.0138,5.0771,5.2288,5.4616,5.464,5.5367,5.6857,5.7463,5.7223,5.6436,5.7925,5.8443,5.8242,5.8618,5.8082,5.6796,5.5082,5.4421,5.4393,5.2807,5.2338,5.249,5.2692,5.2965,5.3264,5.3334,5.3699,5.4222,5.483,5.5252,5.5668,5.6336,5.6783,5.7004,5.7004,5.7657,5.8368,5.8368,5.8857,5.9177,5.8814,5.7058,5.529,5.495,5.3005,5.1451,5.1949,5.24,5.2836,5.3141,5.3697,5.4089,5.4089,5.4581,5.4949,5.4949,5.5299,5.5593,5.5593,5.5593,5.5593,5.5593,5.5593,5.5618,5.5667,5.5788,5.5919,5.6093,5.6567,5.6962,5.72,5.757,5.7302,5.6363,5.5775,5.4505,5.2661,5.1732,5.0479,1.7063,1.9925,0.0,2.7944,3.1557,3.444,3.6609,3.8568,4.008,0.0,0.0,0.0,0.0,0.0,0.0,0.0,0.0,0.0,0.0,0.0,0.0,0.0,0.0,0.0,0.0,0.0,0.0,0.0,0.0,4.9202,4.9202,4.9408,4.9637,4.9774,5.0206,5.1446,5.3284,5.4179,5.5372,5.6837,5.7272,5.6885,5.5593,5.7011,5.7306,5.6798,5.7647,5.7308,5.6035,5.4352,5.3935,5.4253,5.261,5.2191,5.2338,5.244,5.2692,5.2965,5.3115,5.3285,5.3601,5.4174,5.4432,5.467,5.5328,5.5744,5.5988,5.5988,5.6694,5.7528,5.7829,5.8368,5.8899,5.9185,5.8001,5.653,5.5534,5.3538,5.1798,5.1549,5.1916,5.2272,5.2368,5.2864,5.3346,5.3439,5.3858,5.4241,5.433,5.4696,5.5019,5.5224,5.5249,5.5324,5.5569,5.5593,5.5593,5.5593,5.5704,5.5776,5.5776,5.6229,5.6546,5.6757,5.7045,5.6421,5.4878,5.4364,5.3007,5.0859,5.0469,4.9803,1.7594,2.0534,2.3842,2.9555,3.2612,3.4988,0.0,0.0,0.0,0.0,0.0,0.0,0.0,0.0,0.0,0.0,0.0,0.0,0.0,0.0,0.0,0.0,0.0,0.0,0.0,0.0,0.0,0.0,4.8328,4.9202,4.9202,4.9202,4.9339,4.9705,4.9774,5.0138,5.0863,5.3309,5.5665,5.7813,5.6812,5.6363,5.6527,5.5525,5.52,5.5301,5.5222,5.4617,5.361,5.3531,5.2928,5.1996,5.1887,5.191,5.2088,5.2315,5.244,5.2541,5.2764,5.3065,5.3264,5.3264,5.3433,5.365,5.365,5.427,5.4941,5.4941,5.5668,5.6694,5.7571,5.7829,5.8158,5.9022,5.9225,5.8526,5.5899,5.427,5.2927,5.1405,5.1349,5.1483,5.1517,5.1916,5.2332,5.2587,5.307,5.3513,5.3726,5.3818,5.4039,5.452,5.46,5.4845,5.5494,5.5544,5.5569,5.5593,5.5715,5.5752,5.5752,5.5907,5.6197,5.6694,5.6574,5.5691,5.4081,5.2593,5.1434,5.0526,4.9065,4.8596,1.958,2.407,2.7963,3.0877,3.4127,3.6695,0.0,0.0,3.8399,0.0,3.8992,3.9047,0.0,0.0,0.0,0.0,0.0,0.0,0.0,0.0,0.0,0.0,0.0,0.0,0.0,0.0,0.0,0.0,4.8328,4.9202,4.9202,4.9202,4.9202,4.9339,4.9637,4.9865,5.007,5.2048,5.421,5.6592,5.7227,5.7033,5.6244,5.6231,5.5262,5.3601,5.2846,5.2909,5.3453,5.2481,5.2494,5.3017,5.1297,5.1147,5.1886,5.1138,5.1564,5.249,5.2591,5.2764,5.2986,5.2986,5.3136,5.3334,5.3334,5.365,5.401,5.401,5.467,5.5484,5.5684,5.6841,5.7988,5.8242,5.8816,5.8783,5.7053,5.5609,5.4011,5.1599,5.1182,5.1282,5.1483,5.1618,5.1719,5.1818,5.2431,5.2894,5.2958,5.3464,5.3932,5.4039,5.4039,5.4255,5.4819,5.4871,5.5087,5.5569,5.5618,5.5642,5.5642,5.5788,5.5895,5.6024,5.5884,5.4584,5.2069,5.1848,5.0511,4.8134,4.8189,4.8368,1.9238,2.3948,2.8329,3.0532,3.3187,3.5374,3.5608,3.6325,3.7288,3.8228,3.8305,3.8228,3.8381,3.8629,3.901,3.9391,3.9618,0.0,0.0,0.0,0.0,0.0,0.0,0.0,0.0,0.0,0.0,0.0,4.7911,4.9202,4.9202,4.9202,4.9202,4.9202,4.9408,4.9568,4.9774,5.123,5.3061,5.5229,5.7079,5.7325,5.6178,5.5838,5.5022,5.3664,5.2659,5.2371,5.2578,5.1823,5.1977,5.2526,5.0775,5.046,5.1089,5.0555,5.086,5.1616,5.2106,5.249,5.2714,5.2714,5.2836,5.3086,5.3214,5.3334,5.3502,5.3601,5.4029,5.4528,5.4924,5.5821,5.6752,5.7223,5.803,5.8278,5.6844,5.5035,5.334,5.22,5.1463,5.1076,5.1245,5.1245,5.1279,5.1349,5.1719,5.2046,5.2208,5.2652,5.305,5.338,5.3439,5.3639,5.4228,5.4493,5.4758,5.5173,5.5434,5.5593,5.5593,5.5667,5.5739,5.5776,5.5667,5.4152,5.1136,5.1352,4.9982,4.7168,4.757,4.7918,1.8655,2.2472,2.6749,2.9009,3.1197,3.3078,3.4356,0.0,3.6213,0.0,3.7768,3.7596,3.7939,3.8034,3.8323,3.9163,3.9315,3.9467,3.9902,4.0073,0.0,0.0,0.0,0.0,0.0,0.0,0.0,0.0,4.7189,4.8835,4.8835,4.9041,4.9202,4.9202,4.9202,4.9339,4.9705,5.0602,5.1994,5.3686,5.6176,5.7031,5.6348,5.5348,5.4835,5.4787,5.3566,5.2585,5.1706,5.1559,5.1491,5.1395,5.0325,5.0033,5.0118,5.0094,5.0203,5.0491,5.1512,5.2106,5.244,5.244,5.2613,5.2836,5.3115,5.3214,5.3285,5.3502,5.365,5.3816,5.4593,5.4924,5.5252,5.6124,5.6929,5.709,5.5495,5.3475,5.2099,5.2553,5.1669,5.0933,5.0933,5.0933,5.097,5.1078,5.1114,5.1216,5.1585,5.1652,5.1949,5.2619,5.2712,5.3019,5.3639,5.4145,5.4431,5.4592,5.5138,5.5484,5.5593,5.5593,5.5642,5.5788,5.5431,5.3834,5.0936,5.0849,4.9459,4.697,4.7133,4.7396,2.2649,2.4389,2.5586,2.7388,3.1182,3.4278,3.3173,3.514,3.727,3.7519,3.7519,3.7519,3.7596,3.7863,3.8188,3.8341,3.8629,3.8992,3.9467,4.0124,4.0448,4.0054,4.0604,0.0,0.0,0.0,0.0,0.0,0.0,4.7236,4.7236,4.8466,4.9202,4.9202,4.9202,4.9202,4.9271,4.9802,5.0623,5.1805,5.3759,5.5739,5.7569,5.647,5.5885,5.5788,5.3884,5.3001,5.2756,5.1877,5.1521,5.1425,5.0229,4.9878,4.9905,4.9041,4.9426,5.0386,5.0597,5.1305,5.2157,5.2157,5.2338,5.2591,5.2591,5.2915,5.3264,5.3313,5.3482,5.3699,5.3865,5.4432,5.5035,5.5252,5.5407,5.4835,5.2302,5.2576,5.2689,5.0576,5.0578,5.0933,5.0933,5.0933,5.0935,5.097,5.1043,5.1148,5.1216,5.1518,5.1751,5.1916,5.2014,5.2335,5.2989,5.3107,5.3605,5.4573,5.4732,5.5035,5.5569,5.5593,5.5593,5.5618,5.4351,5.2743,5.0936,4.9655,4.819,4.657,4.6914,4.7187,2.1516,2.3482,2.5058,2.5892,2.9263,3.2618,3.3569,3.5062,3.6524,3.7819,3.7822,3.7519,3.7519,3.8031,3.8491,3.8708,3.919,3.9797,4.0306,4.0878,4.119,4.0953,4.151,4.1591,4.0737,0.0,0.0,0.0,0.0,4.6256,4.7478,4.781,4.8328,4.9133,4.9202,4.9202,4.9202,4.9339,5.0086,5.1333,5.2732,5.4649,5.6833,5.6735,5.6542,5.608,5.4543,5.3542,5.3025,5.195,5.151,5.1388,5.0264,4.9482,4.8982,4.8555,4.8481,4.8608,4.9207,5.0199,5.1201,5.1201,5.1695,5.2338,5.244,5.2764,5.3086,5.3214,5.3433,5.365,5.365,5.401,5.4318,5.4318,5.3787,5.2848,5.1268,5.1127,5.0843,4.9273,4.9305,4.9594,4.9594,4.999,5.0383,5.0866,5.1004,5.1043,5.1114,5.125,5.1485,5.1685,5.1752,5.1949,5.2335,5.2681,5.3107,5.3658,5.3999,5.4474,5.5061,5.5087,5.5087,5.5087,5.3865,5.2497,5.0936,4.9352,4.7824,4.6356,4.6534,4.6725,2.0672,2.2896,2.5097,2.5358,2.7246,3.0024,3.3839,3.51,3.6108,3.8024,3.784,3.7323,3.7483,3.8054,3.8614,3.9092,3.9758,4.0443,4.0986,4.1458,4.1821,4.1815,4.2288,4.2403,4.1551,4.2609,4.3364,4.3364,0.0,0.0,4.7072,4.6706,4.7118,4.8628,4.8674,4.8835,4.9202,4.9202,4.9738,5.0863,5.2207,5.3683,5.5203,5.6164,5.6458,5.6225,5.5229,5.4301,5.3298,5.2292,5.1706,5.1412,5.0533,4.9491,4.8505,4.8417,4.7881,4.727,4.7943,4.8963,4.9986,4.9986,5.0755,5.1747,5.1952,5.2411,5.2836,5.3015,5.3285,5.3502,5.3552,5.3552,5.3552,5.3552,5.2844,5.1888,5.0883,5.0106,4.9291,4.8316,4.8291,4.8407,4.8407,4.8907,4.9604,5.0521,5.0831,5.097,5.1078,5.1114,5.1216,5.1551,5.1618,5.1718,5.1851,5.2336,5.2681,5.2866,5.335,5.3898,5.4439,5.433,5.433,5.4439,5.3121,5.184,5.0616,4.8714,4.7239,4.6131,4.6131,4.6269,2.3964,2.5006,2.584,2.6892,2.6648,2.7378,3.2615,3.5608,3.7306,3.7608,3.702,3.6699,3.7394,3.7573,3.7876,3.8606,3.9373,4.0035,4.0443,4.1223,4.1773,4.179,4.255,4.2928,4.2503,4.2587,4.2667,4.2667,4.3308,4.3729,4.3962,4.455,4.5538,4.7026,4.7096,4.7749,4.9179,4.9202,4.9226,4.9366,5.1782,5.2941,5.3131,5.4247,5.5345,5.651,5.5781,5.5084,5.4421,5.3347,5.239,5.1486,5.1388,5.0655,4.9491,4.8592,4.8224,4.8141,4.7295,4.7754,4.8745,4.8745,4.9531,5.0491,5.0544,5.1461,5.2541,5.2541,5.2764,5.2986,5.3235,5.3313,5.3313,5.3313,5.3395,5.2805,5.0377,5.038,5.0086,4.7799,4.7894,4.8407,4.8407,4.8483,4.8787,4.9573,5.0383,5.0935,5.0935,5.1043,5.1148,5.1182,5.1383,5.1584,5.1718,5.1784,5.2112,5.2805,5.2928,5.3261,5.387,5.3346,5.3316,5.3898,5.1183,4.967,4.9533,4.6613,4.5396,4.5753,4.5753,4.5935,2.0568,2.21,2.3607,2.3724,2.606,2.8967,3.185,3.3614,3.5352,3.7751,3.794,3.7751,3.7555,3.8303,0.0,3.9373,4.0413,4.1316,4.1467,4.2094,4.2506,4.2468,4.3298,4.3606,4.2965,4.3117,4.3281,4.3281,4.3044,4.3331,4.4327,4.4149,4.4486,4.5559,4.5538,4.6249,4.7749,4.7749,4.8258,4.9202,5.0816,5.1567,5.1614,5.36,5.4741,5.5294,5.5885,5.5681,5.4746,5.3271,5.2215,5.151,5.151,5.0801,4.9711,4.9296,4.8387,4.732,4.6898,4.7065,4.7531,4.7531,4.8362,4.9315,4.9315,5.0278,5.1405,5.1405,5.2151,5.2886,5.2986,5.3164,5.3264,5.3264,5.3334,5.2708,5.0297,5.0034,4.9481,4.6893,4.6693,4.6908,4.6908,4.734,4.7776,4.8128,4.9305,5.0312,5.0866,5.097,5.1076,5.1114,5.1214,5.1384,5.1718,5.1685,5.1884,5.2271,5.2303,5.2367,5.2558,5.2681,5.2897,5.3261,5.0721,4.9376,4.9376,4.6364,4.498,4.5224,4.552,4.574,1.888,2.0248,2.1945,2.188,2.4915,2.8572,3.0887,3.2134,3.3841,3.7612,3.8118,3.7851,3.7573,3.8624,0.0,3.9836,4.1124,4.2173,4.2173,4.252,4.2779,4.2952,4.3555,4.3847,4.3522,4.3717,4.3968,4.4033,4.3357,4.3271,4.4178,4.3329,4.318,4.3995,4.4047,4.4749,4.6178,4.6652,4.7377,4.8466,5.002,5.0722,5.0768,5.2532,5.3691,5.4327,5.5436,5.5682,5.5159,5.3831,5.2621,5.1748,5.1565,5.1021,5.0288,4.9881,4.8637,4.7075,4.6758,4.6473,4.6282,4.6282,4.7108,4.8086,4.8086,4.9045,5.017,5.0515,5.1353,5.2202,5.2635,5.2354,5.2072,5.2455,5.2556,5.2185,5.0604,4.9915,4.9003,4.6839,4.6155,4.5864,4.5864,4.6394,4.6956,4.7199,4.8167,4.9199,5.0093,5.0201,5.0312,5.06,5.0635,5.0875,5.1518,5.1551,5.1586,5.1785,5.1785,5.1752,5.1618,5.2144,5.2431,5.2526,5.0072,4.8806,4.8833,4.5835,4.4483,4.4679,4.5038,4.5328,2.0721,2.0995,2.1646,2.2844,2.3157,2.4527,2.9547,3.1731,3.3584,3.6816,3.6931,3.6628,3.7376,3.8196,0.0,3.9765,4.1124,4.2173,4.2173,4.2173,4.2347,4.2866,4.2952,4.3297,4.4222,4.4308,4.4478,4.4885,4.4127,4.3395,4.2659,4.1743,4.162,4.2404,4.2363,4.3172,4.4698,4.6178,4.6863,4.6885,4.948,5.0722,5.0722,5.0745,5.1914,5.3877,5.4304,5.502,5.5895,5.523,5.4023,5.2404,5.1791,5.151,5.1339,5.015,4.9101,4.8037,4.7026,4.5904,4.4918,4.4918,4.5822,4.6851,4.6851,4.7698,4.8854,4.9986,5.0386,5.0702,5.2106,5.078,4.9315,5.0515,5.0934,5.1196,5.1251,5.0272,4.9066,4.8016,4.6723,4.5864,4.5864,4.5864,4.6157,4.7078,4.7239,4.756,4.833,4.8407,4.875,4.95,4.9573,4.9971,5.1045,5.1114,5.1248,5.1483,5.1517,5.1517,5.1517,5.1651,5.1751,5.1751,4.8902,4.7519,4.7636,4.4607,4.3531,4.4122,4.4148,4.4418,1.9309,2.0122,2.1125,2.2204,2.3751,2.6325,3.1313,3.3129,3.4456,3.6999,3.6913,3.661,3.7376,3.9052,0.0,0.0,4.1462,4.2173,4.2173,4.2173,4.2242,4.2433,4.2779,4.3038,4.3383,4.3622,4.3965,4.4478,4.4253,4.3914,4.3414,4.3129,4.2472,4.1582,4.1601,4.205,4.3099,4.3589,4.4799,4.6885,4.7692,4.8062,4.8155,4.9877,5.1096,5.1797,5.3394,5.4215,5.4548,5.4571,5.387,5.266,5.1538,5.1242,5.1461,5.1095,5.0288,4.9125,4.81,4.6965,4.6001,4.5161,4.5185,4.5534,4.5534,4.6428,4.7501,4.7835,4.8553,4.9234,4.9718,4.9288,4.8828,4.9423,5.0223,5.0653,5.0014,5.0167,5.0066,4.8848,4.769,4.6971,4.6971,4.6347,4.5948,4.6269,4.6834,4.732,4.7569,4.8089,4.8483,4.875,4.9242,4.9786,5.0316,5.0806,5.1248,5.1483,5.1245,5.1177,5.1248,5.1282,5.1384,5.1584,4.865,4.7182,4.7213,4.4464,4.3258,4.3444,4.3915,4.4225,1.9026,2.0079,2.1303,2.3028,2.4471,2.6432,3.0508,3.2119,3.3354,3.5304,3.538,3.5469,3.6824,3.9248,4.0941,4.0638,4.1444,4.2173,4.2173,4.2173,4.2173,4.2173,4.2433,4.2779,4.2952,4.3193,4.3537,4.3965,4.4241,4.4056,4.3564,4.3692,4.2996,4.1247,4.1191,4.1294,4.1514,4.2088,4.3298,4.5158,4.5158,4.573,4.6885,4.7959,4.8956,4.9936,5.0945,5.2027,5.3046,5.362,5.3708,5.3368,5.2135,5.1494,5.1309,5.1443,5.0533,4.9101,4.8466,4.7209,4.5904,4.5137,4.4918,4.4918,4.4918,4.5476,4.6199,4.6712,4.7389,4.7809,4.7363,4.7169,4.7363,4.8005,4.8719,4.9342,4.9708,4.997,4.9916,4.9143,4.8039,4.7169,4.6811,4.6233,4.5809,4.5894,4.6352,4.6723,4.6723,4.7109,4.7469,4.7469,4.8183,4.9013,4.9714,5.0248,5.0737,5.1245,5.0732,5.0627,5.1009,5.108,5.1214,5.1349,4.8459,4.6966,4.7028,4.4287,4.3036,4.318,4.3551,4.3758,1.9681,2.0567,2.1891,2.4698,2.5215,2.56,2.8012,2.9674,3.1067,3.2493,3.2778,3.3455,3.5719,3.8624,4.0549,4.0121,4.116,4.2102,4.2156,0.0,4.2173,4.2173,4.2173,4.2347,4.2866,4.2866,4.3038,4.3451,4.3965,4.3905,4.3242,4.3537,4.3028,4.1437,4.1323,4.0946,4.0148,4.1534,4.2236,4.2236,4.231,4.3808,4.644,4.5252,4.5942,4.8146,4.7599,4.8799,5.1326,5.233,5.3365,5.4088,5.3198,5.2112,5.0984,5.1334,5.0174,4.8379,4.8232,4.6868,4.5113,4.4967,4.4918,4.4918,4.4918,4.4918,4.5127,4.6371,4.6712,4.6428,4.5185,4.4918,4.521,4.6453,4.6769,4.7475,4.9905,4.9584,4.8813,4.8936,4.7908,4.6759,4.5903,4.5729,4.5669,4.5822,4.5864,4.5864,4.5864,4.5864,4.5864,4.5864,4.6641,4.7737,4.9279,4.939,4.9782,5.0691,4.9998,4.9962,5.0796,5.1009,5.1114,5.1114,4.8298,4.6905,4.6997,4.4019,4.277,4.3092,4.3152,4.3203,1.9094,1.9674,2.0417,2.2445,2.5427,2.8287,3.0165,3.1511,3.2243,3.2029,3.1928,3.2332,3.3473,3.5755,3.8392,4.1142,4.1409,4.1547,4.2085,4.2173,4.2173,4.2173,4.2173,4.226,4.2347,4.2329,4.2607,4.3038,4.3211,4.3291,4.3432,4.3942,4.3746,4.2733,4.2417,4.1838,4.0906,4.0681,4.0561,4.0636,4.1791,4.2732,4.3444,4.4337,4.5021,4.5639,4.6122,4.7157,4.8547,5.0896,5.1958,5.2102,5.2685,5.2185,5.1232,5.1085,5.0926,5.0533,4.8808,4.7842,4.7136,4.5454,4.4918,4.4918,4.4918,4.4918,4.4976,4.5243,4.536,4.5302,4.4952,4.4918,4.4952,4.5302,4.611,4.6995,4.7642,4.8261,4.8672,4.8697,4.7729,4.6822,4.6639,4.5898,4.5457,4.5669,4.5712,4.5754,4.5864,4.5864,4.5864,4.5864,4.6061,4.6611,4.7658,4.7807,4.8128,4.8931,4.9348,4.9646,4.989,5.0559,5.097,5.097,4.8167,4.6716,4.6716,4.393,4.2625,4.2714,4.3036,4.318,1.927,2.0124,2.067,2.0832,2.3228,2.5968,2.753,2.8828,2.9749,2.999,3.0043,3.0782,3.2974,3.3544,3.5202,3.9808,0.0,4.0781,4.1583,4.1924,4.2173,0.0,0.0,4.2173,4.2173,4.2173,4.2347,4.2607,4.2866,4.3038,4.3297,4.3708,4.3698,4.3148,4.2928,4.228,4.121,4.0813,4.0566,4.0566,4.1036,4.1643,4.2363,4.2531,4.2952,4.3652,0.0,4.4811,4.653,4.8348,5.0268,5.1951,5.123,5.1356,5.1829,5.0441,5.0405,5.0732,4.9217,4.8131,4.7319,4.6063,4.5332,4.4918,4.4918,4.4918,4.4918,4.4918,4.4918,4.4918,4.4918,4.4918,4.4918,4.4918,4.5418,4.611,4.6712,4.7332,4.7764,4.7706,4.683,4.6061,4.6053,4.5128,4.4624,4.5372,4.5613,4.5656,4.5598,4.5767,4.5852,4.5796,4.5852,4.6074,4.6559,4.6997,4.744,4.7816,4.8283,4.8674,4.9019,4.9521,4.9772,4.9772,4.8006,4.6775,4.6105,4.4308,4.3157,4.2596,4.277,4.2915,1.9606,2.0758,2.1315,1.9965,2.0759,2.2227,2.3611,2.491,2.6246,2.7576,2.801,2.9178,3.2332,3.1709,3.2172,3.6735,3.8456,3.9694,0.0,0.0,4.2173,4.2173,0.0,4.2173,4.2173,4.2173,4.2173,4.2173,4.2607,4.2866,4.2866,4.3193,4.331,4.315,4.3103,4.262,4.151,4.151,4.1377,4.1191,4.0528,4.0827,4.194,4.0636,4.0767,4.198,0.0,4.2375,4.463,4.565,4.835,5.1638,4.9444,5.0014,5.1759,4.9634,4.9272,4.9859,4.9513,4.8338,4.7014,4.6758,4.5941,4.5137,4.4967,4.4918,4.4918,4.4918,4.4918,4.4918,4.4918,4.4918,4.4918,4.4918,4.4918,4.521,4.6339,4.6567,4.6489,4.6399,4.5655,4.5017,4.4833,4.3994,4.3685,4.4811,4.52,4.5329,4.5286,4.5598,4.5767,4.5698,4.5796,4.5852,4.5864,4.66,4.7037,4.7037,4.7037,4.737,4.8175,4.8245,4.8291,4.8407,4.7562,4.6536,4.5306,4.4387,4.3321,4.2249,4.2249,4.2393,1.9068,1.9742,2.0374,2.0574,2.1487,2.2695,2.3697,2.4924,2.5979,2.631,2.7335,2.8179,2.8072,2.9962,3.1584,3.1726,3.4649,0.0,3.9765,4.1249,4.2173,4.2173,4.2173,0.0,4.2173,4.2173,4.2173,4.2173,4.226,4.2347,4.2347,4.2779,4.307,4.2961,4.3047,4.3082,4.2838,4.282,4.2288,4.1191,4.1077,4.0757,4.0411,4.0129,4.0204,4.043,0.0,0.0,4.1985,4.4275,4.6088,4.7343,4.8238,4.8469,4.8312,4.8664,4.8398,4.8074,4.9584,4.9579,4.858,4.7123,4.6538,4.6221,4.521,4.4918,4.4918,4.4918,4.4918,4.4918,4.4918,4.4918,4.4918,4.4918,4.4918,4.4976,4.5127,4.5185,4.5194,4.5196,4.5014,4.4669,4.3757,4.3358,4.3294,4.3585,4.3671,4.407,4.5157,4.5372,4.5457,4.5656,4.5698,4.5754,4.5894,4.599,4.6103,4.6103,4.6103,4.6447,4.74,4.744,4.7728,4.8368,4.6058,4.4708,4.4492,4.2159,4.0956,4.0739,4.0865,4.1236,1.9015,1.9776,2.0404,2.0369,2.0781,2.1582,2.3154,2.4203,2.5219,2.6451,2.7137,2.7823,2.8714,2.9035,3.0015,3.2635,3.4204,3.6075,0.0,0.0,4.1761,4.212,4.2173,4.2173,0.0,4.2173,4.2173,4.2173,4.2173,4.2173,4.2173,4.2433,4.2693,4.2952,4.3035,4.3173,4.3343,4.3252,4.2984,4.2536,4.1626,4.0982,4.0661,4.0263,4.0053,0.0,0.0,0.0,4.1307,4.253,4.4296,4.6273,4.605,4.6832,4.7931,4.7055,4.7142,4.7978,4.8581,4.9079,4.9266,4.767,4.6915,4.644,4.5259,4.4918,4.4918,4.4918,4.4918,4.4918,4.4918,4.4918,4.4918,4.4918,4.4918,4.4918,4.4918,4.4918,4.4918,4.4918,4.4441,4.3912,4.3404,4.2783,4.2347,4.2397,4.2512,4.2786,4.3239,4.3481,4.3821,4.4362,4.4537,4.4956,4.5683,4.5641,4.5556,4.5556,4.5712,4.5965,4.6382,4.6435,4.6652,4.7029,4.6295,4.5187,4.3669,4.2914,4.1803,4.0421,4.0486,4.0676,1.9924,0.0,2.1433,2.1164,2.0918,2.1214,0.0,2.3556,2.4266,2.5972,2.6578,2.722,2.8933,2.8183,2.8655,3.2913,3.3336,3.4346,3.7638,3.9194,0.0,4.1711,4.1889,4.196,4.2138,4.2173,4.2173,4.2173,4.2173,4.2173,4.2173,4.2173,4.2329,4.2779,4.2779,4.2952,4.3365,4.3269,4.3381,4.359,4.2195,4.1399,4.1172,4.0376,4.0053,0.0,0.0,0.0,4.0984,4.1115,4.2781,4.4989,4.4078,4.514,4.7028,4.5726,4.5955,4.708,4.7081,4.7743,4.8556,4.7817,4.7234,4.6636,4.5332,4.4918,4.4918,4.4918,4.4918,4.4918,4.4918,4.4918,4.4918,4.4918,4.4918,4.4918,4.4918,4.4918,4.4918,4.4918,4.426,4.3542,4.3081,4.2262,4.1561,4.1275,4.1397,4.1538,4.1585,4.1858,4.232,4.2968,4.3374,4.407,4.5129,4.4783,4.4537,4.4552,4.4999,4.5243,4.5329,4.5641,4.5822,4.5864,4.6559,4.5747,4.3393,4.3337,4.218,3.9904,3.9904,4.0002,0.0,2.33,2.3816,2.4262,2.3652,2.3048,2.3708,2.3225,0.0,2.3646,2.4959,2.5855,2.5514,2.6917,2.8231,2.8761,2.9927,3.2101,0.0,3.6628,0.0,0.0,4.1119,0.0,4.2085,4.2173,4.2173,4.2173,4.2173,4.2173,4.2173,4.2173,4.2173,4.226,4.226,4.252,4.2952,4.331,4.3435,4.3194,4.272,4.2028,4.1172,4.0376,4.0053,0.0,0.0,0.0,0.0,4.0946,4.1345,4.167,4.3148,4.3444,4.3256,4.5227,4.5126,4.4038,4.5463,4.5714,4.5637,4.6987,4.748,4.7212,4.5433,4.4918,4.4918,4.4918,4.4918,4.4918,4.4918,4.4918,4.4918,4.4918,4.4918,4.4918,4.4918,4.4918,4.4918,4.4918,4.4845,4.4195,4.223,4.1814,4.1402,4.0343,4.0207,4.0519,4.1491,4.1631,4.1772,4.2051,4.2877,4.3536,4.3849,4.2877,4.2255,4.2385,4.3302,4.3982,4.423,4.52,4.5754,4.5864,4.5948,4.5307,4.4036,4.1683,3.9785,3.8448,3.8448,3.8799,2.3816,2.4508,2.4884,2.4731,2.4403,2.4056,2.3956,2.3696,2.3497,2.3276,2.3948,2.4594,2.487,2.5656,2.7053,2.9527,3.0763,3.2364,3.5303,0.0,0.0,3.9434,0.0,0.0,0.0,4.2173,4.2173,4.2173,4.2173,4.2173,4.2173,4.2173,4.2173,4.2173,4.2173,4.2433,4.2952,4.3125,4.3408,4.3859,4.3221,4.2639,4.2028,4.1193,4.049,0.0,0.0,0.0,0.0,4.0338,4.0794,4.1266,4.1892,4.2654,4.3363,4.3702,4.4078,4.4422,4.4393,4.46,4.4964,4.573,4.5602,4.5054,4.5132,4.3936,4.2462,4.1995,4.1873,4.2056,4.2888,4.3248,4.363,4.4448,4.4801,4.4918,4.4918,4.4918,4.4918,4.4918,4.4918,4.4455,4.3024,4.2219,4.1428,4.0319,3.9528,3.9205,3.9647,3.9671,3.9914,4.0711,4.1066,4.1302,4.1397,4.1631,4.1772,4.1838,4.2347,4.2695,4.2786,4.3893,4.4493,4.4552,4.5186,4.5396,4.5088,4.2498,4.0191,3.8309,3.8309,3.8419,2.5294,2.5822,2.6151,2.5764,2.5552,2.5192,2.4341,2.3883,2.3459,2.3138,2.3205,2.3563,2.4572,2.5167,2.646,2.9658,3.049,3.1995,0.0,0.0,0.0,3.93,4.0804,4.1782,0.0,0.0,4.2173,4.2173,4.2173,4.2173,4.2173,4.2173,4.2173,4.2173,4.2173,4.2347,4.2693,4.2866,4.3297,4.388,4.3252,4.2681,4.2261,4.1431,4.0659,0.0,0.0,0.0,0.0,4.0053,4.0319,4.0889,4.1096,4.1892,4.2977,4.2939,4.3474,4.4079,4.3487,4.3345,4.371,4.411,4.3569,4.3033,4.4296,4.31,4.1062,4.0554,4.0264,4.0274,4.1139,4.1896,4.2647,4.3653,4.433,4.4801,4.4859,4.4918,4.4918,4.4918,4.4918,4.4577,4.3504,4.2756,4.1804,4.0441,3.9561,3.89,3.8534,3.8485,3.8734,3.9476,3.9868,3.9916,3.9574,4.023,4.0637,4.0637,4.1113,4.1397,4.1491,4.2604,4.3194,4.3257,4.3954,4.4252,4.4073,4.2209,4.0267,3.8296,3.8307,3.8309,2.6902,2.7406,2.7793,2.7793,2.7406,2.6632,2.5048,2.3511,2.2478,2.2812,2.2638,2.2762,2.4234,2.541,2.6693,2.8274,2.8444,3.0526,3.6569,3.6115,3.6648,0.0,0.0,4.1048,4.1048,4.1693,4.2156,4.2173,4.2173,0.0,4.2173,4.2173,4.2173,4.2173,4.2173,4.2173,4.2173,4.2693,4.2952,4.2952,4.2578,4.2186,4.1778,4.0975,4.0446,4.0053,0.0,0.0,0.0,4.0053,4.0053,4.0129,4.0927,4.1191,4.1399,4.3129,4.3224,4.2522,4.2522,4.1971,4.135,4.2089,4.1831,4.1512,4.3042,4.2411,4.1195,4.1175,4.0638,3.9984,3.9962,4.0955,4.2018,4.2466,4.3534,4.4531,4.4801,4.4859,4.4859,4.4918,4.4918,4.4577,4.3561,4.3366,4.2658,4.0563,4.0221,3.9806,3.8631,3.8485,3.8485,3.8485,3.9427,3.9623,3.8585,3.8485,3.8485,3.8485,3.9476,4.0159,4.0375,4.1397,4.2024,4.2155,4.2175,4.1638,4.0625,4.0359,3.9588,3.8284,3.8288,3.8274,2.7429,2.7676,2.7793,2.7793,2.7676,2.7066,2.513,2.3793,2.2697,2.2089,2.1282,2.1162,2.259,2.3145,2.395,2.5724,2.6965,2.9129,3.3098,3.5352,3.7461,0.0,0.0,4.0453,0.0,4.0851,4.0815,4.2069,4.2173,4.2173,4.2173,4.2173,4.2173,4.2173,4.2173,4.2173,4.2173,4.2347,4.2607,4.2952,4.2802,4.2614,4.2223,4.1653,4.1073,4.0406,4.0168,0.0,0.0,4.0053,4.0053,4.0072,4.0339,4.0737,4.1247,4.1759,4.1778,4.157,4.157,4.1079,4.0472,4.0638,4.0593,4.0454,4.0972,4.032,3.9328,3.8761,3.7951,3.7207,3.6613,3.7642,3.9084,4.0149,4.1055,4.1873,4.2684,4.3248,4.3725,4.4507,4.4801,4.482,4.4503,4.3821,4.2902,4.1565,4.071,3.9806,3.8631,3.8485,3.8485,3.8485,3.8734,3.8834,3.8485,3.8485,3.8485,3.8485,3.8784,3.8983,3.9082,4.0085,4.0663,4.0685,4.1417,4.1326,4.036,3.9415,3.8452,3.7472,3.6503,3.6429,2.7711,2.7793,2.7793,2.7793,2.7793,2.7242,2.5165,2.391,2.2811,2.1799,2.0897,2.0706,2.1919,2.2476,2.3378,2.5239,2.6313,2.8199,3.1766,3.3922,3.5889,3.7944,3.829,0.0,0.0,0.0,4.0168,4.2069,4.2173,4.2173,4.2173,4.2173,4.2173,4.2173,4.2173,4.2173,4.2173,4.2173,4.2347,4.2607,4.2607,4.245,4.2073,4.1847,4.1343,4.0565,4.0352,0.0,0.0,4.0053,4.0053,4.0053,4.0053,4.0301,4.0794,4.1077,4.1191,4.1191,4.1191,4.0927,4.0433,4.0167,4.0053,4.0053,4.0053,3.937,3.8535,3.7719,3.6884,3.598,3.5147,3.5756,3.6889,3.8324,3.9377,4.0252,4.1016,4.1507,4.22,4.3451,4.3891,4.4164,4.4776,4.4382,4.3634,4.256,4.1487,4.0465,3.9341,3.8778,3.8485,3.8485,3.8485,3.8485,3.8485,3.8485,3.8485,3.8485,3.8485,3.8485,3.8485,3.9082,3.9427,3.9427,4.0037,3.9675,3.8315,3.8015,3.7097,3.567,3.5323,3.5451,2.7793,2.7793,2.7793,2.7793,2.7793,2.7242,2.5165,2.3945,2.2883,2.1874,2.1185,2.1001,2.2005,2.2949,2.4221,2.6096,2.6322,2.7724,3.1901,3.222,3.2957,0.0,0.0,0.0,0.0,0.0,0.0,0.0,4.2069,4.2173,4.2173,4.2173,4.2087,4.1895,4.2087,4.2173,4.2173,4.2173,4.2173,4.2173,4.2173,4.1972,4.1697,4.1625,4.1306,4.0729,4.0658,0.0,0.0,4.0091,4.0053,4.0053,4.0053,4.0053,4.0148,4.087,4.1077,4.1077,4.1077,4.1077,4.0944,4.032,4.0053,4.0053,4.0053,3.937,3.8535,3.7719,3.6884,3.598,3.5147,3.5004,3.5381,3.6889,3.8217,3.921,3.965,3.9837,4.0336,4.1957,4.2345,4.2828,4.4223,4.4541,4.4179,4.3172,4.2217,4.1203,4.021,3.9142,3.8435,3.8335,3.8335,3.8409,3.8485,3.8485,3.8485,3.8485,3.8485,3.8485,3.8485,3.8485,3.8485,3.8485,3.8485,3.746,3.5386,3.6312,3.5616,3.3351,3.4406,3.4874,2.7793,2.7793,2.7793,2.7793,2.7793,2.7242,2.5165,2.4215,2.3404,2.2423,2.1143,2.0631,2.2051,2.2496,2.3033,0.0,2.5827,2.785,3.07,3.1679,0.0,0.0,0.0,0.0,0.0,0.0,0.0,0.0,0.0,0.0,4.2173,4.2173,4.153,4.008,4.1443,4.2173,4.2173,4.2173,4.2173,4.2173,4.2173,4.2171,4.2061,4.169,4.1492,4.1342,4.0825,0.0,0.0,4.0186,4.0053,4.0053,4.0053,4.0053,4.0072,4.0263,4.0339,4.0339,4.0339,4.0339,4.0225,4.011,4.0053,4.0053,4.0053,3.937,3.8535,3.7719,3.6884,3.598,3.5147,3.5004,3.507,3.5447,3.5953,3.665,3.7385,3.809,3.8831,3.99,4.0562,4.0972,4.134,4.163,4.1517,4.0457,4.0283,3.9895,3.8859,3.8578,3.8208,3.7369,3.7267,3.7601,3.8385,3.8485,3.8485,3.8485,3.8485,3.8485,3.8485,3.8485,3.8485,3.8485,3.8485,3.746,3.5386,3.559,3.4549,3.2365,3.2605,3.3097,2.7793,2.7793,2.7793,2.7793,2.7793,2.7383,2.581,0.0,0.0,2.3,2.2104,2.1637,2.1947,2.2768,0.0,2.4215,2.5795,2.7527,0.0,0.0,0.0,0.0,0.0,0.0,0.0,0.0,0.0,0.0,0.0,4.1356,3.957,3.9482,3.9482,3.9449,4.036,4.1269,4.2173,4.2173,4.2173,4.2173,4.2173,4.2173,4.2156,4.2004,4.178,4.16,4.0858,0.0,4.0352,3.9957,3.977,3.977,3.9978,4.0053,4.0053,4.0053,4.0053,4.0053,4.0053,4.0053,4.0053,4.0053,4.0053,4.0053,4.0053,3.9105,3.8042,3.7605,3.6599,3.5469,3.5118,3.5004,3.5004,3.5004,3.5136,3.5381,3.5887,3.6325,3.7018,3.8281,3.881,3.9314,4.0127,4.0398,4.0429,3.996,3.9491,3.8853,3.8297,3.7372,3.6556,3.6136,3.6107,3.6551,3.7652,3.7753,3.7956,3.8435,3.8485,3.8485,3.8485,3.8485,3.8485,3.8485,3.8021,3.6972,3.5386,3.4873,3.3751,3.2074,3.2074,3.2324,2.777,2.7793,2.7793,2.7793,2.7793,2.7523,2.6503,2.5951,0.0,0.0,2.3441,2.3171,2.2303,2.3687,2.5001,2.5083,2.6409,2.7559,0.0,0.0,2.8861,0.0,0.0,0.0,0.0,0.0,0.0,0.0,0.0,3.9834,3.6699,3.6177,3.6967,3.892,3.8655,3.9465,4.1721,4.2069,4.2173,4.2173,4.2173,4.2173,4.2173,4.2173,4.199,4.1649,4.0841,0.0,4.0046,3.9553,3.9391,3.9467,3.9827,3.9978,4.0053,4.0053,4.0053,4.0053,4.0053,4.0053,4.0053,4.0053,4.0053,4.0053,4.0053,3.8893,3.7491,3.7491,3.6295,3.5004,3.5004,3.5004,3.5004,3.5004,3.5004,3.5004,3.5004,3.5004,3.5381,3.6824,3.7148,3.7642,3.9021,3.9273,3.9399,3.9607,3.8596,3.7724,3.7686,3.5703,3.444,3.4768,3.4799,3.5297,3.6523,3.6574,3.6936,3.7881,3.7932,3.8033,3.8184,3.8184,3.8284,3.8485,3.746,3.6412,3.5386,3.4312,3.3214,3.2074,3.2074,3.2074,2.7676,2.7793,2.7793,2.7793,2.7793,2.7523,2.6503,2.6221,2.5846,2.4719,0.0,2.445,2.4309,2.5259,2.6209,2.6655,0.0,2.8919,2.8556,2.8884,2.9116,2.8765,2.9121,2.9863,3.0841,3.2858,3.4223,3.4752,3.6357,3.7056,3.652,3.4932,3.4932,3.6878,3.5278,3.6177,3.9817,4.1356,4.2173,4.2173,4.2173,4.2173,4.2173,4.2173,4.2207,4.2011,4.0928,4.0452,4.0316,3.9234,3.9068,3.9467,3.9543,3.9751,4.0053,4.0053,4.0053,4.0053,4.0053,4.0053,4.0053,4.0053,4.0053,4.0053,4.0053,3.8893,3.7491,3.7491,3.6295,3.5004,3.5004,3.5004,3.5004,3.5004,3.5004,3.5004,3.5004,3.5004,3.507,3.5269,3.5579,3.5887,3.6149,3.6344,3.6475,3.654,3.5982,3.5679,3.587,3.3868,3.2669,3.3238,3.3317,3.3912,3.5275,3.52,3.5253,3.5591,3.5643,3.6084,3.7113,3.7165,3.755,3.8485,3.746,3.6412,3.5386,3.4312,3.3214,3.2074,3.2074,3.2074,2.6578,2.72,2.7793,2.7793,2.7793,2.7676,2.723,2.7124,2.6913,2.6162,2.601,0.0,2.5259,0.0,0.0,0.0,0.0,0.0,2.818,2.8345,2.8499,0.0,2.9028,0.0,3.1471,3.2844,3.4041,0.0,3.4013,3.3286,3.3286,3.2493,3.2401,3.3195,3.3496,3.448,3.6177,3.9113,4.0623,4.0623,4.0623,4.0097,3.9025,4.0185,4.04,4.004,0.0,3.9866,3.9382,3.8641,3.8629,3.9068,3.9315,3.9694,4.0053,4.0053,4.0053,4.0053,4.0053,4.0053,4.0053,4.0053,4.0053,3.9958,3.9408,3.844,3.7396,3.6922,3.5934,3.5004,3.5004,3.5004,3.5004,3.5004,3.5004,3.5004,3.5004,3.5004,3.5004,3.5004,3.5136,3.5269,3.5269,3.5334,3.5466,3.5729,3.4982,3.4176,3.3484,3.2106,3.1382,3.1828,3.1843,3.2375,3.3675,3.3653,3.3976,3.4883,3.4989,3.5275,3.5927,3.5927,3.6188,3.6631,3.5123,3.4099,3.3634,3.2074,3.1335,3.131,3.131,3.1588,2.5703,2.6463,2.735,2.7665,2.7793,2.7793,2.7793,2.7793,2.7688,2.73,2.723,2.6995,0.0,0.0,0.0,2.6902,2.7617,0.0,2.8016,2.811,0.0,2.8388,0.0,2.985,3.1747,3.2401,0.0,0.0,3.2296,3.0682,3.0682,3.0682,3.0682,3.0682,3.214,3.3132,3.3587,3.6536,3.8212,3.8743,3.8743,3.7946,3.661,3.8567,3.9065,3.8348,3.895,3.8778,3.8024,3.7547,3.7596,3.8133,3.8916,3.96,4.0053,4.0053,4.0053,4.0016,3.9749,3.9919,4.0339,4.0129,4.0053,3.9882,3.8972,3.8136,3.732,3.6397,3.5563,3.5004,3.5004,3.5004,3.5004,3.5004,3.5004,3.5004,3.5004,3.5004,3.5004,3.5004,3.5004,3.5004,3.5004,3.5004,3.4994,3.5112,3.4191,3.306,3.1732,3.0985,3.0596,3.0765,3.0822,3.1195,3.2134,3.2169,3.2609,3.3707,3.3815,3.4051,3.4639,3.4639,3.4688,3.4865,3.3144,3.2138,3.194,3.0171,2.9696,3.0346,3.0604,3.1098,2.5635,2.5961,2.6074,2.7478,2.7793,2.7793,2.7793,2.7793,2.7781,2.7758,2.7758,2.7735,0.0,0.0,2.791,2.8403,2.8943,2.9119,2.8638,2.8978,2.8919,0.0,0.0,0.0,0.0,0.0,0.0,3.0485,0.0,3.0682,3.0682,3.0682,3.0682,3.0682,3.0761,3.1773,3.3587,3.386,3.4827,3.6699,3.6699,3.661,3.661,3.8567,3.9065,3.8262,3.7681,3.7044,3.6243,3.5458,3.5608,3.6463,3.8057,3.9296,4.0053,4.0053,4.0053,3.994,3.8925,3.9687,4.1001,4.0244,4.0053,3.9882,3.8972,3.8136,3.732,3.6397,3.5563,3.5004,3.5004,3.5004,3.5004,3.5004,3.5004,3.5004,3.5004,3.5004,3.5004,3.5004,3.5004,3.5004,3.5004,3.5004,3.4739,3.4024,3.3125,3.2252,3.14,3.087,3.0521,3.054,3.0521,3.0653,3.099,3.0746,3.0746,3.1102,3.1083,3.1732,3.3121,3.3175,3.3375,3.3887,3.2858,3.185,3.098,2.9881,2.9367,2.9455,3.0326,3.0733,2.4356,2.5242,2.6288,2.7489,2.7793,2.7793,2.7793,2.7793,2.7793,2.7793,2.7793,2.7793,2.7793,2.7793,2.7852,2.8051,2.8239,2.8286,2.811,2.8239,2.8216,2.784,2.8271,2.8656,0.0,0.0,0.0,3.0115,3.0498,3.0682,3.0682,3.0682,3.0682,3.0682,3.0682,3.1038,3.1773,3.3041,3.3951,3.4661,3.4661,3.4027,3.2844,3.4827,3.5124,3.4067,3.5082,3.4825,3.3856,3.4628,3.4654,3.4324,3.6058,3.6601,3.6541,3.6841,3.7945,3.9007,3.7018,3.775,3.9263,3.7423,3.6772,3.6545,3.5342,3.5362,3.5648,3.4404,3.4527,3.5004,3.5004,3.5004,3.5004,3.5004,3.5004,3.5004,3.5004,3.5004,3.5004,3.5004,3.5004,3.5004,3.5004,3.5004,3.4739,3.3922,3.2593,3.1379,3.0524,3.0278,3.0144,3.0144,3.0144,3.02,3.0257,3.02,3.0276,3.0653,3.0653,3.0971,3.1621,3.1823,3.1707,3.1349,3.0609,2.979,2.8917,2.779,2.7691,2.8479,2.8614,2.9146,2.3752,2.4726,2.5988,2.7022,2.7535,2.7793,2.7793,2.7793,2.7793,2.7793,2.7793,2.7793,2.7793,2.7793,2.7793,2.7793,2.7793,2.7793,2.7793,2.7793,2.7793,2.7793,2.8073,0.0,0.0,0.0,0.0,2.985,3.03,3.0577,3.0682,3.0682,3.0682,3.0682,3.0682,3.0682,3.0682,3.1957,3.2676,3.2676,3.2676,3.1957,3.0761,3.2545,3.2782,3.1772,3.2788,3.2671,3.1662,3.2856,3.2825,3.2349,3.4348,3.4897,3.4639,3.5092,3.6021,3.6845,3.5264,3.5924,3.7337,3.5324,3.4695,3.4411,3.296,3.3521,3.433,3.2539,3.3132,3.4171,3.3637,3.3485,3.3485,3.3485,3.3485,3.3485,3.3485,3.3485,3.3637,3.4171,3.4237,3.4455,3.4938,3.5004,3.4739,3.3922,3.2575,3.1276,3.0222,3.001,2.9955,2.9955,2.9955,2.9955,2.9955,2.9955,3.003,3.0276,3.0332,3.0464,3.0765,3.0677,3.0198,2.9419,2.8775,2.8,2.7054,2.6363,2.6502,2.7349,2.751,2.8053,2.3714,2.442,2.5074,2.5992,2.7007,2.7746,2.7746,2.7746,2.7758,2.7781,2.7793,2.7793,2.7793,2.7793,2.7793,2.7793,2.7793,2.7793,2.7793,2.7793,2.7793,2.7793,2.7793,2.798,0.0,2.8551,2.8749,2.9319,2.985,3.03,3.0682,3.0682,3.0682,3.0682,3.0682,3.0682,3.0682,3.0682,3.0682,3.0682,3.0682,3.0682,3.0749,3.2103,3.2355,3.1558,3.1188,3.0575,2.9843,2.9938,3.018,3.0693,3.3038,3.4149,3.4505,3.502,3.4486,3.3446,3.3549,3.4352,3.5349,3.4181,3.3869,3.3586,3.2138,3.2711,3.3412,3.1098,3.1561,3.2441,3.088,3.0538,3.0538,3.0538,3.0538,3.0538,3.0538,3.0538,3.0932,3.2509,3.2778,3.3266,3.4588,3.4872,3.4673,3.3813,3.2962,3.1802,3.039,2.9943,2.9842,2.9842,2.9842,2.9898,2.9898,2.9898,2.9955,2.9955,2.9955,3.0087,3.0464,2.9636,2.8875,2.8365,2.7484,2.6554,2.5647,2.5926,2.6039,2.6086,2.71,2.7667,2.473,0.0,0.0,2.5993,2.6479,2.669,2.669,2.669,2.6902,2.7641,2.7793,2.7793,2.7793,2.7793,2.7793,2.7793,2.7793,2.7793,2.7793,2.7793,2.7793,2.7793,2.7793,2.7886,2.798,2.8364,2.8644,2.8749,2.9665,3.0208,3.03,3.059,3.0682,3.0682,3.0682,3.0682,3.0682,3.0682,3.0682,3.0682,3.0682,3.0682,3.0749,3.0706,3.0163,2.9105,2.9029,2.8629,2.8218,2.9845,2.9861,2.9097,3.1443,3.1887,3.1236,3.1841,3.285,3.3738,3.1913,3.2246,3.3267,3.1062,3.009,2.9628,2.8776,2.9505,3.0405,2.9282,3.0041,3.1085,3.0607,3.0538,3.0538,3.0538,3.0538,3.0538,3.0538,3.0538,3.0675,3.1085,3.2104,3.2643,3.19,3.2661,3.2993,3.1623,3.0349,2.8998,2.7537,2.7322,2.7239,2.7239,2.8126,2.8701,2.8701,2.9444,2.9955,2.9955,2.9955,2.9955,3.0087,2.9471,2.8788,2.7972,2.7334,2.6554,2.5647,2.5659,2.5659,2.5787,2.5986,2.6265,2.3941,0.0,0.0,0.0,2.4813,2.52,2.608,2.5928,2.5963,2.7218,2.7476,2.7535,2.7758,2.7793,2.7793,0.0,2.7793,2.7793,2.7793,2.7793,2.7793,2.7793,2.7793,2.7793,2.7793,2.8073,2.8364,2.8551,2.9108,2.9653,3.0115,3.03,3.0577,3.0682,3.0682,3.0682,3.0682,3.0682,3.0682,3.0682,3.0682,3.0682,3.0656,3.019,2.9437,2.8554,2.8074,2.7684,2.7493,2.8787,2.8917,2.8366,2.9947,3.0379,2.9969,3.0294,3.095,3.1499,2.9878,2.9704,2.9824,2.8291,2.7625,2.7381,2.6747,2.7673,2.8766,2.7766,2.8537,2.9507,2.89,2.8761,2.8761,2.8761,2.8761,2.8761,2.8761,2.8761,2.89,2.9491,3.0384,3.0863,3.0607,3.1289,3.1034,2.8712,2.7609,2.6775,2.5953,2.609,2.6263,2.6263,2.6907,2.7605,2.8126,2.8816,2.9387,2.9898,2.9955,2.9803,2.9461,2.8807,2.8039,2.7146,2.6533,2.5955,2.5405,2.5463,2.551,2.5612,2.551,2.5604,2.222,0.0,0.0,2.2326,2.2586,2.3303,0.0,0.0,2.4873,2.6362,2.6876,2.7203,2.7543,2.7732,2.7826,2.7699,2.7758,2.7793,2.7793,2.7793,2.7793,2.7793,2.7793,2.7793,2.7793,2.7793,2.798,2.8458,2.8551,2.9016,2.993,3.0035,3.022,3.0669,3.0682,3.0682,3.0682,3.0682,3.0682,3.0682,3.0682,3.0643,3.0658,3.0086,2.9528,2.9017,2.7853,2.7385,2.7385,2.745,2.7775,2.8294,2.8931,2.9411,2.9749,2.9814,2.9073,2.804,2.7986,2.7124,2.6212,2.615,2.63,2.6441,2.5897,2.6888,2.784,2.6565,2.7099,2.777,2.6494,2.6155,2.6155,2.6226,2.6226,2.6226,2.6226,2.6226,2.6636,2.7925,2.8243,2.873,2.9851,3.0129,2.8985,2.5566,2.505,2.5014,2.5,2.5447,2.5851,2.5851,2.5851,2.6363,2.7646,2.7895,2.8414,2.9444,2.9464,2.909,2.8378,2.7565,2.6789,2.6073,2.5408,2.5086,2.5086,2.5322,2.5435,2.5435,2.5435,2.5435,0.0,0.0,0.0,0.0,0.0,0.0,0.0,0.0,2.3258,2.4278,2.5958,2.7006,2.6659,2.7316,2.7776,2.7295,2.7523,2.7793,2.7793,2.7793,2.7793,2.7793,2.7793,2.7793,2.7793,2.7793,2.7886,2.798,2.8364,2.8644,2.883,2.9307,2.9678,3.0208,3.0208,3.0392,3.0682,3.0682,3.0682,3.0682,3.0682,3.0528,3.0073,2.9502,2.8931,2.8359,2.7684,2.7385,2.7424,2.7879,2.8126,2.832,2.9359,2.9268,2.8606,2.9073,2.8483,2.7376,2.7336,2.6835,2.6136,2.6383,2.6243,2.5883,2.6055,2.6367,2.6565,2.5928,2.5999,2.6126,2.5871,2.58,2.5871,2.6155,2.6226,2.6226,2.6226,2.6226,2.6296,2.6636,2.7576,2.8119,2.7255,2.7607,2.7014,2.4115,2.3665,2.3572,2.3127,2.3195,2.3243,2.3243,2.3243,2.3769,2.4975,2.5995,2.6732,2.6948,2.6498,2.6087,2.5932,2.549,2.513,2.4985,2.5052,2.5086,2.5086,2.5133,2.5133,2.5133,2.5133,2.5133,0.0,0.0,0.0,0.0,0.0,0.0,0.0,0.0,0.0,0.0,0.0,2.5171,0.0,0.0,2.6346,2.6274,2.6702,2.7124,2.7371,2.7406,2.7312,2.7066,2.7031,2.7136,2.7383,2.7406,2.7523,2.777,2.8073,2.8271,2.8551,2.904,2.9505,2.977,3.0023,3.0208,3.0392,3.0392,3.0485,3.0682,3.0476,3.0203,2.9904,2.9047,2.8502,2.819,2.7632,2.7385,2.7398,2.7684,2.797,2.8255,2.8541,2.8307,2.7801,2.7801,2.7236,2.6425,2.6122,2.5599,2.5002,2.5234,2.5176,2.5146,2.5289,2.5502,2.5658,2.5431,2.536,2.536,2.536,2.536,2.5431,2.5871,2.5942,2.6013,2.624,2.6226,2.6226,2.6226,2.657,2.6614,2.5895,2.5551,2.4936,2.3544,2.3139,2.2827,2.2574,2.2532,2.2418,2.209,2.2061,2.2284,2.2904,2.4076,2.4934,2.5271,2.5548,2.5437,2.4703,2.4503,2.401,2.3251,2.3361,2.3408,2.3408,2.3408,2.3762,2.4307,2.3714,2.3408,0.0,0.0,0.0,0.0,0.0,0.0,0.0,0.0,0.0,0.0,0.0,0.0,0.0,0.0,0.0,2.5107,2.5799,2.6421,2.6831,2.6796,2.662,2.6315,2.6268,2.6432,2.6843,2.689,2.7054,2.7465,2.75,2.7684,2.8065,2.8538,2.8814,2.8997,2.9431,2.9706,2.9889,2.9889,3.0072,3.0437,0.0,0.0,2.9567,2.8645,2.8164,2.8035,2.758,2.7385,2.7385,2.7385,2.7645,2.7996,2.732,2.7126,2.7152,2.6488,2.584,2.5269,2.485,2.4381,2.3918,2.399,2.4276,2.4491,2.4562,2.4848,0.0,2.5004,2.4933,2.4933,2.4933,2.4933,2.5075,2.5431,2.5502,2.5616,2.5787,2.5844,2.5802,2.5675,2.532,2.4967,2.4967,2.392,2.3043,2.293,2.2713,2.2489,2.2315,2.246,2.2332,2.1819,2.1762,2.1762,2.1762,2.2342,2.3099,2.3917,2.4678,2.4503,2.3131,2.3148,2.2562,2.1149,2.1309,2.1538,2.1771,2.1771,2.2276,2.3149,2.1285,2.0697,0.0,0.0,0.0,0.0,0.0,0.0,0.0,0.0,0.0,0.0,0.0,0.0,0.0,0.0,0.0,0.0,2.5318,2.6291,2.635,2.5963,2.5834,2.6233,2.6268,2.6291,2.635,2.6362,2.6374,2.6432,2.6444,2.6444,2.6533,0.0,0.0,0.0,0.0,2.8364,2.9268,2.9281,2.9281,2.9369,2.9304,2.8918,2.8411,2.8281,2.7957,2.7476,2.7411,2.7385,2.7385,2.7385,2.7424,2.7372,2.6295,2.6178,2.6475,2.5983,2.5074,2.41,2.4035,0.0,0.0,2.4348,2.4419,2.4562,2.4933,2.5004,2.499,2.4634,2.4562,2.4562,2.4562,2.4562,2.4634,2.5075,2.5146,2.4996,2.4617,2.4493,2.4342,2.3793,2.3842,2.4065,2.4065,2.2967,2.1962,2.1477,2.2038,2.2272,2.1424,2.207,2.2517,2.2432,0.0,0.0,2.2418,2.1276,2.1205,2.2627,2.1592,2.0388,1.9301,1.9722,1.9633,1.8848,1.9776,2.0709,2.1771,2.1771,2.182,2.1883,1.7554,1.6917,0.0,0.0,0.0,0.0,0.0,0.0,0.0,0.0,0.0,0.0,0.0,0.0,0.0,0.0,0.0,0.0,2.3452,2.4473,2.4473,2.4801,2.5118,2.5329,2.5353,2.5482,2.5799,2.5834,2.5951,2.6245,2.6268,2.6268,2.6268,2.6544,2.6709,2.6785,2.73,2.7813,2.8275,2.855,2.8899,2.9174,2.8749,2.8463,2.8119,2.7892,2.7606,2.7385,2.7385,2.7385,2.7359,2.7022,2.6879,0.0,0.0,0.0,0.0,0.0,2.462,2.3918,2.3918,2.3918,2.3918,2.4133,2.4133,2.4205,2.4348,2.4419,2.4348,2.4205,2.4133,2.4133,2.4133,2.4133,2.4184,2.4289,2.4279,2.4187,2.3796,2.3727,2.3659,2.34,2.3138,0.0,2.2313,2.1947,2.1659,2.1471,2.1697,2.1887,2.1697,2.1832,2.1906,2.1662,2.1515,2.1456,2.1456,2.0969,0.0,0.0,0.0,2.1389,2.0907,2.0423,0.0,0.0,0.0,0.0,0.0,0.0,0.0,0.0,1.692,1.6659,0.0,0.0,0.0,0.0,0.0,0.0,0.0,0.0,0.0,0.0,0.0,0.0,0.0,0.0,0.0,0.0,0.0,2.2737,2.2737,2.3511,2.4121,2.4262,2.4403,2.459,2.4848,2.5034,2.5435,2.581,2.5834,2.5834,2.5834,2.6192,2.6279,2.6007,2.6688,2.7021,2.7193,2.7636,2.8091,2.8434,2.8106,2.7996,2.7983,2.7567,2.7385,2.7372,2.7217,2.7152,2.71,2.6449,2.6216,2.6138,2.5477,2.4931,2.4615,2.4615,2.4342,2.3918,2.3918,2.3918,2.3918,2.3918,2.3918,2.3918,2.3918,2.3802,2.3685,2.3685,2.3568,2.3438,2.3438,2.3438,2.3417,2.3275,2.3319,2.3228,2.2841,2.2786,2.2732,2.2636,2.2181,2.1687,2.1074,2.1252,2.1382,2.1219,2.1402,0.0,2.1507,2.151,2.1455,2.1181,2.1021,2.0903,2.0903,2.0764,2.1019,2.1929,2.1905,2.2115,2.2517,2.0977,1.9641,1.868,1.7052,1.6028,0.0,0.0,0.0,0.0,0.0,0.0,0.0,0.0,0.0,0.0,0.0,0.0,0.0,0.0,0.0,0.0,0.0,0.0,0.0,0.0,0.0,0.0,0.0,0.0,2.1646,2.2052,2.259,2.3081,2.3652,2.3769,2.3222,2.4145,2.4731,2.4743,2.4743,2.4743,2.4743,2.4743,2.5004,2.5501,2.5513,2.5762,2.6093,2.6506,2.6671,2.6671,2.7165,2.7411,2.7411,2.7385,2.7385,2.7359,2.6708,2.6475,2.6423,2.5866,2.571,2.558,2.4425,2.3957,2.3944,2.3944,2.3931,2.3918,2.3918,2.3918,2.3918,2.3918,2.3918,2.3918,2.3918,2.3529,2.317,2.317,2.2698,2.219,2.219,2.219,2.219,2.2243,2.2164,2.2075,2.1581,2.1463,2.1294,2.0809,2.0691,2.0727,2.0946,2.1007,2.0808,2.0309,2.1009,0.0,2.0413,2.1023,2.1558,2.1531,2.1531,2.1531,2.1531,2.0524,2.0475,2.1901,2.0929,2.0976,2.2489,2.0082,1.8694,1.8658,1.7507,1.6256,1.4992,0.0,0.0,0.0,0.0,0.0,0.0,0.0,0.0,0.0,0.0,0.0,0.0,0.0,0.0,0.0,0.0,0.0,0.0,0.0,0.0,0.0,0.0,0.0,0.0,0.0,2.1994,2.2532,2.2742,2.2637,2.2185,2.2695,2.3105,2.3105,2.3804,2.4191,2.4191,2.4508,2.4779,2.4945,2.5536,2.5866,2.6043,2.6797,2.7126,2.7126,2.7303,2.7178,2.6734,2.6734,2.6606,2.6243,2.6048,2.5879,2.584,2.5397,2.4853,2.4464,2.4074,2.3918,2.3918,2.3918,2.3918,2.3853,2.349,2.3347,2.3295,2.2906,2.272,2.272,2.272,2.2646,2.2503,2.2503,2.236,2.2138,2.2138,2.2138,2.2047,2.1737,2.1646,2.149,2.0995,2.0864,2.0812,2.063,1.8904,1.7301,1.6704,1.7421,1.7671,1.6492,1.7398,1.8183,1.8071,1.8137,1.8303,1.849,1.8303,1.8253,1.8253,1.8051,1.8479,1.996,2.0053,2.0675,2.2079,2.0737,1.9954,1.9968,1.8716,1.6366,1.2893,0.0,0.0,0.0,0.0,0.0,0.0,0.0,0.0,0.0,0.0,0.0,0.0,0.0,0.0,0.0,0.0,0.0,0.0,0.0,0.0,0.0,0.0,0.0,0.0,0.0,0.0,2.1994,2.1725,0.0,2.0766,2.1035,2.1234,2.1234,2.2256,2.2913,2.31,2.3605,2.3969,2.4145,2.4723,2.4978,2.4978,2.5878,2.6373,2.6373,2.6615,2.658,2.6138,2.6138,2.5944,2.5658,2.5451,2.536,2.5295,2.4576,2.3899,2.3282,2.3087,2.288,2.2724,2.2932,2.3009,2.2983,2.2815,2.2763,2.2711,2.2267,2.1932,2.1607,2.1607,2.1179,2.0714,2.1128,2.1153,2.1101,2.1503,2.1607,2.1516,2.1153,2.0746,2.0253,1.9901,1.9356,1.8964,1.9097,1.7546,1.584,1.4773,1.5244,1.552,1.4697,1.5266,1.6,1.6721,1.6618,1.6555,1.6743,1.6618,1.6503,1.6503,1.6743,1.7545,1.8936,1.9665,2.0496,2.1591,2.0963,2.0098,1.8944,1.7923,1.5819,0.0,0.0,0.0,0.0,0.0,0.0,0.0,0.0,0.0,0.0,0.0,0.0,0.0,0.0,0.0,0.0,0.0,0.0,0.0,0.0,0.0,0.0,0.0,0.0,0.0,0.0,0.0,2.1387,2.0474,0.0,0.0,0.0,0.0,1.9059,2.0029,2.0906,2.1423,2.1912,2.2462,2.2999,2.31,2.3124,2.3171,2.4049,2.4514,2.4514,2.5299,2.5581,2.5632,2.5632,2.5619,2.5554,2.5058,2.4811,2.4719,2.3534,2.2646,2.2008,2.1503,2.0982,2.0526,2.1062,2.1269,2.1321,2.1853,2.206,2.2047,2.1957,2.1256,2.0408,2.0317,1.9088,0.0,0.0,1.9088,1.9028,2.02,2.0438,2.0451,2.0516,1.9393,1.8377,1.8377,1.7116,1.5988,0.0,1.6201,1.5833,1.4696,0.0,1.421,1.4524,1.4352,1.4673,1.6045,1.6273,1.6314,1.6314,1.6314,1.6314,1.6314,1.6545,1.7295,1.875,1.9418,2.0084,2.0774,2.0484,1.8934,1.5907,1.5199,0.0,0.0,0.0,0.0,0.0,0.0,0.0,0.0,0.0,0.0,0.0,0.0,0.0,0.0,0.0,0.0,0.0,0.0,0.0,0.0,0.0,0.0,0.0,0.0,0.0,0.0,1.7106,1.8252,1.9164,1.8346,1.7364,0.0,0.0,0.0,0.0,0.0,0.0,1.9246,2.0123,2.1012,2.1974,2.2378,2.291,2.3727,2.4204,2.4514,2.4514,2.4978,2.4992,2.4672,2.4947,2.485,2.436,2.4204,2.4139,2.4022,2.2451,2.1464,2.0955,2.0322,1.9432,1.8681,1.9737,1.9841,1.9679,2.0682,2.1021,2.0812,1.9406,1.8513,1.7751,1.6488,0.0,0.0,0.0,0.0,1.7348,1.8911,1.8492,1.7916,1.8817,1.8004,1.7005,1.7005,1.6658,1.5462,0.0,1.1511,1.0578,0.8756,0.0,0.0,0.0,0.0,1.1587,1.2251,1.3017,1.3485,1.3485,1.3485,1.3485,1.3485,1.354,1.4176,1.5622,1.6357,1.7076,1.7917,1.6971,1.5944,1.4938,0.0,0.0,0.0,0.0,0.0,0.0,0.0,0.0,0.0,0.0,0.0,0.0,0.0,0.0,0.0,0.0,0.0,0.0,0.0,0.0,0.0,0.0,0.0,0.0,0.0,0.0,0.0,1.5715,1.7223,1.8042,1.6882,1.5744,0.0,0.0,0.0,0.0,0.0,0.0,0.0,0.0,0.0,1.9807,2.0176,2.0729,2.1508,2.2551,2.3076,2.3076,2.4079,2.444,2.4132,2.4339,2.429,2.3892,2.3659,2.3256,2.2685,2.123,1.9997,1.9002,0.0,0.0,0.0,0.0,1.7049,1.6686,1.7634,1.7947,1.7752,1.6416,0.0,0.0,0.0,0.0,0.0,0.0,0.0,0.0,0.0,0.0,1.7878,1.8768,1.7489,1.619,1.6451,1.4748,1.2371,0.0,0.9164,0.8375,0.6749,0.0,0.0,0.0,0.0,0.9785,1.0783,1.1824,1.2416,1.2416,1.2416,1.2416,1.2416,1.2416,1.3047,1.4493,1.4863,1.5219,1.5596,1.4928,1.3539,0.0,0.0,0.0,0.0,0.0,0.0,0.0,0.0,0.0,0.0,0.0,0.0,0.0,0.0,0.0,0.0,0.0,0.0,0.0,0.0,0.0,0.0,0.0,0.0,0.0,0.0,0.0,0.0,0.0,1.6428,1.7013,0.0,0.0,0.0,0.0,0.0,0.0,0.0,0.0,0.0,0.0,0.0,0.0,0.0,1.7504,1.8182,1.97,2.056,2.0774,2.2399,2.3246,2.3323,2.3394,2.3516,2.3529,2.274,0.0,2.1036,1.9672,0.0,0.0,0.0,0.0,0.0,0.0,0.0,0.0,0.0,0.0,0.0,0.0,0.0,0.0,0.0,0.0,0.0,0.0,0.0,0.0,0.0,0.0,1.7835,1.8389,1.6629,1.4988,0.0,1.198,0.8528,0.8164,0.7997,0.0,0.0,0.0,0.0,0.0,0.0,0.0,1.049,1.1738,1.2416,1.2416,1.2416,1.2416,1.2416,1.2416,1.2983,1.4249,1.4064,1.3818,1.3532,1.3375,0.0,0.0,0.0,0.0,0.0,0.0,0.0,0.0,0.0,0.0,0.0,0.0,0.0,0.0,0.0,0.0,0.0,0.0,0.0,0.0,0.0,0.0,0.0,0.0,0.0,0.0,0.0,0.0,0.0,0.0,0.0,0.0,0.0,0.0,0.0,0.0,0.0,0.0,0.0,0.0,0.0,0.0,0.0,0.0,0.0,0.0,0.0,0.0,0.0,0.0,1.9148,1.979,2.0225,2.086,2.1437,2.1672,1.9218,1.8841,1.9704,1.7154,0.0,0.0,0.0,0.0,0.0,0.0,0.0,0.0,0.0,0.0,0.0,0.0,0.0,0.0,0.0,0.0,0.0,0.0,0.0,0.0,0.0,0.0,0.0,0.0,1.1946,1.1267,0.0,0.0,0.0,0.0,0.0,0.0,0.0,0.0,0.0,0.0,0.0,0.0,0.9496,1.1288,1.2416,1.2416,1.2416,1.2416,1.2416,1.2416,1.2544,1.2792,1.1966,1.1327,0.0,0.0,0.0,0.0,0.0,0.0,0.0,0.0,0.0,0.0,0.0,0.0,0.0,0.0,0.0,0.0,0.0,0.0,0.0,0.0,0.0,0.0,0.0,0.0,0.0,0.0,0.0,0.0,0.0,0.0,0.0,0.0,0.0,0.0,0.0,0.0,0.0,0.0,0.0,0.0,0.0,0.0,0.0,0.0,0.0,0.0,0.0,0.0,0.0,0.0,0.0,0.0,0.0,0.0,0.0,0.0,0.0,0.0,0.0,1.5348,0.0,0.0,0.0,0.0,0.0,0.0,0.0,0.0,0.0,0.0,0.0,0.0,0.0,0.0,0.0,0.0,0.0,0.0,0.0,0.0,0.0,0.0,0.0,0.0,0.0,0.0,0.0,0.0,0.0,0.0,0.0,0.0,0.0,0.0,0.0,0.0,0.0,0.0,0.0,0.0,0.9243,1.1177,1.2416,1.2416,1.2416,1.2416,1.2416,1.2416,1.2109,1.1387,1.071,0.0,0.0,0.0,0.0,0.0,0.0,0.0,0.0,0.0,0.0,0.0,0.0,0.0,0.0,0.0,0.0,0.0,0.0,0.0,0.0,0.0,0.0,0.0,0.0,0.0,0.0,0.0,0.0,0.0,0.0,0.0,0.0,0.0,0.0,0.0,0.0,0.0,0.0,0.0,0.0,0.0,0.0,0.0,0.0,0.0,0.0,0.0,0.0,0.0,0.0,0.0,0.0,0.0,0.0,0.0,0.0,0.0,0.0,0.0,1.4504,0.0,0.0,0.0,0.0,0.0,0.0,0.0,0.0,0.0,0.0,0.0,0.0,0.0,0.0,0.0,0.0,0.0,0.0,0.0,0.0,0.0,0.0,0.0,0.0,0.0,0.0,0.0,0.0,0.0,0.0,0.0,0.0,0.0,0.0,0.0,0.0,0.0,0.0,0.0,0.0,0.0,0.9061,1.1062,1.2416,1.2416,1.2416,1.2416,1.2416,1.2416,1.1819,1.0275,0.9687,0.0,0.0,0.0,0.0,0.0,0.0,0.0,0.0,0.0,0.0,0.0,0.0,0.0,0.0,0.0,0.0,0.0,0.0,0.0,0.0,0.0,0.0,0.0,0.0,0.0,0.0,0.0,0.0,0.0,0.0,0.0,0.0,0.0,0.0,0.0,0.0,0.0,0.0,0.0,0.0,0.0,0.0,0.0,0.0,0.0,0.0,0.0,0.0,0.0,0.0,0.0,0.0,0.0,0.0,0.0,0.0,0.0,0.0,0.0,0.0,0.0,0.0,0.0,0.0,0.0,0.0,0.0,0.0,0.0,0.0,0.0,0.0,0.0,0.0,0.0,0.0,0.0,0.0,0.0,0.0,0.0,0.0,0.0,0.0,0.0,0.0,0.0,0.0,0.0,0.0,0.0,0.0,0.0,0.0,0.0,0.0,0.0,0.0,0.0,0.0,0.0,0.8395,1.0775,1.2416,1.2416,1.2416,1.2416,1.2416,1.2416,1.1697,0.9883,0.0,0.0,0.0,0.0,0.0,0.0,0.0,0.0,0.0,0.0,0.0,0.0,0.0,0.0,0.0,0.0,0.0,0.0,0.0,0.0,0.0,0.0,0.0,0.0,0.0,0.0,0.0,0.0,0.0,0.0,0.0,0.0,0.0,0.0,0.0,0.0,0.0,0.0,0.0,0.0,0.0,0.0,0.0,0.0,0.0,0.0,0.0,0.0,0.0,0.0,0.0,0.0,0.0,0.0,0.0,0.0,0.0,0.0,0.0,0.0,0.0,0.0,0.0,0.0,0.0,0.0,0.0,0.0,0.0,0.0,0.0,0.0,0.0,0.0,0.0,0.0,0.0,0.0,0.0,0.0,0.0,0.0,0.0,0.0,0.0,0.0,0.0,0.0,0.0,0.0,0.0,0.0,0.0,0.0,0.0,0.0,0.0,0.0,0.0,0.0,0.0,0.0,0.7009,0.8803,1.0017,1.0017,1.0017,1.0017,1.0017,1.0017,0.9189,0.7398,0.0,0.0,0.0,0.0,0.0,0.0,0.0,0.0,0.0,0.0,0.0,0.0,0.0,0.0,0.0,0.0,0.0,0.0,0.0,0.0,0.0,0.0,0.0,0.0,0.0,0.0,0.0,0.0,0.0,0.0,0.0,0.0,0.0,0.0,0.0,0.0,0.0,0.0,0.0,0.0,0.0,0.0,0.0,0.0,0.0,0.0,0.0,0.0,0.0,0.0,0.0,0.0,0.0,0.0,0.0,0.0,0.0,0.0,0.0,0.0,0.0,0.0,0.0,0.0,0.0,0.0,0.0,0.0,0.0,0.0,0.0,0.0,0.0,0.0,0.0,0.0,0.0,0.0,0.0,0.0,0.0,0.0,0.0,0.0,0.0,0.0,0.0,0.0,0.0,0.0,0.0,0.0,0.0,0.0,0.0,0.0,0.0,0.0,0.0,0.0,0.0,0.0,0.5904,0.7355,0.8333,0.8333,0.8333,0.8333,0.8333,0.8333,0.7508,0.5591,0.0,0.0,0.0,0.0,0.0,0.0,0.0,0.0,0.0,0.0,0.0,0.0,0.0,0.0,0.0,0.0,0.0,0.0,0.0,0.0,0.0,0.0,0.0,0.0,0.0,0.0,0.0,0.0,0.0,0.0,0.0,0.0,0.0,0.0,0.0,0.0,0.0,0.0,0.0,0.0,0.0,0.0,0.0,0.0,0.0,0.0,0.0,0.0,0.0,0.0,0.0,0.0,0.0,0.0,0.0,0.0,0.0,0.0,0.0,0.0,0.0,0.0,0.0,0.0,0.0,0.0,0.0,0.0,0.0,0.0,0.0,0.0,0.0,0.0,0.0,0.0,0.0,0.0,0.0,0.0,0.0,0.0,0.0,0.0,0.0,0.0,0.0,0.0,0.0,0.0,0.0,0.0,0.0,0.0,0.0,0.0,0.0,0.0,0.0,0.0,0.0,0.0,0.5217,0.706,0.8333,0.8333,0.8333,0.8333,0.8333,0.8333,0.7403,0.0,0.0,0.0,0.0,0.0,0.0,0.0,0.0,0.0,0.0,0.0,0.0,0.0,0.0,0.0,0.0,0.0,0.0,0.0,0.0,0.0,0.0,0.0,0.0,0.0,0.0,0.0,0.0,0.0,0.0,0.0,0.0,0.0,0.0,0.0,0.0,0.0,0.0,0.0,0.0,0.0,0.0,0.0,0.0,0.0,0.0,0.0,0.0,0.0,0.0,0.0,0.0,0.0,0.0,0.0,0.0,0.0,0.0,0.0,0.0,0.0,0.0,0.0,0.0,0.0,0.0,0.0,0.0,0.0,0.0,0.0,0.0,0.0,0.0,0.0,0.0,0.0,0.0,0.0,0.0,0.0,0.0,0.0,0.0,0.0,0.0,0.0,0.0,0.0,0.0,0.0,0.0,0.0,0.0,0.0,0.0,0.0,0.0,0.0,0.0,0.0,0.0,0.0,0.3599,0.4369,0.508,0.0,0.555,0.555,0.555,0.5516,0.4912,0.3665,0.0,0.0,0.0,0.0,0.0,0.0,0.0,0.0,0.0,0.0,0.0,0.0,0.0,0.0,0.0,0.0,0.0,0.0,0.0,0.0,0.0,0.0,0.0,0.0,0.0,0.0,0.0,0.0,0.0,0.0,0.0,0.0,0.0,0.0,0.0,0.0,0.0,0.0,0.0,0.0,0.0,0.0,0.0,0.0,0.0,0.0,0.0,0.0,0.0,0.0,0.0,0.0,0.0,0.0,0.0,0.0,0.0,0.0,0.0,0.0,0.0,0.0,0.0,0.0,0.0,0.0,0.0,0.0,0.0,0.0,0.0,0.0,0.0,0.0,0.0,0.0,0.0,0.0,0.0,0.0,0.0,0.0,0.0,0.0,0.0,0.0,0.0,0.0,0.0,0.0,0.0,0.0,0.0,0.0,0.0,0.0,0.0,0.0,0.0,0.0,0.0,0.0,0.0,0.334,0.3823,0.0,0.4252,0.4252,0.4252,0.4142,0.3787,0.3022,0.0,0.0,0.0,0.0,0.0,0.0,0.0,0.0,0.0,0.0,0.0,0.0,0.0,0.0,0.0,0.0,0.0,0.0,0.0,0.0,0.0,0.0,0.0,0.0,0.0,0.0,0.0,0.0,0.0,0.0,0.0,0.0,0.0,0.0,0.0,0.0,0.0,0.0,0.0,0.0,0.0,0.0,0.0,0.0,0.0,0.0,0.0,0.0,0.0,0.0,0.0,0.0,0.0,0.0,0.0,0.0,0.0,0.0,0.0,0.0,0.0,0.0,0.0,0.0,0.0,0.0,0.0,0.0,0.0,0.0,0.0,0.0,0.0,0.0,0.0,0.0,0.0,0.0,0.0,0.0,0.0,0.0,0.0,0.0,0.0,0.0,0.0,0.0,0.0,0.0,0.0,0.0,0.0,0.0,0.0,0.0,0.0,0.0,0.0,0.0,0.0,0.0,0.0,0.3676,0.4215,0.4247,0.4252,0.4252,0.4252,0.4134,0.3811,0.3126,0.2756,0.0,0.0,0.0,0.0,0.0,0.0,0.0,0.0,0.0,0.0,0.0,0.0,0.0,0.0,0.0,0.0,0.0,0.0,0.0,0.0,0.0,0.0,0.0,0.0,0.0,0.0,0.0,0.0,0.0,0.0,0.0,0.0,0.0,0.0,0.0,0.0,0.0,0.0,0.0,0.0,0.0,0.0,0.0,0.0,0.0,0.0,0.0,0.0,0.0,0.0,0.0,0.0,0.0,0.0,0.0,0.0,0.0,0.0,0.0,0.0,0.0,0.0,0.0,0.0,0.0,0.0,0.0,0.0,0.0,0.0,0.0,0.0,0.0,0.0,0.0,0.0,0.0,0.0,0.0,0.0,0.0,0.0,0.0,0.0,0.0,0.0,0.0,0.0,0.0,0.0,0.0,0.0,0.0,0.0,0.0,0.0,0.0,0.0,0.0,0.0,0.0,0.0,0.3221,0.3733,0.4215,0.4252,0.4252,0.4252,0.4059,0.3722,0.3121,0.2728,0.0,0.0,0.0,0.0,0.0,0.0,0.0,0.0,0.0,0.0,0.0,0.0,0.0,0.0,0.0,0.0,0.0,0.0,0.0,0.0,0.0,0.0,0.0,0.0,0.0,0.0,0.0,0.0,0.0,0.0,0.0,0.0,0.0,0.0,0.0,0.0,0.0,0.0,0.0,0.0,0.0,0.0,0.0,0.0,0.0,0.0,0.0,0.0,0.0,0.0,0.0,0.0,0.0,0.0,0.0,0.0,0.0,0.0,0.0,0.0,0.0,0.0,0.0,0.0,0.0,0.0,0.0,0.0,0.0,0.0,0.0,0.0,0.0,0.0,0.0,0.0,0.0,0.0,0.0,0.0,0.0,0.0,0.0,0.0,0.0,0.0,0.0,0.0,0.0,0.0,0.0,0.0,0.0,0.0,0.0,0.0,0.0,0.0,0.0,0.0,0.0,0.0,0.2598,0.2995,0.3673,0.3923,0.3968,0.3918,0.3754,0.3441,0.3045,0.2717,0.0,0.0,0.0,0.0,0.0,0.0,0.0,0.0,0.0,0.0,0.0,0.0,0.0,0.0,0.0,0.0,0.0,0.0,0.0,0.0,0.0,0.0,0.0,0.0,0.0,0.0,0.0,0.0,0.0,0.0,0.0,0.0,0.0,0.0,0.0,0.0,0.0,0.0,0.0,0.0,0.0,0.0,0.0,0.0,0.0,0.0,0.0,0.0,0.0,0.0,0.0,0.0,0.0,0.0,0.0,0.0,0.0,0.0,0.0,0.0,0.0,0.0,0.0,0.0,0.0,0.0,0.0,0.0,0.0,0.0,0.0,0.0,0.0,0.0,0.0,0.0,0.0,0.0,0.0,0.0,0.0,0.0,0.0,0.0,0.0,0.0,0.0,0.0,0.0,0.0,0.0,0.0,0.0,0.0,0.0,0.0,0.0,0.0,0.0,0.0,0.0,0.0,0.0,0.239,0.3008,0.3366,0.3556,0.3453,0.3351,0.3192,0.286,0.0,0.0,0.0,0.0,0.0,0.0,0.0,0.0,0.0,0.0,0.0,0.0,0.0,0.0,0.0,0.0,0.0,0.0,0.0,0.0,0.0,0.0,0.0,0.0,0.0,0.0,0.0,0.0,0.0,0.0,0.0,0.0,0.0,0.0,0.0,0.0,0.0,0.0,0.0,0.0,0.0,0.0,0.0,0.0,0.0,0.0,0.0,0.0,0.0,0.0,0.0,0.0,0.0,0.0,0.0,0.0,0.0,0.0,0.0,0.0,0.0,0.0,0.0,0.0,0.0,0.0,0.0,0.0,0.0,0.0,0.0,0.0,0.0,0.0,0.0,0.0,0.0,0.0,0.0,0.0,0.0,0.0,0.0,0.0,0.0,0.0,0.0,0.0,0.0,0.0,0.0,0.0,0.0,0.0,0.0,0.0,0.0,0.0,0.0,0.0,0.0,0.0,0.0,0.0,0.0,0.2738,0.3024,0.3166,0.32,0.3229,0.308,0.2624,0.0,0.0,0.0,0.0,0.0,0.0,0.0,0.0,0.0,0.0,0.0,0.0,0.0,0.0]}]]]